[[{"header":{"parameterUnit":"m.s-1","parameterCategory":1,"la1":30.6,"la2":28.766,"lo1":-90.7593,"lo2":-88.6598,"dy":0.0162,"dx":0.0183,"nx":116,"ny":114,"refTime":"2023-06-18T00:00:00:Z","depth":0,"parameterNumber":2,"parameterNumberName":"U-component_of_WINDS"},"data":[0.0,0.0,0.0,0.0,0.0,0.0,0.0,0.0,0.0,0.0,0.0,0.0,0.0,0.0,0.0,0.0,0.0,0.0,0.0,0.0,0.0,0.0,0.0,0.0,0.0,0.0,0.0,0.0,0.0,0.0,0.0,0.0,0.0,0.0,0.0,0.0,0.0,0.0,0.0,0.0,0.0,0.0,0.0,0.0,0.0,0.0,0.0,0.0,0.0,0.0,0.0,0.0,0.0,0.0,0.0,0.0,0.0,0.0,0.0,0.0,0.0,0.0,0.0,0.0,0.0,0.0,0.0,0.0,0.0,0.0,0.0,0.0,0.0,0.0,0.0,0.0,0.0,0.0,0.0,0.0,0.0,0.0,0.0,0.0,0.0,0.0,0.0,0.0,0.0,0.0,0.0,0.0,0.0,0.0,0.0,0.0,0.0,0.0,0.0,0.0,0.0,0.0,0.0,0.0,0.0,0.0,0.0,0.0,0.0,0.0,0.0,0.0,0.0,0.0,0.0,0.0,0.0,0.0,0.0,0.0,0.0,0.0,0.0,0.0,0.0,0.0,0.0,0.0,0.0,0.0,0.0,0.0,0.0,0.0,0.0,0.0,0.0,0.0,0.0,0.0,0.0,0.0,0.0,0.0,0.0,0.0,0.0,0.0,0.0,0.0,0.0,0.0,0.0,0.0,0.0,0.0,0.0,0.0,0.0,0.0,0.0,0.0,0.0,0.0,0.0,0.0,0.0,0.0,0.0,0.0,0.0,0.0,0.0,0.0,0.0,0.0,0.0,0.0,0.0,0.0,0.0,0.0,0.0,0.0,0.0,0.0,0.0,0.0,0.0,0.0,0.0,0.0,0.0,0.0,0.0,0.0,0.0,0.0,0.0,0.0,0.0,0.0,0.0,0.0,0.0,0.0,0.0,0.0,0.0,0.0,0.0,0.0,0.0,0.0,0.0,0.0,0.0,0.0,0.0,0.0,0.0,0.0,0.0,0.0,0.0,0.0,0.0,0.0,0.0,0.0,0.0,0.0,0.0,0.0,0.0,0.0,0.0,0.0,0.0,0.0,0.0,0.0,0.0,0.0,0.0,0.0,0.0,0.0,0.0,0.0,0.0,0.0,0.0,0.0,0.0,0.0,0.0,0.0,0.0,0.0,0.0,0.0,0.0,0.0,0.0,0.0,0.0,0.0,0.0,0.0,0.0,0.0,0.0,0.0,0.0,0.0,0.0,0.0,0.0,0.0,0.0,0.0,0.0,0.0,0.0,0.0,0.0,0.0,0.0,0.0,0.0,0.0,0.0,0.0,0.0,0.0,0.0,0.0,0.0,0.0,0.0,0.0,0.0,0.0,0.0,0.0,0.0,0.0,0.0,0.0,0.0,0.0,0.0,0.0,0.0,0.0,0.0,0.0,0.0,0.0,0.0,0.0,0.0,0.0,0.0,0.0,0.0,0.0,0.0,0.0,0.0,0.0,0.0,0.0,0.0,0.0,0.0,0.0,0.0,0.0,0.0,0.0,0.0,0.0,0.0,0.0,0.0,0.0,0.0,0.0,0.0,0.0,0.0,0.0,0.0,0.0,0.0,0.0,0.0,0.0,0.0,0.0,0.0,0.0,0.0,0.0,0.0,0.0,0.0,0.0,0.0,0.0,0.0,0.0,0.0,0.0,0.0,0.0,0.0,0.0,0.0,0.0,0.0,0.0,0.0,0.0,0.0,0.0,0.0,0.0,0.0,0.0,0.0,0.0,0.0,0.0,0.0,0.0,0.0,0.0,0.0,0.0,0.0,0.0,0.0,0.0,0.0,0.0,0.0,0.0,0.0,0.0,0.0,0.0,0.0,0.0,0.0,0.0,0.0,0.0,0.0,0.0,0.0,0.0,0.0,0.0,0.0,0.0,0.0,0.0,0.0,0.0,0.0,0.0,0.0,0.0,0.0,0.0,0.0,0.0,0.0,0.0,0.0,0.0,0.0,0.0,0.0,0.0,0.0,0.0,0.0,0.0,0.0,0.0,0.0,0.0,0.0,0.0,0.0,0.0,0.0,0.0,0.0,0.0,0.0,0.0,0.0,0.0,0.0,0.0,0.0,0.0,0.0,0.0,0.0,0.0,0.0,0.0,0.0,0.0,0.0,0.0,0.0,0.0,0.0,0.0,0.0,0.0,0.0,0.0,0.0,0.0,0.0,0.0,0.0,0.0,0.0,0.0,0.0,0.0,0.0,0.0,0.0,0.0,0.0,0.0,0.0,0.0,0.0,0.0,0.0,0.0,0.0,0.0,0.0,0.0,0.0,0.0,0.0,0.0,0.0,0.0,0.0,0.0,0.0,0.0,0.0,0.0,0.0,0.0,0.0,0.0,0.0,0.0,0.0,0.0,0.0,0.0,0.0,0.0,0.0,0.0,0.0,0.0,0.0,0.0,0.0,0.0,0.0,0.0,0.0,0.0,0.0,0.0,0.0,0.0,0.0,0.0,0.0,0.0,0.0,0.0,0.0,0.0,0.0,0.0,0.0,0.0,0.0,0.0,0.0,0.0,0.0,0.0,0.0,0.0,0.0,0.0,0.0,0.0,0.0,0.0,0.0,0.0,0.0,0.0,0.0,0.0,0.0,0.0,0.0,0.0,0.0,0.0,0.0,0.0,0.0,0.0,0.0,0.0,0.0,0.0,0.0,0.0,0.0,0.0,0.0,0.0,0.0,0.0,0.0,0.0,0.0,0.0,0.0,0.0,0.0,0.0,0.0,0.0,0.0,0.0,0.0,0.0,0.0,0.0,0.0,0.0,0.0,0.0,0.0,0.0,0.0,0.0,0.0,0.0,0.0,0.0,0.0,0.0,0.0,0.0,0.0,0.0,0.0,0.0,0.0,0.0,0.0,0.0,0.0,0.0,0.0,0.0,0.0,0.0,0.0,0.0,0.0,0.0,0.0,0.0,0.0,0.0,0.0,0.0,0.0,0.0,0.0,0.0,0.0,0.0,0.0,0.0,0.0,0.0,0.0,0.0,0.0,0.0,0.0,0.0,0.0,0.0,0.0,0.0,0.0,0.0,0.0,0.0,0.0,0.0,0.0,0.0,0.0,0.0,0.0,0.0,0.0,0.0,0.0,0.0,0.0,0.0,0.0,0.0,0.0,0.0,0.0,0.0,0.0,0.0,0.0,0.0,0.0,0.0,0.0,0.0,0.0,0.0,0.0,0.0,0.0,0.0,0.0,0.0,0.0,0.0,0.0,0.0,0.0,0.0,0.0,0.0,0.0,0.0,0.0,0.0,0.0,0.0,0.0,0.0,0.0,0.0,0.0,0.0,0.0,0.0,0.0,0.0,0.0,0.0,0.0,0.0,0.0,0.0,0.0,0.0,0.0,0.0,0.0,0.0,0.0,0.0,0.0,0.0,0.0,0.0,0.0,0.0,0.0,0.0,0.0,0.0,0.0,0.0,0.0,0.0,0.0,0.0,0.0,0.0,0.0,0.0,0.0,0.0,0.0,0.0,0.0,0.0,0.0,0.0,0.0,0.0,0.0,0.0,0.0,0.0,0.0,0.0,0.0,0.0,0.0,0.0,0.0,0.0,0.0,0.0,0.0,0.0,0.0,0.0,0.0,0.0,0.0,0.0,0.0,0.0,0.0,0.0,0.0,0.0,0.0,0.0,0.0,0.0,0.0,0.0,0.0,0.0,0.0,0.0,0.0,0.0,0.0,0.0,0.0,0.0,0.0,0.0,0.0,0.0,0.0,0.0,0.0,0.0,0.0,0.0,0.0,0.0,0.0,0.0,0.0,0.0,0.0,0.0,0.0,0.0,0.0,0.0,0.0,0.0,0.0,0.0,0.0,0.0,0.0,0.0,0.0,0.0,0.0,0.0,0.0,0.0,0.0,0.0,0.0,0.0,0.0,0.0,0.0,0.0,0.0,0.0,0.0,0.0,0.0,0.0,0.0,0.0,0.0,0.0,0.0,0.0,0.0,0.0,0.0,0.0,0.0,0.0,0.0,0.0,0.0,0.0,0.0,0.0,0.0,0.0,0.0,0.0,0.0,0.0,0.0,0.0,0.0,0.0,0.0,0.0,0.0,0.0,0.0,0.0,0.0,0.0,0.0,0.0,0.0,0.0,0.0,0.0,0.0,0.0,0.0,0.0,0.0,0.0,0.0,0.0,0.0,0.0,0.0,0.0,0.0,0.0,0.0,0.0,0.0,0.0,0.0,0.0,0.0,0.0,0.0,0.0,0.0,0.0,0.0,0.0,0.0,0.0,0.0,0.0,0.0,0.0,0.0,0.0,0.0,0.0,0.0,0.0,0.0,0.0,0.0,0.0,0.0,0.0,0.0,0.0,0.0,0.0,0.0,0.0,0.0,0.0,0.0,0.0,0.0,0.0,0.0,0.0,0.0,0.0,0.0,0.0,0.0,0.0,0.0,0.0,0.0,0.0,0.0,0.0,0.0,0.0,0.0,0.0,0.0,0.0,0.0,0.0,0.0,0.0,0.0,0.0,0.0,0.0,0.0,0.0,0.0,0.0,0.0,0.0,0.0,0.0,0.0,0.0,0.0,0.0,0.0,0.0,0.0,0.0,0.0,0.0,0.0,0.0,0.0,0.0,0.0,0.0,0.0,0.0,0.0,0.0,0.0,0.0,0.0,0.0,0.0,0.0,0.0,0.0,0.0,0.0,0.0,0.0,0.0,0.0,0.0,0.0,0.0,0.0,0.0,0.0,0.0,0.0,0.0,0.0,0.0,0.0,0.0,0.0,0.0,0.0,0.0,0.0,0.0,0.0,0.0,0.0,0.0,0.0,0.0,0.0,0.0,0.0,0.0,0.0,0.0,0.0,0.0,0.0,0.0,0.0,0.0,0.0,0.0,0.0,0.0,0.0,0.0,0.0,0.0,0.0,0.0,0.0,0.0,0.0,0.0,0.0,0.0,0.0,0.0,0.0,0.0,0.0,0.0,0.0,0.0,0.0,0.0,0.0,0.0,0.0,0.0,0.0,0.0,0.0,0.0,0.0,0.0,0.0,0.0,0.0,0.0,0.0,0.0,0.0,0.0,0.0,0.0,0.0,0.0,0.0,0.0,0.0,0.0,0.0,0.0,0.0,0.0,0.0,0.0,0.0,0.0,0.0,0.0,0.0,0.0,0.0,0.0,0.0,0.0,0.0,0.0,0.0,0.0,0.0,0.0,0.0,0.0,0.0,0.0,0.0,0.0,0.0,0.0,0.0,0.0,0.0,0.0,0.0,0.0,0.0,0.0,0.0,0.0,0.0,0.0,0.0,0.0,0.0,0.0,0.0,0.0,0.0,0.0,0.0,0.0,0.0,0.0,0.0,0.0,0.0,0.0,0.0,0.0,0.0,0.0,0.0,0.0,0.0,0.0,0.0,0.0,0.0,0.0,0.0,0.0,0.0,0.0,0.0,0.0,0.0,0.0,0.0,0.0,0.0,0.0,0.0,0.0,0.0,0.0,0.0,0.0,0.0,0.0,0.0,0.0,0.0,0.0,0.0,0.0,0.0,0.0,0.0,0.0,0.0,0.0,0.0,0.0,0.0,0.0,0.0,0.0,0.0,0.0,0.0,0.0,0.0,0.0,0.0,0.0,0.0,0.0,0.0,0.0,0.0,0.0,0.0,0.0,0.0,0.0,0.0,0.0,0.0,0.0,0.0,0.0,0.0,0.0,0.0,0.0,0.0,0.0,0.0,0.0,0.0,0.0,0.0,0.0,0.0,0.0,0.0,0.0,0.0,0.0,0.0,0.0,0.0,0.0,0.0,0.0,0.0,0.0,0.0,0.0,0.0,0.0,0.0,0.0,0.0,0.0,0.0,0.0,0.0,0.0,0.0,0.0,0.0,0.0,0.0,0.0,0.0,0.0,0.0,0.0,0.0,0.0,0.0,0.0,0.0,0.0,0.0,0.0,0.0,0.0,0.0,0.0,0.0,0.0,0.0,0.0,0.0,0.0,0.0,0.0,0.0,0.0,0.0,0.0,0.0,0.0,0.0,0.0,0.0,0.0,0.0,0.0,0.0,0.0,0.0,0.0,0.0,0.0,0.0,0.0,0.0,0.0,0.0,0.0,0.0,0.0,0.0,0.0,0.0,0.0,0.0,0.0,0.0,-0.9897,0.0,0.0,0.0,0.0,0.0,0.0,0.0,0.0,0.0,0.0,0.0,0.0,0.0,0.0,0.0,0.0,0.0,0.0,0.0,0.0,0.0,0.0,0.0,0.0,0.0,0.0,0.0,0.0,0.0,0.0,0.0,0.0,0.0,0.0,0.0,0.0,0.0,0.0,0.0,0.0,0.0,0.0,0.0,0.0,0.0,0.0,0.0,0.0,0.0,0.0,0.0,0.0,0.0,0.0,0.0,0.0,0.0,0.0,0.0,0.0,0.0,0.0,0.0,0.0,0.0,0.0,0.0,0.0,0.0,0.0,0.0,0.0,0.0,0.0,0.0,0.0,0.0,0.0,0.0,0.0,0.0,0.0,0.0,0.0,0.0,0.0,0.0,0.0,0.0,0.0,0.0,0.0,0.0,0.0,0.0,0.0,0.0,0.0,0.0,0.0,0.0,0.0,0.0,0.0,0.0,0.0,0.0,0.0,0.0,0.0,0.0,0.0,0.0,0.0,0.0,0.0,-1.051,0.0,0.0,0.0,0.0,0.0,0.0,0.0,0.0,0.0,0.0,0.0,0.0,0.0,0.0,0.0,0.0,0.0,0.0,0.0,0.0,0.0,0.0,0.0,0.0,0.0,0.0,0.0,0.0,0.0,0.0,0.0,0.0,0.0,0.0,0.0,0.0,0.0,0.0,0.0,0.0,0.0,0.0,0.0,0.0,0.0,0.0,0.0,0.0,0.0,0.0,0.0,0.0,0.0,0.0,0.0,0.0,0.0,0.0,0.0,0.0,0.0,0.0,0.0,0.0,0.0,0.0,0.0,0.0,0.0,0.0,0.0,0.0,0.0,0.0,0.0,0.0,0.0,0.0,0.0,0.0,0.0,0.0,0.0,0.0,0.0,0.0,0.0,0.0,0.0,0.0,0.0,0.0,0.0,0.0,0.0,0.0,0.0,0.0,0.0,0.0,0.0,0.0,0.0,0.0,0.0,0.0,0.0,0.0,0.0,0.0,-1.1549,-1.1957,-1.2167,-1.2179,-1.1413,-1.0961,-1.095,0.0,0.0,0.0,0.0,0.0,0.0,0.0,0.0,0.0,0.0,0.0,0.0,0.0,0.0,0.0,0.0,0.0,0.0,0.0,0.0,0.0,0.0,0.0,0.0,0.0,0.0,0.0,0.0,0.0,0.0,0.0,0.0,0.0,0.0,0.0,0.0,0.0,0.0,0.0,-1.8596,-1.8611,-1.8513,-1.8511,-1.6295,0.0,0.0,0.0,0.0,0.0,0.0,0.0,0.0,0.0,0.0,0.0,0.0,0.0,0.0,0.0,0.0,0.0,0.0,0.0,0.0,0.0,0.0,0.0,0.0,0.0,0.0,0.0,0.0,0.0,0.0,0.0,0.0,0.0,0.0,0.0,0.0,0.0,0.0,0.0,0.0,0.0,0.0,0.0,-0.8568,-0.8568,0.0,0.0,0.0,0.0,0.0,0.0,0.0,0.0,0.0,0.0,0.0,0.0,0.0,0.0,-1.1699,-1.1214,-1.1435,-1.2249,-1.2026,-1.2147,-1.2738,-1.2711,-1.272,-1.2773,-1.3113,0.0,-1.2512,-1.237,0.0,0.0,0.0,0.0,0.0,0.0,0.0,0.0,0.0,0.0,0.0,0.0,0.0,0.0,0.0,0.0,0.0,0.0,0.0,0.0,0.0,0.0,0.0,0.0,0.0,0.0,0.0,0.0,0.0,0.0,0.0,0.0,0.0,0.0,0.0,0.0,-1.8082,-1.8725,-1.9347,-1.8801,-1.836,-1.789,-1.5911,-1.5446,-1.6356,-1.5072,0.0,0.0,0.0,0.0,0.0,0.0,0.0,0.0,0.0,0.0,0.0,0.0,0.0,0.0,0.0,0.0,0.0,0.0,0.0,0.0,0.0,0.0,0.0,0.0,0.0,0.0,0.0,0.0,0.0,0.0,0.0,0.0,0.0,0.0,0.0,0.0,0.0,0.0,0.0,-0.8828,-0.9066,-0.9059,-0.9384,-0.9665,0.0,0.0,0.0,0.0,0.0,0.0,0.0,0.0,0.0,-1.1405,-1.1703,-1.2099,-1.2348,-1.2585,-1.2914,-1.3328,-1.3456,-1.3734,-1.4157,-1.4422,-1.4422,-1.4563,-1.492,-1.4688,-1.4099,-1.3419,-1.2956,-1.2654,0.0,0.0,0.0,0.0,0.0,0.0,0.0,0.0,0.0,0.0,0.0,0.0,0.0,0.0,0.0,0.0,0.0,0.0,0.0,0.0,0.0,0.0,0.0,0.0,0.0,0.0,0.0,0.0,0.0,0.0,0.0,0.0,0.0,0.0,-1.9111,-1.9813,-2.0384,-1.978,-1.9225,-1.8669,-1.7029,-1.6322,-1.6147,-1.4653,-1.4678,0.0,0.0,0.0,0.0,0.0,0.0,0.0,0.0,0.0,0.0,0.0,0.0,0.0,0.0,0.0,0.0,0.0,0.0,0.0,0.0,0.0,0.0,0.0,0.0,0.0,0.0,0.0,0.0,0.0,0.0,0.0,0.0,0.0,0.0,0.0,0.0,0.0,0.0,-0.9263,-0.9531,-0.9495,-0.996,-1.022,0.0,0.0,0.0,0.0,0.0,0.0,-1.1099,-1.1816,-1.2285,-1.2416,-1.2902,-1.3336,-1.3436,-1.3979,-1.4494,-1.4701,-1.4973,-1.5265,-1.5687,-1.5983,-1.6099,-1.6053,-1.6196,-1.6046,-1.547,-1.443,-1.3759,-1.3381,-1.3325,-1.3343,0.0,-1.3514,-1.3551,-1.357,0.0,0.0,0.0,0.0,0.0,0.0,0.0,0.0,0.0,0.0,0.0,0.0,0.0,0.0,0.0,0.0,0.0,0.0,0.0,0.0,0.0,0.0,0.0,0.0,0.0,0.0,0.0,-1.9925,-2.0111,-2.0823,-2.2067,-2.2238,-2.2399,-2.2291,-2.086,-1.7853,-1.3788,-1.285,-1.3136,-1.404,0.0,0.0,0.0,0.0,0.0,0.0,0.0,0.0,0.0,0.0,0.0,0.0,0.0,0.0,0.0,0.0,0.0,0.0,0.0,0.0,0.0,0.0,0.0,0.0,0.0,0.0,0.0,0.0,0.0,0.0,0.0,0.0,0.0,0.0,0.0,0.0,0.0,0.0,0.0,-0.9511,-1.0314,0.0,0.0,0.0,0.0,-1.1801,-1.2081,-1.2277,-1.2516,-1.3365,-1.3831,-1.3951,-1.4597,-1.5266,-1.5656,-1.5665,-1.5919,-1.6451,-1.6441,-1.66,-1.7057,-1.7057,-1.6953,-1.6774,-1.6774,-1.6642,-1.6339,-1.53,-1.4629,-1.4232,-1.4043,-1.4081,-1.4222,-1.4043,-1.3977,-1.3986,0.0,0.0,0.0,0.0,0.0,0.0,0.0,0.0,0.0,0.0,0.0,0.0,0.0,0.0,0.0,0.0,0.0,0.0,0.0,0.0,0.0,0.0,0.0,0.0,0.0,0.0,-1.9271,-2.017,-2.1203,-2.2111,-2.2784,-2.3106,-2.2849,-2.2112,-2.0527,-1.8383,-1.6118,-1.474,-1.4193,-1.4113,-1.3506,-1.3968,0.0,0.0,0.0,0.0,0.0,0.0,0.0,0.0,0.0,0.0,0.0,0.0,0.0,0.0,0.0,0.0,0.0,0.0,0.0,0.0,0.0,0.0,0.0,0.0,0.0,0.0,0.0,0.0,0.0,0.0,0.0,0.0,0.0,0.0,0.0,0.0,0.0,-1.1411,-1.232,0.0,0.0,-1.2687,-1.2785,-1.3159,-1.3412,-1.3769,-1.4157,-1.4911,-1.5307,-1.5415,-1.625,-1.6527,-1.6525,-1.6989,-1.7171,-1.7089,-1.7409,-1.7564,-1.7709,-1.7709,-1.7672,-1.7605,-1.7605,-1.7483,-1.7256,-1.6887,-1.6169,-1.529,-1.5082,-1.5054,-1.512,-1.5177,-1.5196,-1.5224,0.0,0.0,0.0,0.0,0.0,0.0,0.0,0.0,0.0,0.0,0.0,0.0,0.0,0.0,0.0,0.0,0.0,0.0,0.0,0.0,0.0,0.0,0.0,0.0,0.0,-1.9508,-2.0293,-2.1042,-2.233,-2.3179,-2.3603,-2.394,-2.3608,-2.2772,-2.1727,-2.0435,-1.9076,-1.7414,-1.5729,-1.4147,-1.3573,-1.3879,-1.4642,0.0,0.0,0.0,0.0,0.0,0.0,0.0,0.0,0.0,0.0,0.0,0.0,0.0,0.0,0.0,0.0,0.0,0.0,0.0,0.0,0.0,0.0,0.0,0.0,0.0,0.0,0.0,0.0,0.0,0.0,0.0,0.0,0.0,0.0,0.0,-1.2569,-1.3054,-1.4024,-1.4508,-1.4351,-1.429,-1.4371,-1.464,-1.4937,-1.5301,-1.5713,-1.6357,-1.6805,-1.6993,-1.7645,-1.798,-1.7665,-1.8077,-1.8201,-1.787,-1.8126,-1.822,-1.8154,-1.8154,-1.8116,-1.805,-1.805,-1.7965,-1.7832,-1.7832,-1.735,-1.6575,-1.6301,-1.615,-1.6103,-1.6311,-1.6301,-1.6207,0.0,0.0,0.0,0.0,0.0,0.0,0.0,0.0,0.0,0.0,0.0,0.0,0.0,0.0,0.0,0.0,0.0,0.0,0.0,0.0,0.0,0.0,0.0,0.0,-1.9239,-2.0509,-2.1701,-2.2652,-2.331,-2.3969,-2.4598,-2.4935,-2.492,-2.4627,-2.4949,-2.4082,-2.2284,-2.0513,-1.7585,-1.4033,-1.3372,-1.3788,-1.473,0.0,0.0,0.0,0.0,0.0,0.0,0.0,0.0,0.0,0.0,0.0,0.0,0.0,0.0,0.0,0.0,0.0,0.0,0.0,0.0,0.0,0.0,0.0,0.0,0.0,0.0,0.0,0.0,0.0,0.0,0.0,0.0,0.0,-1.1449,-1.2682,-1.3793,-1.418,-1.5099,-1.5381,-1.5008,-1.537,-1.5677,-1.6112,-1.6364,-1.6715,-1.7426,-1.7828,-1.8293,-1.8496,-1.9025,-1.9297,-1.9297,-1.908,-1.8966,-1.8976,-1.8768,-1.8569,-1.8361,-1.8352,-1.8248,-1.8059,-1.805,-1.805,-1.8059,-1.8059,-1.8059,-1.8012,-1.7605,-1.7312,-1.7161,-1.7369,-1.719,-1.6859,0.0,0.0,0.0,0.0,0.0,0.0,0.0,0.0,0.0,0.0,0.0,0.0,0.0,0.0,0.0,0.0,0.0,0.0,0.0,0.0,0.0,0.0,0.0,0.0,-2.0584,-2.12,-2.214,-2.3325,-2.4218,-2.4744,-2.4935,-2.5491,-2.571,-2.5622,-2.4568,-2.328,-2.1641,-2.0014,-1.8012,-1.5697,-1.4468,-1.3851,-1.3771,0.0,0.0,0.0,0.0,0.0,0.0,0.0,0.0,0.0,0.0,0.0,0.0,0.0,0.0,0.0,0.0,0.0,0.0,0.0,0.0,0.0,0.0,0.0,0.0,0.0,0.0,0.0,0.0,0.0,0.0,0.0,0.0,-1.2884,-1.2696,-1.4343,-1.5739,-1.6177,-1.7046,-1.7592,-1.7367,-1.7554,-1.7751,-1.7901,-1.8201,-1.8337,-1.8772,-1.9034,-1.9128,-1.9044,-1.9269,-1.9297,-1.9297,-1.8938,-1.8834,-1.8976,-1.8768,-1.8645,-1.8579,-1.8428,-1.8324,-1.8258,-1.8116,-1.8135,-1.8267,-1.8267,-1.8267,-1.8248,-1.7983,-1.7842,-1.7794,-1.7851,-1.7709,-1.7464,0.0,0.0,0.0,0.0,0.0,0.0,0.0,0.0,0.0,0.0,0.0,0.0,0.0,0.0,0.0,0.0,0.0,0.0,0.0,0.0,0.0,0.0,0.0,-2.0315,-2.1541,-2.2274,-2.3193,-2.4203,-2.4905,-2.5388,-2.5681,-2.6179,-2.6427,-2.6427,-2.5682,-2.4856,-2.3825,-2.1467,-2.0059,-1.8958,-1.6539,-1.5053,-1.4215,-1.3803,-1.3586,-1.351,-1.3575,-1.368,-1.3834,-1.3705,0.0,0.0,0.0,0.0,0.0,0.0,0.0,0.0,0.0,0.0,0.0,0.0,0.0,0.0,0.0,0.0,0.0,0.0,0.0,0.0,0.0,0.0,0.0,0.0,-1.3638,-1.4849,-1.515,-1.6102,-1.7051,-1.7696,-1.8313,-1.8749,-1.8749,-1.8749,-1.8834,-1.9051,-1.9089,-1.924,-1.9543,-1.9581,-1.9581,-1.9562,-1.9562,-1.9562,-1.9562,-1.9146,-1.9032,-1.9231,-1.8938,-1.8843,-1.8928,-1.8711,-1.8664,0.0,-1.8437,-1.8428,-1.8607,-1.8522,-1.8484,0.0,0.0,0.0,0.0,0.0,-1.7823,-1.7823,0.0,0.0,0.0,0.0,0.0,0.0,0.0,0.0,0.0,0.0,0.0,0.0,0.0,0.0,0.0,0.0,0.0,0.0,0.0,0.0,0.0,-2.1095,-2.1248,-2.1705,-2.2393,-2.3665,-2.451,-2.5169,-2.552,-2.5988,-2.6559,-2.6925,-2.71,-2.7115,-2.7408,-2.7376,-2.7078,-2.4173,-2.2645,-2.2165,-1.908,-1.6972,-1.552,-1.4164,-1.3682,-1.3726,-1.2548,-1.2061,-1.2055,-1.1758,0.0,0.0,0.0,0.0,0.0,0.0,0.0,0.0,0.0,0.0,0.0,0.0,0.0,0.0,0.0,0.0,0.0,0.0,0.0,0.0,0.0,0.0,0.0,0.0,-1.5471,-1.6913,-1.7897,-1.7888,-1.8133,-1.9014,-1.9269,-1.941,-1.9439,-1.9439,-1.9514,-1.9694,-1.9514,-1.9562,0.0,0.0,0.0,0.0,0.0,-1.9892,-1.9921,-1.9505,-1.9401,-1.959,-1.9203,-1.9108,-1.9288,-1.907,-1.908,-1.924,-1.8843,-1.8777,-1.8928,-1.8749,-1.8664,-1.8626,-1.8456,-1.8163,-1.7804,-1.7605,-1.7747,0.0,0.0,0.0,0.0,0.0,0.0,0.0,0.0,0.0,0.0,0.0,0.0,0.0,0.0,0.0,0.0,0.0,0.0,0.0,0.0,0.0,-2.0726,-2.1834,-2.2467,-2.3185,-2.4112,-2.4701,-2.5183,-2.5827,-2.6413,-2.6778,-2.691,-2.7495,-2.7773,-2.7773,-2.7832,-2.7079,-2.5992,-2.5219,-2.3525,-2.0902,-2.0238,-1.8501,-1.6234,-1.5551,-1.4737,-1.4086,-1.3413,-1.3079,-1.3079,-1.2507,-1.241,-1.2369,-1.176,0.0,0.0,0.0,0.0,0.0,0.0,0.0,0.0,0.0,0.0,0.0,0.0,0.0,0.0,0.0,0.0,0.0,0.0,0.0,0.0,-1.5404,-1.6852,-1.8118,-1.8974,-1.9238,-1.9428,-1.9722,-1.9921,-2.011,-2.028,-2.0299,-2.0318,-2.0355,-2.0166,-2.0081,-2.0157,-1.9968,0.0,-1.9921,-1.9751,-1.9741,-1.9921,-1.9505,-1.9401,-1.9599,0.0,0.0,-1.9288,-1.907,-1.8995,-1.9023,-1.8777,-1.8702,-1.873,-1.8692,-1.8569,-1.8428,-1.856,-1.856,-1.8465,-1.8248,-1.8125,-1.8012,0.0,0.0,0.0,0.0,0.0,0.0,0.0,0.0,0.0,0.0,0.0,0.0,0.0,0.0,0.0,0.0,0.0,0.0,0.0,-2.1854,-2.1868,-2.3252,-2.3993,-2.4644,-2.5348,-2.5741,-2.6047,-2.6266,-2.6588,-2.6998,-2.7481,-2.7803,-2.8125,-2.8417,-2.8417,-2.7942,-2.7158,-2.6371,-2.4959,-2.3381,-2.2595,-2.0758,-1.8582,-1.7067,-1.5903,-1.5035,-1.4506,-1.4271,-1.3874,-1.3464,-1.3116,-1.2873,-1.2337,-1.1801,-1.1265,0.0,0.0,0.0,0.0,0.0,0.0,0.0,0.0,0.0,0.0,0.0,0.0,0.0,0.0,-1.3173,0.0,0.0,-1.6204,-1.6961,-1.81,-1.8978,-1.9488,-1.9924,-2.0233,-2.0233,-2.0223,-2.0308,-2.0526,-2.0544,-2.0544,-2.0544,-2.044,-2.0384,-2.0384,-2.0289,-2.0233,-2.0233,-2.0129,-2.0119,-2.0233,-1.9921,-1.9864,-2.0072,-1.9855,-1.976,-1.9751,-1.9543,-1.9448,-1.9429,-1.9117,-1.8985,-1.8976,-1.8758,-1.8607,-1.8522,-1.8636,-1.855,-1.8333,-1.8116,-1.8106,-1.8144,0.0,0.0,0.0,0.0,0.0,0.0,0.0,0.0,0.0,0.0,0.0,0.0,0.0,0.0,0.0,0.0,0.0,0.0,0.0,-2.3034,-2.3085,-2.4913,-2.5548,-2.5998,-2.642,-2.6598,-2.678,-2.6691,-2.6822,-2.7276,-2.8052,-2.811,-2.8403,-2.8886,-2.8886,-2.8886,-2.8886,-2.7462,-2.6662,-2.6188,-2.4907,-2.3182,-2.1217,-1.9229,-1.7433,-1.6161,-1.578,-1.5044,-1.4373,-1.4123,-1.349,-1.2994,-1.271,-1.2328,-1.1866,-1.1248,-1.0915,0.0,0.0,0.0,0.0,0.0,0.0,0.0,0.0,0.0,-1.2308,-1.3199,-1.4057,-1.4946,-1.5686,-1.683,-1.7864,-1.8238,-1.9231,-1.9883,-2.0025,-2.0327,-2.0544,-2.0544,-2.0422,-2.0422,-2.0639,-2.0667,-2.0667,-2.0667,-2.062,-2.0601,-2.0601,-2.0563,-2.0544,-2.0544,-2.0544,-2.0544,-2.0544,-2.0365,-2.0374,-2.0535,-2.0365,-2.028,-2.028,-2.011,-2.0015,-1.9959,-1.9533,-1.9354,-1.9325,-1.8957,-1.8777,-1.873,-1.873,-1.8503,-1.8154,-1.7974,-1.8097,-1.8276,0.0,0.0,0.0,0.0,0.0,0.0,0.0,0.0,0.0,0.0,0.0,0.0,0.0,0.0,0.0,0.0,0.0,0.0,-2.5126,-2.4061,-2.4277,-2.6342,-2.6886,-2.7183,-2.7443,-2.7395,-2.7464,-2.7364,-2.7934,-2.8271,-2.8388,-2.8666,-2.8827,-2.8886,-2.8886,-2.8886,-2.8886,-2.873,-2.7776,-2.6346,-2.603,-2.5053,-2.3389,-2.2788,-2.0344,-1.6852,-1.6491,-1.5325,-1.4009,-1.417,-1.3576,-1.2856,-1.2816,-1.2767,-1.2548,-1.1687,0.0,-1.0891,-1.0688,-1.0534,-1.0582,-1.12,-1.1273,-1.1565,0.0,0.0,-1.406,-1.4591,-1.5554,-1.6357,-1.6733,-1.7805,-1.867,-1.9278,-2.0176,-2.0648,-2.0497,-2.0516,-2.0544,-2.0544,-2.0677,-2.0856,-2.1083,-2.1102,-2.1102,-2.1102,-2.0913,-2.0809,-2.0809,-2.0639,-2.0544,-2.0544,-2.0544,-2.0544,-2.0544,-2.0516,-2.0516,-2.0544,-2.0516,-2.0507,-2.0507,-2.0478,-2.0365,-2.0166,-1.9741,-1.9562,-1.9543,-1.9325,-1.9117,-1.8947,-1.8947,-1.8806,-1.8607,-1.8579,-1.8475,-1.8314,0.0,0.0,0.0,0.0,0.0,0.0,0.0,0.0,0.0,0.0,0.0,0.0,0.0,0.0,0.0,0.0,0.0,0.0,-2.4754,-2.476,-2.5375,-2.6883,-2.7336,-2.7551,-2.7617,-2.7855,-2.786,-2.7763,-2.792,-2.8256,-2.8447,-2.8564,-2.8725,-2.8886,-2.8886,-2.8988,-2.9164,-2.8973,-2.8518,-2.803,-2.7847,-2.6711,-2.4931,-2.4483,-2.2103,-1.9022,-1.8675,-1.7529,0.0,0.0,-1.4253,-1.3552,-1.2814,-1.2385,-1.2225,-1.2325,-1.1799,0.0,-1.0899,-1.1029,0.0,0.0,-1.215,-1.2865,-1.4032,-1.477,-1.544,-1.6383,-1.7092,-1.7864,-1.8337,-1.9147,-1.9681,0.0,-2.0355,-2.0592,-2.0384,-2.0459,-2.0365,-1.9873,-2.0214,-2.0563,-2.0781,-2.0913,-2.0979,-2.0979,-2.1017,-2.1036,-2.1036,-2.0951,-2.0904,-2.0904,-2.0904,-2.0904,-2.0904,-2.0904,-2.0904,-2.0904,-2.0904,-2.0837,-2.0715,-2.0592,-2.0365,-2.0025,-1.9722,-1.9599,-1.9581,-1.9382,-1.925,-1.9165,-1.9165,-1.9032,-1.8825,-1.8579,-1.8513,-1.8475,0.0,0.0,0.0,0.0,0.0,0.0,0.0,0.0,0.0,0.0,0.0,0.0,0.0,0.0,0.0,0.0,0.0,0.0,0.0,-2.5058,-2.5877,-2.7328,-2.7573,-2.7794,-2.7834,-2.8218,-2.8243,-2.8043,-2.8177,-2.8198,-2.8432,-2.852,-2.8681,-2.8886,-2.8886,-2.9017,-2.9222,-2.89,-2.89,-2.909,-2.8769,-2.7606,-2.6101,-2.5404,-2.3417,-2.1059,-2.0095,-1.8627,0.0,0.0,-1.4785,-1.4135,-1.3265,-1.2933,-1.3003,-1.3577,-1.2896,-1.1957,-1.1705,0.0,0.0,-1.2482,-1.3352,-1.4424,-1.5388,-1.6068,-1.6748,-1.7928,-1.8486,-1.8996,-1.9628,-1.9977,0.0,-2.0299,-2.044,-2.0488,-2.0327,-2.0289,-2.0015,-1.9297,-1.9505,-1.9788,-2.0006,-2.0422,-2.0696,-2.0752,-2.0904,-2.1017,-2.1074,-2.1083,-2.1102,-2.1168,-2.1168,-2.1168,-2.1168,-2.1168,-2.1168,-2.1168,-2.1168,-2.1083,-2.0922,-2.0658,-2.0374,-2.0081,-1.9807,-1.9684,-1.9675,-1.9533,-1.9439,-1.9373,-1.9316,-1.9165,-1.8928,-1.8579,-1.8541,-1.8598,0.0,0.0,0.0,0.0,0.0,0.0,0.0,0.0,0.0,0.0,0.0,0.0,0.0,0.0,0.0,0.0,0.0,0.0,0.0,-2.4668,-2.5442,-2.7563,-2.7684,-2.7921,-2.8193,-2.8863,-2.8765,-2.8043,-2.8686,-2.8724,-2.8447,-2.8739,-2.8886,-2.8886,-2.8886,-2.89,-2.8886,-2.8578,-2.8461,-2.8432,-2.811,-2.7598,-2.6925,-2.5819,-2.4261,-2.2167,-1.9678,0.0,0.0,0.0,-1.4877,-1.4144,-1.4396,-1.5113,0.0,-1.571,-1.4845,-1.38,0.0,0.0,-1.3131,-1.4045,-1.4997,-1.5993,-1.696,-1.7819,-1.8393,-1.8794,-1.9395,-1.9892,-1.9911,-2.0081,-2.0289,-2.0497,-2.0535,-2.0535,-2.0535,-2.0006,-1.9467,-1.9032,-1.8645,-1.8494,0.0,-1.9647,-2.0327,-2.0535,-2.0554,-2.0648,-2.0837,-2.0847,-2.0951,-2.1159,-2.1168,-2.1168,-2.1168,-2.1168,-2.1168,-2.1168,-2.1168,-2.1168,-2.1149,-2.0733,-2.0535,-2.0497,-2.0091,-1.9911,-1.9911,-1.9902,-1.9779,-1.9571,-1.9373,-1.9165,-1.8947,-1.8739,-1.8673,-1.8645,0.0,0.0,0.0,0.0,0.0,0.0,0.0,0.0,0.0,0.0,0.0,0.0,0.0,0.0,0.0,0.0,0.0,0.0,0.0,-2.4939,-2.581,-2.6883,-2.7233,-2.7553,-2.7917,-2.8016,-2.8033,-2.7674,-2.7966,-2.7866,-2.7803,-2.7905,-2.8066,-2.8271,-2.8271,-2.8388,-2.8564,-2.8256,-2.8359,-2.8637,-2.7466,-2.6998,-2.6764,-2.4701,-2.2988,-2.1453,0.0,0.0,0.0,0.0,0.0,-1.4481,-1.3858,-1.3879,-1.4096,-1.4004,-1.4717,-1.5161,0.0,0.0,-1.4631,-1.5342,-1.6151,-1.7119,-1.8171,-1.8721,-1.9084,-1.9256,-1.9166,-1.9051,-1.891,-1.8938,-1.9099,-1.9448,-1.9732,-2.0015,-2.0289,-2.0034,-1.9448,-1.8475,-1.8598,0.0,0.0,0.0,0.0,-2.0091,-2.0384,-2.0629,-2.0828,-2.0979,-2.1093,-2.1168,-2.1168,-2.1168,-2.1168,-2.1168,-2.1168,-2.1168,-2.1168,-2.1093,-2.0941,-2.0667,-2.0459,-2.0318,-2.0044,-1.9921,-1.9921,-1.9921,-1.9873,-1.9807,-1.9732,-1.9581,-1.9382,-1.9306,-1.9108,-1.8825,0.0,0.0,0.0,0.0,0.0,0.0,0.0,0.0,0.0,0.0,0.0,0.0,0.0,0.0,0.0,0.0,0.0,0.0,0.0,0.0,-2.5452,-2.5968,-2.6443,-2.6867,-2.7245,-2.7333,-2.7409,-2.7366,-2.704,-2.6908,-2.6944,-2.6795,-2.6805,-2.7086,-2.7086,-2.7261,-2.7539,-2.71,-2.7086,-2.7232,-2.5842,-2.514,-2.4701,-2.2681,-2.1042,0.0,0.0,0.0,0.0,0.0,0.0,0.0,-1.4653,-1.4921,-1.5532,-1.5767,-1.6275,-1.6475,-1.5782,-1.5819,-1.6175,-1.6925,-1.7702,-1.8397,-1.9195,-1.9232,-1.9238,-1.9231,-1.8664,-1.8144,-1.7851,-1.7615,-1.77,-1.8409,-1.8626,-1.8985,-1.9779,-1.9647,-1.9203,-1.8465,-1.8598,0.0,0.0,0.0,0.0,-1.9656,-2.0148,-2.0516,-2.0724,-2.0932,-2.1093,-2.1168,-2.1168,-2.1168,-2.1168,-2.1168,-2.1168,-2.1168,-2.1168,-2.1093,-2.0951,-2.0667,-2.0469,-2.0318,-2.0044,-1.9921,-1.9921,-1.9921,-1.9921,-1.9911,-1.9836,-1.9675,-1.9477,-1.9401,-1.9155,-1.8843,0.0,0.0,0.0,0.0,0.0,0.0,0.0,0.0,0.0,0.0,0.0,0.0,0.0,0.0,0.0,0.0,0.0,0.0,0.0,0.0,0.0,-2.5083,-2.5632,-2.6044,-2.6292,-2.6608,-2.6902,-2.6924,-2.6234,-2.5912,-2.6088,-2.5291,-2.5145,-2.5496,-2.5496,-2.552,-2.5783,-2.5169,-2.473,-2.4364,-2.3354,-2.2242,-2.1072,-2.0047,0.0,0.0,0.0,0.0,0.0,0.0,0.0,0.0,0.0,-1.8028,-1.952,-2.0419,-1.9273,-1.8092,-1.9187,-1.8632,-1.7761,-1.8578,-1.9293,-1.9977,-2.0148,-1.9694,-1.9051,-1.8418,-1.7757,-1.7171,0.0,0.0,-1.6235,-1.7473,-1.7398,-1.769,-1.9136,-1.9004,-1.8815,0.0,0.0,0.0,0.0,0.0,0.0,-1.9297,0.0,-2.0318,-2.0544,-2.0752,-2.0951,-2.1159,-2.1168,-2.1168,-2.1168,-2.1168,-2.1168,-2.1168,-2.1168,-2.1168,-2.1159,-2.0743,-2.0554,-2.0516,-2.011,-1.993,-1.9921,-1.993,-1.993,-1.9902,-1.9703,-1.9505,-1.9306,-1.9099,-1.89,-1.8749,0.0,0.0,0.0,0.0,0.0,0.0,0.0,0.0,0.0,0.0,0.0,0.0,0.0,0.0,0.0,0.0,0.0,0.0,0.0,0.0,0.0,0.0,0.0,0.0,0.0,0.0,0.0,0.0,0.0,-2.5434,-2.5528,-2.5277,-2.4979,-2.4593,-2.4593,-2.4147,-2.3384,-2.3222,-2.298,-2.2681,0.0,-2.0925,-2.0662,0.0,0.0,0.0,0.0,0.0,0.0,0.0,0.0,0.0,0.0,-1.8877,-2.0062,-2.0656,-2.1443,-2.1837,-2.0568,-2.0804,-2.1114,-2.0047,-1.9887,-2.0072,-1.9817,-1.9032,-1.8191,-1.7549,-1.6434,-1.5489,0.0,0.0,0.0,-1.6859,-1.7738,0.0,-1.9826,-1.9892,0.0,0.0,0.0,-1.9184,-1.8919,-1.9325,0.0,0.0,-2.0044,-2.0374,-2.0743,-2.097,-2.1111,-2.1168,-2.1168,-2.1168,-2.1168,-2.1168,-2.1168,-2.1168,-2.1168,-2.1168,-2.1159,-2.0894,-2.0686,-2.0526,-2.0261,-2.0053,-1.993,-2.0081,-2.0053,-1.993,-2.0025,-1.994,-1.976,-1.9703,-1.9543,-1.9373,0.0,0.0,0.0,0.0,0.0,0.0,0.0,0.0,0.0,0.0,0.0,0.0,0.0,0.0,0.0,0.0,0.0,0.0,0.0,0.0,0.0,0.0,0.0,0.0,0.0,0.0,0.0,0.0,0.0,0.0,0.0,-2.3983,-2.3662,-2.385,-2.3243,-2.2815,-2.242,-2.1843,0.0,0.0,0.0,0.0,0.0,0.0,0.0,0.0,0.0,0.0,0.0,0.0,0.0,-1.8584,-1.9667,-2.0794,-2.1904,-2.2865,0.0,-2.3831,-2.2583,-2.3189,-2.3709,-2.1145,-2.0989,-2.0955,-1.9494,-1.8625,-1.7951,-1.6915,-1.6318,0.0,0.0,0.0,0.0,0.0,0.0,0.0,-1.9486,-1.9911,-2.01,0.0,-2.0138,0.0,-1.9817,-2.0119,-2.0365,0.0,-2.0488,-2.0592,-2.0828,-2.1055,-2.1168,-2.1168,-2.1168,-2.1168,-2.1168,-2.1168,-2.1168,-2.1168,-2.1168,-2.1168,-2.1159,-2.0941,-2.0781,-2.0658,0.0,-2.0299,-2.0204,-2.0318,-2.0242,-2.0062,-2.0176,-2.01,-1.9911,-1.9817,-1.9703,-1.9599,0.0,0.0,0.0,0.0,0.0,0.0,0.0,0.0,0.0,0.0,0.0,0.0,0.0,0.0,0.0,0.0,0.0,0.0,0.0,0.0,0.0,0.0,0.0,0.0,0.0,0.0,0.0,0.0,0.0,0.0,0.0,0.0,0.0,0.0,0.0,0.0,0.0,0.0,0.0,0.0,0.0,0.0,0.0,0.0,0.0,0.0,0.0,0.0,0.0,0.0,-1.9477,-2.0296,-2.192,-2.3149,-2.4305,-2.5915,-2.6031,-2.5524,-2.4948,-2.586,-2.5973,-2.2413,-2.207,-2.2118,-1.9712,-1.8714,-1.7949,-1.6647,0.0,-1.6518,-1.5142,0.0,-1.5001,-1.5468,0.0,-1.7171,-1.89,-1.9618,-2.0195,-2.0847,-2.0875,-2.0875,-2.096,-2.0941,-2.1017,-2.1234,-2.1045,-2.0922,-2.0922,-2.1102,-2.1196,-2.1168,-2.1168,-2.1168,-2.1168,-2.1168,-2.1168,-2.1168,-2.1168,-2.1168,-2.1159,-2.097,-2.0866,-2.0828,0.0,0.0,-2.0544,-2.0573,-2.0459,-2.0261,-2.0289,-2.0176,-1.9977,-1.976,-1.9675,-1.9675,0.0,0.0,0.0,0.0,0.0,0.0,0.0,0.0,0.0,0.0,-2.1942,-2.1797,0.0,0.0,0.0,0.0,0.0,0.0,0.0,0.0,0.0,0.0,0.0,0.0,0.0,0.0,0.0,0.0,0.0,0.0,0.0,0.0,0.0,0.0,0.0,0.0,0.0,0.0,0.0,0.0,0.0,0.0,0.0,0.0,0.0,0.0,0.0,0.0,0.0,0.0,-2.0823,-2.1642,-2.3252,-2.4788,-2.631,-2.792,-2.8919,-2.9243,-2.839,-2.864,-2.8756,-2.608,-2.3911,-2.2245,-2.1703,-1.9217,0.0,0.0,0.0,-1.5935,-1.5411,-1.5177,0.0,-1.6964,0.0,0.0,0.0,0.0,-2.0459,0.0,0.0,0.0,0.0,0.0,0.0,0.0,0.0,0.0,-2.1357,-2.1395,-2.1338,-2.1178,-2.1168,-2.1168,-2.1168,-2.1168,-2.1168,-2.1168,-2.1168,-2.1168,-2.1168,-2.113,-2.1017,-2.0837,0.0,0.0,-2.0554,-2.0724,-2.0667,-2.0507,-2.0667,-2.0611,-2.0412,-2.0195,-2.011,-2.0091,0.0,0.0,0.0,0.0,0.0,0.0,0.0,-2.1645,-2.2158,-2.3119,-2.3398,-2.3324,-2.2621,-2.2501,-2.2397,0.0,0.0,0.0,0.0,0.0,0.0,0.0,0.0,0.0,0.0,0.0,0.0,0.0,0.0,0.0,0.0,0.0,0.0,0.0,0.0,0.0,0.0,0.0,0.0,0.0,0.0,0.0,0.0,0.0,0.0,0.0,0.0,0.0,0.0,0.0,-2.034,-2.1876,-2.432,-2.6091,-2.751,-2.8769,-2.9837,-3.0426,-2.9295,-3.0123,-3.0657,-2.7169,-2.5047,-2.3526,-2.175,0.0,0.0,0.0,-1.6976,-1.6998,-1.6407,0.0,0.0,0.0,0.0,0.0,0.0,0.0,0.0,0.0,0.0,0.0,0.0,0.0,0.0,0.0,0.0,0.0,0.0,-2.1367,-2.1272,-2.1168,-2.1168,-2.1215,-2.1329,-2.1225,-2.1225,-2.1329,-2.1215,-2.1168,-2.1168,-2.1168,-2.1111,-2.1017,0.0,0.0,-2.0875,-2.097,-2.0885,-2.0705,-2.08,-2.0781,-2.0658,-2.0337,-2.0289,-2.0346,0.0,0.0,0.0,0.0,0.0,0.0,0.0,-2.3141,-2.347,-2.4138,-2.478,-2.4789,-2.3576,-2.306,-2.2563,0.0,0.0,0.0,0.0,0.0,0.0,0.0,0.0,0.0,0.0,0.0,0.0,0.0,0.0,0.0,0.0,0.0,0.0,0.0,0.0,0.0,0.0,0.0,0.0,0.0,0.0,0.0,0.0,0.0,0.0,0.0,0.0,0.0,0.0,0.0,-1.9418,-2.1203,-2.4159,-2.6266,-2.7832,-2.8798,-2.991,-3.0614,-2.968,-3.1189,-3.1854,-2.7921,-2.6242,-2.4714,-2.1723,-1.9598,0.0,0.0,-1.7825,-1.8081,-1.7516,0.0,0.0,0.0,0.0,0.0,0.0,0.0,0.0,0.0,0.0,0.0,0.0,0.0,0.0,0.0,0.0,0.0,0.0,-2.1319,-2.1215,-2.1168,-2.1253,-2.1338,-2.1404,-2.1291,-2.1291,-2.1404,-2.1244,-2.1168,-2.1168,-2.1714,-2.1898,-2.1898,0.0,0.0,0.0,-2.1898,-2.1433,-2.0913,-2.0913,-2.0885,-2.08,-2.0422,-2.0543,-2.0947,0.0,0.0,0.0,0.0,0.0,0.0,0.0,-2.3479,-2.4133,-2.4947,-2.5187,-2.5027,-2.4449,-2.4012,-2.3391,0.0,0.0,0.0,0.0,0.0,0.0,0.0,0.0,0.0,0.0,0.0,0.0,0.0,0.0,0.0,0.0,0.0,0.0,0.0,0.0,0.0,0.0,0.0,0.0,0.0,0.0,0.0,0.0,0.0,0.0,0.0,0.0,0.0,0.0,0.0,0.0,-1.9374,-2.1437,-2.4188,-2.6822,-2.7803,0.0,0.0,-3.1437,-3.2092,-3.2471,-3.0706,-2.7885,-2.5048,-2.3634,0.0,0.0,-1.7824,-1.8018,-1.8306,-1.8236,-1.7618,-1.7556,0.0,0.0,-1.8143,0.0,0.0,0.0,0.0,0.0,0.0,0.0,0.0,0.0,0.0,0.0,0.0,0.0,0.0,-2.1357,-2.1178,-2.1537,-2.1565,-2.1196,-2.1357,-2.1357,-2.1196,-2.1178,-2.1168,-2.1168,-2.2974,-2.3881,-2.3881,0.0,0.0,0.0,-2.3881,-2.278,-2.114,-2.114,-2.1017,-2.0809,-2.0592,-2.1452,-2.2855,0.0,0.0,0.0,0.0,0.0,0.0,-2.4507,-2.4719,-2.5051,-2.5787,-2.6403,-2.6201,-2.4636,-2.4385,-2.3681,-2.2211,0.0,0.0,0.0,0.0,0.0,0.0,0.0,0.0,0.0,0.0,0.0,0.0,0.0,0.0,0.0,0.0,0.0,0.0,0.0,0.0,0.0,0.0,0.0,0.0,0.0,0.0,0.0,0.0,0.0,0.0,0.0,0.0,0.0,0.0,0.0,0.0,-1.8891,-2.075,0.0,0.0,-2.7861,-2.9661,-3.0876,-3.1973,-3.2412,-3.0905,-2.8216,-2.557,-2.397,0.0,0.0,-1.8178,-1.8057,-1.8072,-1.8262,-1.801,-1.8091,-1.8791,0.0,0.0,0.0,0.0,0.0,0.0,0.0,0.0,0.0,0.0,0.0,0.0,0.0,0.0,0.0,0.0,-2.2663,-2.1178,-2.1329,-2.1946,-2.319,-2.3138,-2.3683,-2.4822,-2.469,-2.4613,-2.4796,-2.5514,-2.515,0.0,0.0,0.0,0.0,-2.5332,-2.5343,-2.4602,-2.4459,-2.4426,-2.4415,-2.4029,-2.444,-2.516,0.0,0.0,0.0,0.0,0.0,-2.4297,-2.566,-2.5611,-2.5582,-2.5968,-2.6546,-2.6312,-2.4636,-2.4178,-2.3474,-2.2315,-2.1963,0.0,0.0,0.0,0.0,0.0,0.0,0.0,0.0,0.0,-2.2128,-2.1797,0.0,0.0,0.0,0.0,0.0,0.0,0.0,0.0,0.0,0.0,0.0,0.0,0.0,0.0,0.0,0.0,0.0,0.0,0.0,0.0,0.0,0.0,0.0,0.0,0.0,0.0,0.0,0.0,-2.5974,-2.8052,-2.9559,-3.0993,-3.1695,-3.0159,-2.8052,-2.5798,0.0,0.0,0.0,-1.8262,-1.7896,-1.7765,-1.8101,-1.8233,-1.8408,-1.873,-1.8207,-1.8251,0.0,0.0,0.0,0.0,0.0,0.0,0.0,0.0,0.0,0.0,0.0,0.0,0.0,0.0,-2.5403,-2.3097,-2.3221,-2.3851,-2.5347,-2.5235,-2.5926,-2.7244,-2.7063,-2.6966,-2.6966,-2.7509,-2.7148,0.0,0.0,0.0,0.0,-2.7328,-2.7509,-2.6954,-2.6761,-2.6749,-2.6798,-2.6411,-2.6704,-2.7309,0.0,0.0,0.0,0.0,0.0,0.0,-2.5877,-2.5855,-2.5597,-2.5054,-2.5201,-2.507,-2.4573,-2.3329,-2.2687,-2.3143,-2.2335,0.0,0.0,0.0,0.0,0.0,0.0,0.0,0.0,0.0,-2.1818,-2.1797,-2.2273,-2.2501,0.0,0.0,0.0,0.0,0.0,0.0,0.0,0.0,0.0,0.0,0.0,0.0,0.0,0.0,0.0,0.0,0.0,0.0,0.0,0.0,0.0,0.0,0.0,0.0,0.0,0.0,-2.3779,-2.6325,-2.7627,-2.9149,-3.0071,-2.8783,-2.7232,-2.5344,0.0,0.0,0.0,-1.8028,-1.756,-1.7428,-1.7765,-1.8086,-1.8408,-1.873,-1.9594,-2.009,-2.006,0.0,0.0,0.0,0.0,0.0,0.0,0.0,0.0,0.0,0.0,0.0,0.0,0.0,-2.9961,-2.7377,-2.7872,-2.7896,-2.7365,-2.7618,-2.7486,-2.6979,-2.6966,-2.6966,-2.7148,-2.895,0.0,0.0,0.0,0.0,0.0,-2.9847,-2.8771,-2.6966,-2.6966,-2.6798,-2.6556,-2.6544,-2.7624,-2.9032,0.0,0.0,0.0,0.0,0.0,0.0,0.0,-2.5296,-2.4917,-2.4876,-2.4714,-2.4363,-2.368,-2.3225,-2.2894,-2.2729,-2.2149,0.0,0.0,0.0,0.0,0.0,0.0,0.0,0.0,0.0,-2.1963,-2.2273,-2.2749,-2.3122,-2.3432,-2.3267,-2.335,0.0,0.0,0.0,0.0,0.0,0.0,0.0,0.0,0.0,0.0,0.0,0.0,0.0,0.0,0.0,0.0,0.0,0.0,0.0,0.0,0.0,0.0,-1.9008,0.0,0.0,-2.5286,-2.6661,-2.7408,-2.612,-2.4905,-2.3588,-2.1906,0.0,0.0,-1.8262,-1.7882,-1.7691,-1.7794,-1.8262,-1.8818,-1.936,-2.0077,-2.067,0.0,0.0,0.0,0.0,0.0,0.0,0.0,0.0,0.0,0.0,0.0,0.0,0.0,0.0,0.0,-2.7549,-2.7522,-2.8272,-2.9378,-2.9456,-3.0252,-3.1582,-3.136,-3.1263,-3.125,0.0,0.0,0.0,0.0,0.0,0.0,-3.1301,-3.1493,-3.0931,-3.0724,-3.071,-3.0779,-3.0571,-3.0923,-3.1578,0.0,0.0,0.0,0.0,0.0,0.0,0.0,-2.4587,-2.3973,-2.4078,-2.3678,-2.3303,-2.3223,-2.2873,-2.2687,-2.2749,-2.217,0.0,0.0,0.0,0.0,0.0,0.0,0.0,-2.1797,-2.1797,-2.2128,-2.2749,-2.3225,-2.3681,-2.4115,-2.4012,-2.3826,-2.3598,-2.2961,0.0,0.0,0.0,0.0,0.0,0.0,0.0,-1.7,0.0,0.0,0.0,0.0,0.0,0.0,0.0,0.0,0.0,0.0,0.0,0.0,0.0,-1.9477,0.0,0.0,-2.4335,-2.5022,-2.4218,-2.3296,0.0,0.0,0.0,0.0,-1.8335,-1.8043,-1.7808,-1.7808,-1.835,-1.8877,-1.9169,-1.9959,-2.0808,0.0,0.0,0.0,0.0,0.0,0.0,0.0,0.0,0.0,0.0,0.0,0.0,0.0,0.0,0.0,-2.9755,-2.956,-3.0172,-3.1568,-3.1457,-3.2112,-3.3729,-3.3276,-3.3129,-3.3232,0.0,0.0,0.0,0.0,0.0,0.0,-3.2218,-3.2778,-3.2749,-3.2544,-3.2588,-3.2749,-3.2544,-3.2602,-3.2778,0.0,0.0,0.0,0.0,0.0,0.0,0.0,-2.4082,-2.3075,-2.3075,-2.2327,-2.2128,-2.2998,-2.2315,-2.2149,-2.3018,0.0,0.0,0.0,0.0,0.0,0.0,0.0,0.0,-2.1797,-2.1838,-2.2315,-2.3246,-2.3743,-2.4219,-2.4695,-2.513,-2.4612,-2.335,-2.3453,-2.2838,0.0,0.0,0.0,0.0,0.0,0.0,0.0,0.0,0.0,0.0,0.0,0.0,0.0,0.0,0.0,0.0,0.0,0.0,0.0,0.0,0.0,0.0,0.0,-2.2096,0.0,0.0,0.0,0.0,0.0,0.0,0.0,0.0,0.0,-1.7823,-1.7838,-1.8364,-1.8716,-1.8511,-1.952,-2.0676,0.0,0.0,0.0,0.0,0.0,0.0,0.0,0.0,0.0,0.0,0.0,0.0,0.0,0.0,0.0,0.0,-3.3246,-3.3393,-3.37,-3.3393,-3.3407,-3.3729,-3.31,-3.2954,-3.3232,0.0,0.0,0.0,0.0,0.0,0.0,-3.2778,-3.2778,-3.2778,-3.2778,-3.2778,-3.2778,-3.2778,-3.2778,-3.2778,0.0,0.0,0.0,0.0,0.0,0.0,0.0,0.0,0.0,0.0,-2.2681,-2.188,-2.2108,-2.1942,-2.1901,0.0,0.0,0.0,0.0,0.0,0.0,0.0,0.0,0.0,-2.1797,-2.2149,-2.2791,-2.3722,-2.4529,-2.5316,-2.6103,-2.6206,-2.564,-2.4477,-2.3608,-2.2411,0.0,0.0,0.0,0.0,0.0,0.0,0.0,0.0,0.0,0.0,-1.5906,-1.6213,0.0,0.0,0.0,0.0,0.0,0.0,0.0,0.0,-1.7501,-1.7735,-1.8511,0.0,-1.974,-1.9491,-1.9257,-1.9038,0.0,0.0,0.0,0.0,0.0,0.0,0.0,-1.8511,-1.9081,-2.0003,-2.0823,-2.1686,0.0,0.0,0.0,0.0,0.0,0.0,0.0,0.0,0.0,0.0,0.0,0.0,0.0,0.0,0.0,0.0,-3.3246,-3.3276,-3.3363,-3.3276,-3.3407,-3.3729,-3.3319,-3.3173,0.0,0.0,0.0,0.0,0.0,0.0,0.0,-3.2778,-3.2778,-3.2778,-3.2778,-3.2778,-3.2778,-3.2778,-3.2778,-3.2778,0.0,0.0,0.0,0.0,0.0,0.0,0.0,0.0,0.0,0.0,0.0,0.0,0.0,0.0,0.0,0.0,0.0,0.0,0.0,0.0,0.0,0.0,0.0,-2.1797,-2.1797,-2.2252,-2.306,-2.4178,-2.4881,-2.5792,-2.6889,-2.6889,-2.6289,-2.4995,-2.3324,-2.2048,0.0,0.0,0.0,0.0,0.0,0.0,0.0,0.0,0.0,0.0,-1.595,-1.6228,0.0,-1.6916,-1.7179,-1.7326,0.0,0.0,0.0,0.0,-1.7326,-1.7369,-1.7545,-1.8174,-1.8774,-1.876,-1.8628,-1.8569,-1.8716,0.0,0.0,0.0,0.0,0.0,0.0,0.0,0.0,0.0,-2.0955,0.0,0.0,0.0,0.0,0.0,0.0,0.0,0.0,0.0,0.0,0.0,0.0,0.0,0.0,0.0,0.0,0.0,0.0,-3.3246,-3.3246,-3.31,-3.3261,-3.3729,-3.3246,-3.31,0.0,0.0,0.0,0.0,0.0,0.0,-3.2778,-3.2778,-3.2778,-3.2778,-3.2778,-3.2778,-3.2778,-3.2778,-3.2778,-3.2778,0.0,0.0,0.0,0.0,0.0,0.0,0.0,0.0,0.0,0.0,0.0,0.0,0.0,0.0,0.0,0.0,0.0,0.0,0.0,0.0,0.0,0.0,-2.188,-2.1901,-2.2128,-2.2439,-2.3267,-2.4654,-2.5254,-2.6206,-2.7469,-2.7614,-2.6868,-2.518,-2.3099,-2.2046,0.0,0.0,0.0,0.0,-2.0268,0.0,0.0,0.0,0.0,0.0,0.0,0.0,0.0,-1.6989,-1.7252,-1.7326,-1.7326,0.0,0.0,0.0,0.0,0.0,-1.7516,-1.8233,-1.895,-1.9038,-1.8921,-1.8847,-1.9081,0.0,0.0,0.0,0.0,0.0,0.0,0.0,0.0,0.0,0.0,0.0,0.0,0.0,0.0,0.0,0.0,0.0,0.0,0.0,0.0,0.0,0.0,0.0,0.0,0.0,0.0,0.0,0.0,0.0,-3.3173,-3.291,-3.3041,-3.3583,-3.3027,-3.291,-3.3158,0.0,0.0,0.0,0.0,0.0,-3.2778,-3.2778,-3.2778,-3.2778,-3.2778,-3.2778,-3.2778,-3.2778,-3.2778,-3.2778,0.0,0.0,0.0,0.0,0.0,0.0,0.0,0.0,0.0,0.0,0.0,0.0,0.0,0.0,0.0,0.0,0.0,0.0,0.0,0.0,0.0,-2.2956,-2.2232,-2.2356,-2.3536,-2.3246,-2.3764,-2.513,-2.6351,-2.7448,-2.8421,-2.9208,-2.8222,-2.5756,-2.4187,-2.2918,-2.1792,-2.1024,-2.0789,-2.0807,-1.8902,0.0,0.0,0.0,0.0,0.0,0.0,0.0,0.0,-1.6389,-1.6872,-1.7326,-1.7326,0.0,0.0,0.0,0.0,0.0,-1.8335,-1.9081,-1.936,-1.8306,-1.8423,-1.873,-1.8511,0.0,0.0,0.0,0.0,0.0,0.0,0.0,0.0,0.0,0.0,0.0,0.0,0.0,0.0,0.0,0.0,0.0,0.0,0.0,0.0,0.0,0.0,0.0,0.0,0.0,0.0,0.0,0.0,0.0,0.0,-3.2793,-3.2822,-3.2924,-3.2822,-3.2793,-3.2837,-3.2793,-3.2778,0.0,0.0,0.0,-3.2778,-3.2778,-3.2778,-3.2778,-3.2778,-3.2778,-3.2778,-3.2778,-3.2778,-3.2778,0.0,0.0,0.0,0.0,0.0,0.0,0.0,0.0,0.0,0.0,0.0,0.0,0.0,0.0,0.0,0.0,0.0,0.0,0.0,0.0,-2.3453,-2.3908,-2.3287,-2.3225,-2.3867,-2.4157,-2.4964,-2.633,-2.7448,-2.8462,-2.9352,-2.892,-2.7656,-2.5585,-2.4286,-2.3193,-2.2454,-2.1797,-2.1502,-2.1295,0.0,0.0,0.0,0.0,0.0,0.0,0.0,0.0,0.0,0.0,-1.6945,-1.7326,-1.7326,0.0,0.0,0.0,0.0,0.0,-1.8086,-1.8745,-1.9184,-1.8935,-1.9228,-1.9535,-1.9389,0.0,0.0,0.0,0.0,0.0,0.0,0.0,0.0,0.0,0.0,0.0,0.0,0.0,0.0,0.0,0.0,0.0,0.0,0.0,0.0,0.0,0.0,0.0,0.0,0.0,0.0,0.0,0.0,0.0,0.0,-3.2778,-3.2778,-3.2778,-3.2778,-3.2778,-3.2778,-3.2778,-3.2778,0.0,0.0,-3.2778,-3.2778,-3.2778,-3.2778,-3.2778,-3.2778,-3.2778,-3.2778,-3.2778,-3.2778,-3.2778,0.0,0.0,0.0,0.0,0.0,0.0,0.0,0.0,0.0,0.0,0.0,0.0,0.0,0.0,0.0,0.0,0.0,0.0,0.0,0.0,-2.4074,-2.4529,-2.4219,-2.424,-2.4654,-2.513,-2.6103,-2.7572,-2.8607,-2.9518,-3.0178,-2.8696,-2.7077,-2.5417,-2.4216,-2.3516,-2.3038,-2.2534,-2.1945,-2.1212,0.0,0.0,0.0,0.0,0.0,0.0,0.0,0.0,0.0,0.0,0.0,0.0,0.0,0.0,0.0,-1.7633,-1.7501,-1.756,-1.8116,-1.8584,-1.9067,-1.9711,-2.0003,-2.0223,-2.0603,0.0,0.0,0.0,0.0,0.0,0.0,0.0,0.0,0.0,0.0,0.0,0.0,0.0,0.0,0.0,0.0,0.0,0.0,0.0,0.0,0.0,0.0,0.0,0.0,0.0,0.0,0.0,0.0,0.0,0.0,-3.2778,-3.2778,-3.2778,-3.2778,-3.2778,-3.2778,-3.2778,-3.2778,-3.2778,-3.2778,-3.2778,-3.2778,-3.2778,-3.2778,-3.2778,-3.2778,-3.2778,-3.2778,-3.2778,-3.2778,-3.2778,0.0,0.0,0.0,0.0,0.0,0.0,0.0,0.0,0.0,0.0,0.0,0.0,0.0,0.0,0.0,0.0,0.0,0.0,0.0,0.0,-2.4074,-2.4529,-2.4509,-2.5275,-2.6972,-2.6227,-2.6703,-2.8524,-2.987,-3.0673,-3.0908,-2.9647,-2.7783,-2.5436,-2.4643,-2.3887,-2.3057,-2.212,-2.1212,-2.024,-1.9222,0.0,0.0,0.0,0.0,0.0,0.0,0.0,0.0,0.0,0.0,0.0,0.0,0.0,-1.8262,-1.8233,-1.8013,-1.8057,-1.9286,-1.9433,-1.9389,-2.0047,-2.0003,0.0,-2.1701,-2.173,0.0,-2.312,0.0,0.0,0.0,0.0,0.0,0.0,0.0,0.0,0.0,0.0,0.0,0.0,0.0,0.0,0.0,0.0,0.0,0.0,0.0,0.0,0.0,0.0,0.0,0.0,0.0,0.0,0.0,0.0,-3.2778,-3.2778,-3.2778,-3.2778,-3.2778,-3.2778,-3.2778,-3.2778,-3.2778,-3.2778,-3.2778,-3.2778,-3.2778,-3.2778,-3.2778,-3.2778,-3.2778,-3.2778,-3.2778,-3.2778,0.0,0.0,0.0,0.0,0.0,0.0,0.0,0.0,0.0,0.0,0.0,0.0,0.0,0.0,0.0,0.0,0.0,0.0,0.0,-2.4281,-2.4488,-2.4943,-2.4964,-2.5689,-2.722,-2.7469,-2.8338,-2.9911,-3.0719,-3.0833,-3.0255,-2.8692,-2.6983,-2.5228,-2.4428,-2.3848,-2.3535,-2.289,-2.2555,-2.2314,-2.0417,-1.9216,0.0,0.0,0.0,0.0,0.0,0.0,0.0,0.0,-1.7208,-1.7618,0.0,0.0,-1.8525,-1.8116,-1.8057,-1.8277,-1.8964,-1.936,-1.9784,-2.0633,-2.0911,0.0,0.0,-2.2667,-2.3296,-2.4788,-2.5257,0.0,0.0,0.0,0.0,0.0,0.0,0.0,0.0,0.0,0.0,0.0,0.0,0.0,0.0,0.0,0.0,0.0,0.0,0.0,0.0,0.0,0.0,0.0,0.0,0.0,0.0,0.0,-3.2778,-3.2778,-3.2778,-3.2778,-3.2778,-3.2778,-3.2778,-3.2778,-3.2778,-3.2778,-3.2778,-3.2778,-3.2778,-3.2778,-3.2778,-3.2778,-3.2778,-3.2778,-3.2778,-3.2778,0.0,0.0,0.0,0.0,0.0,0.0,0.0,0.0,0.0,0.0,0.0,0.0,0.0,0.0,0.0,0.0,0.0,0.0,-2.455,-2.455,-2.4588,-2.5006,-2.515,-2.5792,-2.7013,-2.7924,-2.9145,-3.0677,-3.1045,-3.0663,-2.9373,-2.7864,-2.6466,-2.5234,-2.4375,-2.4062,-2.416,-2.3217,-2.3051,-2.31,-2.1031,-2.0018,0.0,0.0,0.0,0.0,0.0,0.0,0.0,0.0,0.0,0.0,0.0,0.0,0.0,0.0,-1.8364,-1.8511,-1.873,-1.9038,-1.9535,0.0,0.0,0.0,-2.3515,-2.4188,-2.5008,-2.672,0.0,0.0,0.0,0.0,0.0,0.0,0.0,0.0,0.0,0.0,0.0,0.0,0.0,0.0,0.0,0.0,0.0,0.0,0.0,0.0,0.0,0.0,0.0,0.0,0.0,0.0,0.0,0.0,-3.2778,-3.2778,-3.2778,-3.2778,-3.2778,-3.2778,-3.2778,-3.2778,-3.2778,-3.2778,-3.2778,-3.2778,-3.2778,-3.2778,-3.2778,-3.2778,-3.2778,-3.2778,-3.2778,-3.2778,0.0,0.0,0.0,0.0,0.0,0.0,0.0,0.0,0.0,0.0,0.0,0.0,0.0,0.0,0.0,0.0,0.0,0.0,-2.455,-2.455,-2.455,-2.455,-2.4985,-2.5647,-2.6537,-2.7448,-2.8835,-3.0677,-3.0894,-3.0099,-2.8448,-2.7362,-2.6428,-2.5684,-2.4805,-2.4668,-2.5,-2.3093,-2.2282,-2.2172,-2.0759,-2.0018,-1.9727,0.0,0.0,0.0,0.0,0.0,0.0,0.0,-1.7326,0.0,0.0,0.0,0.0,0.0,-1.9038,-1.8789,-1.8789,-1.8555,0.0,0.0,0.0,0.0,0.0,-2.6515,-2.7071,0.0,0.0,0.0,0.0,0.0,0.0,0.0,0.0,0.0,0.0,0.0,0.0,0.0,0.0,0.0,0.0,0.0,0.0,0.0,0.0,0.0,0.0,0.0,0.0,0.0,0.0,0.0,0.0,0.0,-3.2778,-3.2778,-3.2778,-3.2778,-3.2778,-3.2778,-3.2778,-3.2778,-3.2778,-3.2778,-3.2778,-3.2778,-3.2778,-3.2778,-3.2778,-3.2778,-3.2778,-3.2778,-3.2778,-3.2778,0.0,0.0,0.0,0.0,0.0,0.0,0.0,0.0,0.0,0.0,0.0,0.0,0.0,0.0,0.0,0.0,0.0,0.0,-2.455,-2.455,-2.455,-2.455,-2.4674,-2.5171,-2.6061,-2.7303,-2.8504,-2.9704,-2.9641,-2.8859,-2.7542,-2.6665,-2.5954,-2.5254,-2.5,-2.4941,-2.5,-2.3866,-2.3756,-2.403,-2.1543,-2.0933,-2.1301,0.0,0.0,0.0,0.0,0.0,0.0,0.0,0.0,0.0,0.0,0.0,0.0,-1.8877,-1.9023,-1.9125,-1.9125,0.0,0.0,0.0,0.0,0.0,0.0,0.0,0.0,0.0,0.0,0.0,0.0,0.0,0.0,0.0,0.0,0.0,0.0,0.0,0.0,0.0,0.0,0.0,0.0,0.0,0.0,0.0,0.0,0.0,0.0,0.0,0.0,0.0,0.0,0.0,0.0,0.0,0.0,-3.2778,-3.2778,-3.2778,-3.2778,-3.2778,-3.2778,-3.2778,-3.2778,-3.2778,-3.2778,-3.2778,-3.2778,-3.2778,-3.2778,-3.2778,-3.2778,-3.2778,-3.2778,-3.2778,0.0,0.0,0.0,0.0,0.0,0.0,0.0,0.0,0.0,0.0,-2.5249,-2.497,0.0,0.0,0.0,0.0,0.0,0.0,0.0,-2.455,-2.4612,-2.4799,-2.4633,-2.4964,-2.5854,-2.7125,-2.793,-2.8037,-2.8186,-2.7783,-2.6899,-2.6586,-2.6291,-2.5859,-2.6191,-2.6152,-2.5801,-2.4717,-2.4525,-2.4905,-2.2514,-2.1964,-2.2224,0.0,0.0,0.0,0.0,0.0,0.0,0.0,0.0,0.0,0.0,0.0,0.0,-1.8789,-1.8921,-1.9052,-1.8921,0.0,0.0,0.0,0.0,0.0,0.0,0.0,0.0,0.0,0.0,0.0,0.0,0.0,0.0,0.0,0.0,0.0,0.0,0.0,0.0,0.0,0.0,0.0,0.0,0.0,0.0,0.0,0.0,0.0,0.0,0.0,0.0,0.0,0.0,0.0,0.0,0.0,0.0,-3.2573,-3.2573,-3.2646,-3.2778,-3.2778,-3.2705,-3.2573,-3.2573,-3.2573,-3.2573,-3.2573,-3.2646,-3.2763,-3.2632,-3.2661,-3.2778,-3.2778,-3.2778,-3.2778,0.0,0.0,0.0,0.0,0.0,0.0,0.0,0.0,0.0,0.0,-2.4492,-2.4212,0.0,0.0,0.0,0.0,0.0,0.0,0.0,0.0,-2.4736,-2.515,-2.484,-2.5068,-2.5916,-2.6968,-2.7043,-2.6288,-2.6855,-2.6919,-2.6456,-2.6783,-2.6992,-2.6992,-2.7812,-2.7715,-2.6812,-2.5522,-2.4998,-2.5003,-2.3598,-2.2942,-2.2717,-2.1404,0.0,0.0,0.0,0.0,0.0,0.0,0.0,0.0,0.0,0.0,0.0,-1.8833,-1.8818,-1.8745,0.0,0.0,0.0,0.0,0.0,0.0,0.0,0.0,0.0,0.0,0.0,0.0,0.0,0.0,0.0,0.0,0.0,0.0,0.0,0.0,0.0,0.0,0.0,0.0,0.0,0.0,0.0,0.0,0.0,0.0,0.0,0.0,0.0,0.0,0.0,0.0,0.0,0.0,0.0,0.0,0.0,-3.2398,-3.2676,-3.2719,-3.2544,-3.2237,-3.2237,-3.2237,-3.2237,-3.2237,-3.2412,-3.2661,-3.2383,-3.2471,-3.2734,-3.2763,-3.2778,-3.2778,0.0,0.0,0.0,0.0,0.0,0.0,0.0,0.0,0.0,0.0,0.0,0.0,0.0,0.0,0.0,0.0,0.0,0.0,0.0,0.0,-2.4592,-2.4695,-2.5275,-2.5854,-2.6413,-2.6443,-2.6594,-2.6758,-2.6801,-2.6446,-2.571,-2.6545,-2.6836,-2.6543,-2.7051,-2.7012,-2.6465,-2.5489,-2.5237,-2.545,-2.4029,-2.3363,-2.3172,-2.1226,-2.0167,0.0,0.0,0.0,0.0,0.0,0.0,0.0,0.0,-1.8789,-1.8833,-1.9096,-1.8994,0.0,0.0,0.0,0.0,0.0,0.0,0.0,0.0,0.0,0.0,0.0,0.0,0.0,0.0,0.0,0.0,0.0,0.0,0.0,0.0,0.0,0.0,0.0,0.0,0.0,0.0,0.0,0.0,0.0,0.0,0.0,0.0,0.0,0.0,0.0,0.0,0.0,0.0,0.0,-3.1827,0.0,-3.19,-3.1944,-3.2017,-3.2266,-3.2207,-3.19,-3.19,-3.19,-3.19,-3.19,-3.1944,-3.2017,-3.2207,-3.2324,-3.2412,-3.2676,-3.2778,-3.2778,0.0,0.0,0.0,0.0,0.0,0.0,0.0,0.0,0.0,0.0,0.0,0.0,0.0,0.0,0.0,0.0,0.0,0.0,0.0,0.0,-2.455,-2.455,-2.5399,-2.5896,-2.5937,-2.5982,-2.6141,-2.6384,-2.6346,-2.6112,-2.5773,-2.682,-2.709,-2.6719,-2.7344,-2.6956,-2.5914,-2.578,-2.5099,-2.4196,-2.3877,-2.318,-2.2076,-2.0915,-1.9959,-1.9223,-1.8725,0.0,0.0,0.0,0.0,0.0,0.0,0.0,-1.9023,-1.9038,-1.8921,0.0,0.0,0.0,0.0,0.0,0.0,0.0,0.0,0.0,0.0,0.0,0.0,0.0,0.0,0.0,0.0,0.0,0.0,0.0,0.0,0.0,0.0,0.0,0.0,0.0,0.0,0.0,0.0,0.0,0.0,0.0,0.0,0.0,0.0,0.0,0.0,0.0,-3.0876,-3.0876,-3.0949,-3.111,-3.111,-3.111,-3.111,-3.1432,-3.1578,-3.1549,-3.1402,-3.1417,-3.1563,-3.1563,-3.1754,-3.2032,-3.2046,-3.2237,-3.2544,-3.2705,-3.2778,-3.2778,0.0,0.0,0.0,0.0,0.0,0.0,0.0,0.0,0.0,0.0,0.0,0.0,0.0,0.0,0.0,0.0,0.0,0.0,0.0,0.0,0.0,-2.4654,-2.5378,-2.5537,-2.5269,-2.5614,-2.5738,-2.5738,-2.572,-2.5937,-2.6369,-2.7172,-2.7402,-2.7148,-2.7715,-2.7075,-2.5703,-2.591,-2.4895,-2.3085,-2.3727,-2.2833,-2.1151,-2.066,-1.9861,-1.8877,-1.8877,-1.8877,-1.8921,-1.9184,0.0,0.0,0.0,0.0,-1.9213,-1.8891,-1.8789,-1.8891,0.0,0.0,0.0,0.0,0.0,0.0,0.0,0.0,0.0,0.0,0.0,0.0,0.0,0.0,0.0,0.0,0.0,0.0,0.0,0.0,0.0,0.0,0.0,0.0,0.0,0.0,0.0,0.0,0.0,0.0,0.0,0.0,0.0,0.0,0.0,0.0,-2.9866,-2.9866,-2.9998,-3.0261,-3.0261,-3.0261,-3.0276,-3.0481,-3.0759,-3.1051,-3.0832,-3.0861,-3.1066,-3.1183,-3.1549,-3.2017,-3.1856,-3.2163,-3.269,-3.2749,-3.2778,-3.2778,0.0,0.0,0.0,0.0,0.0,0.0,0.0,0.0,0.0,0.0,-2.5532,0.0,0.0,0.0,0.0,0.0,0.0,0.0,0.0,0.0,0.0,-2.513,-2.5077,-2.5214,-2.5562,-2.5591,-2.555,-2.555,-2.5624,-2.6309,-2.7506,-2.7207,-2.7285,-2.7559,-2.6914,-2.6676,-2.6691,-2.5256,-2.4888,-2.5197,-2.4022,-2.3099,-2.2181,-2.1237,-2.0215,-1.9213,-1.9213,-1.9213,-1.9213,-1.9257,-1.9272,0.0,0.0,0.0,-1.9213,-1.8891,-1.8789,0.0,0.0,0.0,0.0,0.0,0.0,0.0,0.0,0.0,0.0,0.0,0.0,0.0,0.0,0.0,0.0,0.0,0.0,0.0,0.0,0.0,0.0,0.0,0.0,0.0,0.0,0.0,0.0,0.0,0.0,0.0,0.0,0.0,0.0,0.0,0.0,0.0,-2.9866,-2.9866,-2.9881,-2.9925,-2.9925,-2.9925,-2.9925,-2.9676,-2.9749,-3.0071,-3.0305,-3.0276,-3.01,-3.0656,-3.0934,-3.1066,-3.1593,-3.2017,-3.2383,-3.2661,-3.2778,-3.2778,0.0,0.0,0.0,0.0,0.0,0.0,0.0,0.0,0.0,0.0,0.0,0.0,0.0,0.0,0.0,0.0,0.0,0.0,0.0,0.0,0.0,-2.484,-2.4579,-2.4717,-2.5166,-2.5137,-2.5218,-2.5436,-2.5624,-2.6523,0.0,-2.8066,-2.8437,-2.9023,-2.7695,-2.6879,-2.6399,-2.5218,-2.4317,-2.3492,-2.3117,-2.2447,-2.1489,-2.038,-1.9672,-1.9272,-1.9272,-1.9272,-1.9272,-1.9272,-1.9272,-1.9257,-1.9111,0.0,0.0,0.0,0.0,0.0,0.0,0.0,0.0,0.0,0.0,0.0,0.0,0.0,0.0,0.0,0.0,0.0,0.0,0.0,0.0,0.0,0.0,0.0,0.0,0.0,0.0,0.0,0.0,0.0,0.0,0.0,0.0,0.0,0.0,0.0,0.0,-2.9412,-2.9325,-2.9325,-2.9325,0.0,-2.9061,-2.9237,-2.9325,-2.931,-2.9149,-2.9149,-2.931,-2.9164,-2.9383,-2.9866,-2.9822,-2.9939,-3.0159,-3.0437,-3.0876,-3.1402,-3.1681,-3.2105,-3.2573,-3.2719,-3.2778,-3.2778,0.0,0.0,0.0,0.0,0.0,0.0,0.0,0.0,0.0,0.0,0.0,0.0,0.0,0.0,0.0,0.0,0.0,0.0,0.0,0.0,0.0,-2.455,-2.4206,-2.4262,-2.45,-2.4615,-2.4868,-2.5184,-2.5447,0.0,-2.8613,-2.8828,-2.9668,-3.0937,-2.9121,-2.768,-2.6517,-2.5481,-2.444,-2.3302,-2.2298,-2.1694,-2.12,-1.9881,-1.9345,-1.9286,-1.9374,-1.9345,-1.9272,-1.9272,-1.933,-1.9389,-1.9301,-1.933,0.0,0.0,0.0,0.0,0.0,0.0,0.0,0.0,0.0,0.0,0.0,0.0,0.0,0.0,0.0,0.0,0.0,0.0,0.0,0.0,0.0,0.0,0.0,0.0,0.0,0.0,0.0,0.0,0.0,0.0,0.0,0.0,0.0,0.0,0.0,-2.8783,-2.8651,-2.8651,-2.8651,-2.8578,-2.8432,-2.8666,-2.8739,-2.8651,-2.8505,-2.8549,-2.8783,-2.8856,-2.9149,-2.9603,-2.9442,-2.9647,-3.0115,-3.0276,-3.0876,-3.1681,-3.1681,-3.2076,-3.2646,-3.2646,-3.2646,-3.2661,0.0,0.0,0.0,0.0,0.0,0.0,0.0,0.0,0.0,0.0,0.0,0.0,-2.4744,-2.5231,-2.54,-2.4529,-2.455,0.0,0.0,0.0,0.0,-2.455,-2.41,0.0,-2.3881,-2.4256,-2.4434,-2.4453,0.0,0.0,-2.9492,-2.9101,-3.0469,-3.3164,-3.1016,-2.9394,-2.8058,-2.5816,-2.5843,-2.6968,-2.2232,-2.1178,-2.2232,-2.0437,-1.955,-1.9316,-1.9623,-1.9535,-1.9272,-1.9272,-1.9477,-1.9681,-1.9374,-1.9491,-1.9681,0.0,0.0,0.0,0.0,0.0,0.0,0.0,0.0,0.0,0.0,0.0,0.0,0.0,0.0,0.0,0.0,0.0,0.0,0.0,0.0,0.0,0.0,0.0,0.0,0.0,0.0,0.0,0.0,0.0,0.0,0.0,0.0,0.0,-2.8052,-2.8008,-2.7993,-2.7993,-2.7993,-2.8139,-2.8432,-2.8461,-2.83,-2.8008,-2.83,-2.8447,-2.8476,-2.8754,-2.8915,-2.8959,-2.9251,-2.9398,-2.9471,-3.01,-3.0744,-3.1329,-3.1329,-3.1739,-3.231,-3.231,-3.231,-3.2354,0.0,0.0,0.0,0.0,0.0,0.0,0.0,0.0,0.0,0.0,0.0,0.0,0.0,-2.4786,-2.4871,-2.455,-2.455,0.0,0.0,0.0,0.0,-2.4292,-2.3861,-2.3839,-2.4416,-2.4441,-2.4687,0.0,0.0,-2.6328,-2.7949,-2.8613,-2.9355,-3.0117,-2.9902,-2.9238,-2.8239,-2.6541,-2.5461,0.0,-2.286,-2.2055,-2.1828,-2.0181,-1.9506,-1.9608,0.0,0.0,0.0,-1.9828,-1.9828,-1.9784,-1.9872,-1.9828,-1.974,-1.9623,-1.914,-1.8862,0.0,0.0,0.0,0.0,0.0,0.0,0.0,0.0,0.0,0.0,0.0,0.0,0.0,0.0,0.0,0.0,0.0,0.0,0.0,0.0,0.0,0.0,0.0,0.0,0.0,0.0,0.0,0.0,0.0,0.0,-2.7964,-2.7949,-2.7949,-2.7949,-2.7949,-2.8008,-2.8125,-2.7715,-2.7656,-2.7949,-2.7861,-2.8037,-2.8432,-2.833,-2.8505,-2.89,-2.9017,-2.931,-2.972,-3.0173,-3.0729,-3.1329,-3.1549,-3.19,-3.2266,-3.2046,-3.2237,-3.2588,0.0,0.0,0.0,0.0,0.0,0.0,0.0,0.0,-2.9131,-2.7302,0.0,0.0,0.0,0.0,-2.455,-2.455,-2.455,-2.455,-2.455,-2.4378,-2.4292,-2.4206,-2.3841,-2.3919,-2.4564,-2.4291,-2.4629,-2.5508,-2.5371,-2.5957,0.0,-2.7949,-2.8437,-2.873,-2.8867,-2.8949,0.0,0.0,0.0,-2.4815,0.0,-2.2552,-2.2198,-2.0793,0.0,0.0,0.0,0.0,0.0,0.0,-2.0003,-1.9959,-2.0164,-2.0164,-2.0062,-1.9959,-1.9389,-1.8979,-1.9842,0.0,0.0,0.0,0.0,0.0,0.0,0.0,0.0,0.0,0.0,0.0,0.0,0.0,0.0,0.0,0.0,0.0,0.0,0.0,0.0,0.0,0.0,0.0,0.0,0.0,0.0,0.0,0.0,0.0,-2.7627,-2.7627,-2.7583,-2.7466,-2.7466,-2.7408,-2.7305,-2.6983,-2.7042,-2.7466,-2.7247,-2.7495,-2.811,-2.7891,-2.8139,-2.8739,-2.8739,-2.9164,-2.9895,-3.0217,-3.0788,-3.1476,-3.1476,-3.1739,-3.2076,-3.1754,-3.1973,-3.2427,0.0,0.0,0.0,0.0,0.0,0.0,0.0,0.0,-2.9131,-2.7325,0.0,0.0,0.0,0.0,0.0,-2.4571,-2.4485,-2.4485,-2.4571,-2.4485,-2.4399,-2.4227,-2.3947,-2.3887,-2.4148,-2.3918,-2.4238,-2.5098,-2.4668,-2.5527,-2.7578,-2.7187,-2.7891,-2.9434,-2.8223,-2.8594,-3.0042,0.0,-2.8861,-2.79,0.0,-2.2688,-2.3231,0.0,0.0,0.0,-2.2506,-2.2023,0.0,-2.0164,0.0,0.0,-2.0267,-2.0472,-2.0647,-2.034,-2.0018,-1.9769,0.0,0.0,0.0,0.0,0.0,0.0,0.0,0.0,0.0,0.0,0.0,0.0,0.0,0.0,0.0,0.0,0.0,0.0,0.0,0.0,0.0,0.0,0.0,0.0,0.0,0.0,0.0,0.0,0.0,0.0,-2.6969,-2.6969,-2.6822,-2.65,-2.6486,-2.6339,-2.6018,-2.6325,-2.6486,-2.6486,-2.6486,-2.6837,-2.7466,-2.7466,-2.7817,-2.8432,-2.8461,-2.8988,-2.9881,-3.0217,-3.0905,-3.171,-3.1095,-3.1242,-3.1754,-3.1446,-3.1534,-3.1856,0.0,0.0,0.0,0.0,0.0,-2.9402,-2.9001,-2.8839,-2.8474,0.0,0.0,0.0,-2.4615,-2.484,-2.5171,-2.5482,-2.5345,-2.5345,-2.5502,-2.4662,-2.4323,-2.4696,-2.4147,-2.4078,-2.4604,-2.4643,-2.5,-2.5547,-2.543,-2.5508,-2.5801,-2.6328,-2.6816,0.0,-2.7871,-2.8379,-2.8789,-2.796,0.0,0.0,-2.4173,-2.3739,0.0,0.0,0.0,0.0,0.0,-2.2271,-2.2184,0.0,-2.1745,-2.1569,-2.1086,-2.0676,-2.0398,-2.0545,-2.0194,-1.9769,-1.9769,0.0,0.0,0.0,0.0,0.0,0.0,0.0,0.0,0.0,0.0,0.0,0.0,0.0,0.0,0.0,0.0,0.0,0.0,0.0,0.0,0.0,0.0,0.0,0.0,0.0,0.0,0.0,0.0,-2.6383,-2.6632,-2.6632,-2.6486,-2.6164,-2.6149,-2.6105,-2.6018,-2.6105,-2.6149,-2.6149,-2.6149,-2.6486,-2.713,-2.713,-2.7613,-2.8461,-2.8915,-2.9266,-2.9559,-3.0115,-3.0642,-3.1124,-3.1417,-3.1637,-3.1783,-3.1695,-3.1871,-3.2163,0.0,0.0,0.0,0.0,0.0,-2.9679,-2.9352,-2.9028,-2.8393,0.0,0.0,0.0,-2.4885,-2.5585,-2.5958,-2.5558,-2.5612,-2.5632,-2.5537,-2.5076,-2.4775,-2.4702,-2.4506,-2.4453,-2.4598,-2.4761,-2.5098,-2.5742,-2.5547,-2.543,-2.5352,-2.5879,-2.6113,-2.6152,0.0,0.0,0.0,0.0,0.0,0.0,-2.5679,0.0,0.0,-2.3422,-2.343,0.0,0.0,0.0,-2.4614,-2.4024,-2.3006,0.0,0.0,-2.0911,-2.1013,-2.0794,-2.0457,-2.0135,-1.9989,-1.9623,-1.9374,-1.9784,0.0,0.0,0.0,0.0,0.0,0.0,0.0,0.0,0.0,0.0,0.0,0.0,0.0,0.0,0.0,0.0,0.0,0.0,0.0,0.0,0.0,0.0,0.0,0.0,-2.5886,-2.5959,-2.6281,-2.6164,-2.6003,-2.5813,-2.5681,-2.5622,-2.5622,-2.5622,-2.5681,-2.5813,-2.5813,-2.6149,-2.6793,-2.6925,-2.7452,-2.8256,-2.8769,-2.9134,-2.9398,-2.9793,-3.029,-3.0861,-3.1242,-3.1563,-3.1783,-3.1637,-3.1885,-3.228,0.0,0.0,-2.8373,-2.8925,-2.9503,-2.993,-3.0055,-2.9536,-2.8715,0.0,-2.6612,-2.5937,-2.5716,-2.6682,-2.6775,-2.5439,-2.5785,-2.5785,-2.5214,-2.5591,-2.5501,-2.4665,-2.5048,-2.4973,-2.4492,-2.4531,-2.4941,-2.5742,-2.5332,-2.5352,-2.5742,-2.5742,-2.5742,-2.5742,0.0,0.0,0.0,0.0,0.0,-2.6534,-2.7475,-2.6737,0.0,0.0,-2.6656,0.0,-2.7415,-2.7573,-2.7486,-2.6087,-2.4208,0.0,0.0,0.0,0.0,-2.113,-2.0867,-2.0764,-2.0472,-2.0003,-1.9784,-2.053,-1.9696,0.0,-2.0223,-1.9638,0.0,0.0,0.0,0.0,0.0,0.0,0.0,0.0,0.0,0.0,0.0,0.0,0.0,0.0,0.0,0.0,0.0,0.0,0.0,-2.5871,-2.5666,-2.5637,-2.59,-2.5666,-2.552,-2.5476,-2.5198,-2.5052,-2.5052,-2.5052,-2.5198,-2.5476,-2.552,-2.5871,-2.6515,-2.6881,-2.7393,-2.8022,-2.8388,-2.8842,-2.9325,-2.9398,-2.9954,-3.0773,-3.0773,-3.1168,-3.171,-3.1461,-3.1754,-3.2295,0.0,-2.8398,-2.895,-2.9528,-3.008,-3.0758,-3.1612,-2.9725,-2.8588,-2.9523,-2.8392,-2.7765,-2.8421,-2.809,-2.7841,-2.7847,-2.7174,-2.6783,-2.6868,-2.6227,-2.5837,-2.5869,-2.5558,-2.5317,-2.5204,-2.5388,-2.5566,-2.5742,-2.5644,-2.5644,-2.5742,-2.5742,-2.5742,-2.5742,-2.5742,0.0,0.0,0.0,0.0,-2.6448,-2.6854,0.0,-2.6851,-2.621,-2.5727,-2.5487,-2.5814,-2.6909,-2.81,-2.7174,-2.5334,-2.3223,0.0,0.0,0.0,-2.1876,-2.1715,-2.1496,-2.1423,-2.1511,-2.1467,-2.0867,-2.0881,0.0,-1.9447,-1.9169,0.0,0.0,0.0,0.0,0.0,0.0,0.0,0.0,0.0,0.0,0.0,0.0,0.0,0.0,0.0,0.0,0.0,0.0,0.0,-2.5213,-2.5418,-2.5447,-2.5257,-2.5418,-2.5418,-2.5154,-2.5096,-2.5052,-2.5052,-2.5052,-2.5096,-2.5154,-2.5403,-2.5871,-2.653,-2.7115,-2.773,-2.8373,-2.8944,-2.912,-2.9017,-2.9544,-3.0027,-3.0437,-3.0437,-3.0832,-3.1432,-3.1622,-3.1944,-3.2324,-2.8047,-2.8775,-2.9528,-3.0105,-3.0859,-3.1587,-3.2139,-3.0635,-2.9777,-3.0445,-2.9829,-2.9208,-2.898,-2.9166,-2.8938,-2.7811,-2.7523,-2.7215,-2.6742,-2.6627,-2.6337,-2.604,-2.5959,-2.5769,-2.5248,-2.5508,-2.5742,-2.5742,-2.5742,-2.5742,-2.5742,-2.5742,-2.5742,-2.5742,-2.5742,0.0,0.0,0.0,-2.6699,-2.6855,-2.7994,0.0,-2.8217,-2.8351,-2.821,-2.7861,-2.9018,-2.9539,-2.928,-2.6916,-2.5381,0.0,0.0,-2.2754,-2.2798,0.0,-2.2067,-2.1832,-2.135,-2.1203,-2.1174,-2.1013,0.0,0.0,0.0,-1.914,0.0,0.0,0.0,0.0,0.0,0.0,0.0,0.0,0.0,0.0,0.0,0.0,0.0,0.0,0.0,0.0,0.0,0.0,-2.4393,-2.4554,-2.4715,-2.4803,-2.4818,-2.4964,-2.5052,-2.5052,-2.5052,-2.5052,-2.5052,-2.5052,-2.514,-2.5301,-2.5783,-2.6266,-2.6778,-2.7583,-2.8139,-2.8461,-2.893,-2.9134,-2.9149,-2.931,-2.9573,-2.9881,-3.0042,-3.0495,-3.111,-3.1432,-3.1856,-3.2339,-2.8273,-2.9101,-2.9955,-3.0507,-3.1411,-3.2114,-3.234,-3.1601,-3.0951,-3.0853,-3.0815,-3.047,-2.9518,-3.0098,-2.9869,-2.8246,-2.7852,-2.7482,-2.7078,-2.7092,-2.6812,-2.5973,-2.628,-2.6167,-2.5332,-2.5684,-2.5898,-2.5977,-2.582,-2.582,-2.5977,-2.582,-2.582,-2.5977,-2.5898,0.0,0.0,0.0,0.0,-2.7422,0.0,-2.9469,-2.8765,-3.0445,-3.074,-3.0376,-3.2639,-3.2445,-3.0615,-2.7285,-2.5907,-2.5323,-2.3319,-2.331,0.0,0.0,0.0,0.0,0.0,0.0,0.0,0.0,0.0,-2.0691,0.0,0.0,0.0,0.0,0.0,0.0,0.0,0.0,0.0,0.0,0.0,0.0,0.0,0.0,0.0,0.0,0.0,0.0,0.0,0.0,0.0,-2.3984,-2.3925,-2.4071,-2.4452,-2.4481,-2.4569,-2.4774,-2.4905,-2.4935,-2.4876,-2.4993,-2.5213,-2.5535,-2.612,-2.6647,-2.7115,-2.7964,-2.8403,-2.8534,-2.8783,-2.9032,-2.9266,-2.9061,-2.9134,-2.9398,-2.9676,-3.0203,-3.0861,-3.1183,-3.1768,-3.2412,-2.8825,-2.9352,-2.9955,-3.0507,-3.1085,-3.1813,-3.2817,-3.1761,-3.0847,-3.0767,-3.1105,-3.1547,-3.2188,-3.073,-3.0545,-3.252,-2.9003,-2.7659,-2.9993,-2.7962,-2.6572,-2.6436,-2.6643,-2.6547,-2.625,-2.6289,-2.6504,-2.6875,-2.6113,-2.6133,-2.6855,-2.6094,-2.6152,-2.6855,-2.6484,0.0,0.0,0.0,-2.7773,0.0,-2.9238,-2.8861,0.0,-2.9792,-3.0041,-2.9671,-3.2611,-3.2717,-3.1319,0.0,-2.9034,-2.7473,0.0,-2.4203,-2.4057,-2.391,0.0,0.0,0.0,0.0,0.0,0.0,-2.3471,0.0,0.0,0.0,0.0,0.0,0.0,0.0,0.0,0.0,0.0,0.0,0.0,0.0,0.0,0.0,0.0,0.0,0.0,0.0,0.0,0.0,0.0,0.0,-2.3384,-2.3486,-2.4101,-2.4145,-2.4027,-2.3764,-2.432,-2.4481,-2.4203,-2.4774,-2.5213,-2.5535,-2.59,-2.6544,-2.7437,-2.7832,-2.8315,-2.8842,-2.8871,-2.8915,-2.8959,-2.9222,-2.9339,-2.9383,-2.9412,-2.9998,-3.0861,-3.1183,-3.19,-3.2719,-2.8524,-2.9176,-2.9955,-3.0507,-3.1035,-3.1763,-3.2918,-3.326,-3.3101,-3.252,-3.2966,-3.3575,-3.4217,-3.3479,-3.3087,-3.3368,0.0,-3.0072,0.0,0.0,-2.7557,-2.7261,-2.7342,-2.7022,-2.6387,-2.6621,-2.6719,-2.6641,-2.6543,-2.666,-2.7012,-2.6641,-2.668,-2.7012,-2.6836,0.0,-2.7051,0.0,0.0,0.0,0.0,0.0,0.0,-3.1085,-3.2222,-3.2763,-3.22,-3.2453,-3.2628,0.0,-2.9377,0.0,0.0,0.0,0.0,0.0,0.0,0.0,0.0,0.0,0.0,0.0,0.0,0.0,-2.1698,0.0,-2.0603,0.0,0.0,0.0,0.0,0.0,0.0,0.0,0.0,0.0,0.0,0.0,0.0,0.0,0.0,0.0,0.0,0.0,0.0,0.0,0.0,-2.2564,-2.3208,-2.3413,-2.3632,-2.3866,-2.4145,-2.432,-2.4364,-2.4642,-2.5022,-2.5535,-2.6047,-2.672,-2.7495,-2.8008,-2.8476,-2.8886,-2.8886,-2.8886,-2.8915,-2.9237,-2.9383,-2.9398,-2.9588,-3.0027,-3.0583,-3.0905,-3.1534,-3.2266,-2.8448,-2.9126,-2.9905,-3.0306,-3.0834,-3.158,-3.2636,-3.3667,-3.4178,-3.3661,-3.3959,0.0,-3.55,-3.5273,0.0,0.0,-3.3809,-3.2385,0.0,0.0,-2.8493,-2.7824,-2.7722,-2.7459,-2.6738,-2.7031,-2.7109,-2.6914,-2.6973,-2.7129,-2.7363,-2.7129,-2.7148,-2.7363,0.0,-2.7441,-2.7559,0.0,0.0,-2.8418,-2.9023,-2.9668,-3.0469,-3.2148,-3.373,-3.4774,-3.2684,-3.2975,-3.3879,-3.1506,-3.0359,0.0,-2.9628,0.0,0.0,0.0,0.0,0.0,-2.4419,0.0,0.0,0.0,0.0,0.0,0.0,0.0,0.0,0.0,0.0,0.0,0.0,0.0,-1.9725,-2.0589,0.0,0.0,0.0,0.0,0.0,0.0,0.0,0.0,0.0,0.0,0.0,0.0,-2.1028,0.0,-2.2067,-2.2491,-2.2945,-2.3413,-2.3676,-2.3969,-2.4291,-2.4481,-2.4891,-2.5535,-2.6105,-2.6705,-2.7364,-2.792,-2.8344,-2.8637,-2.8725,-2.8812,-2.893,-2.9498,-2.9733,-2.9661,-2.9968,-3.0277,-3.051,-3.0744,-3.1242,-3.1871,-2.9026,-2.9377,-2.9804,-2.9804,0.0,-3.0951,-3.2082,-3.2322,0.0,0.0,0.0,0.0,0.0,0.0,0.0,0.0,0.0,-3.3881,-3.5169,0.0,-2.896,0.0,0.0,-2.7637,-2.7617,-2.7637,-2.7832,-2.8223,-2.7422,-2.7441,-2.8242,-2.7402,-2.7461,-2.8262,-2.8262,-2.8476,-2.8887,-2.9316,-2.9746,-3.0117,-3.0137,-3.0937,-3.2148,0.0,-3.334,-3.416,-3.444,0.0,0.0,-3.3233,-3.2808,0.0,0.0,0.0,0.0,0.0,0.0,0.0,0.0,0.0,0.0,-2.403,0.0,0.0,0.0,0.0,-2.2769,0.0,0.0,0.0,0.0,-2.1379,-2.1042,-2.0764,-2.0955,0.0,0.0,0.0,0.0,0.0,0.0,0.0,0.0,0.0,0.0,0.0,-2.0267,0.0,-2.0764,-2.1393,-2.1759,-2.1774,-2.2667,-2.3296,-2.3618,-2.4247,-2.4891,-2.5535,-2.5871,-2.6369,-2.7013,-2.7349,-2.7686,-2.7993,-2.8315,-2.8622,-2.8944,-3.0067,-3.0366,-3.0454,-3.0483,-3.0588,-3.0803,-3.0817,-3.1242,-3.1841,-3.008,-3.0206,-3.0231,0.0,0.0,0.0,0.0,-3.3319,0.0,0.0,0.0,0.0,0.0,0.0,-3.9412,0.0,0.0,-3.6953,-3.5645,-3.3498,0.0,0.0,0.0,-2.9479,0.0,-2.8633,-2.8574,-2.7871,-2.7871,-2.8008,-2.8281,-2.7988,-2.8008,-2.8301,0.0,-2.8379,0.0,0.0,0.0,0.0,0.0,-3.1777,-3.3418,0.0,0.0,-3.4082,-3.4238,-3.457,0.0,-3.422,-3.3444,-3.2869,-3.3121,-3.1907,-3.0459,-3.1399,-3.1325,0.0,0.0,0.0,-3.1531,-2.6775,0.0,0.0,0.0,0.0,0.0,0.0,0.0,0.0,0.0,-2.2067,-2.1672,-2.113,-2.0955,-2.0516,0.0,0.0,0.0,0.0,0.0,0.0,0.0,0.0,0.0,-1.8657,-1.9638,-2.0281,0.0,-2.1233,-2.1891,-2.2301,-2.2623,-2.3047,-2.3588,-2.3808,-2.4247,-2.4891,-2.5227,-2.5827,-2.6676,-2.7013,-2.7452,-2.7964,-2.8066,-2.8417,-2.893,-2.9858,-3.023,-3.0027,-3.0409,-3.0469,-3.051,-3.051,-3.092,-3.149,-3.0884,0.0,0.0,0.0,0.0,0.0,0.0,0.0,0.0,0.0,-3.7123,0.0,-4.0051,0.0,-4.1407,0.0,-4.0861,-3.9493,-3.6527,-3.557,0.0,-3.2276,-3.1663,0.0,0.0,-2.9453,-2.9023,-2.7891,-2.832,-2.8437,-2.8301,-2.8301,-2.8301,-2.8301,0.0,0.0,0.0,0.0,-2.9336,0.0,0.0,-3.2168,0.0,0.0,-3.3789,-3.4238,0.0,-3.3984,-3.4473,-3.4473,-3.4046,-3.352,-3.4619,-3.3614,-3.215,-3.3271,-3.3225,-3.2521,-3.1566,-3.2665,0.0,-2.8824,-2.8612,0.0,-2.4299,0.0,0.0,0.0,0.0,0.0,0.0,-2.3595,-2.2421,-2.2326,-2.1621,-2.0735,0.0,-1.9345,0.0,0.0,0.0,0.0,0.0,0.0,-1.8569,-1.8028,-1.9067,-1.9769,0.0,0.0,-2.1525,-2.2271,-2.2403,-2.2828,-2.3588,-2.3588,-2.3925,-2.4569,-2.4905,-2.5505,-2.6339,-2.6805,-2.7247,-2.7613,-2.7865,-2.8291,-2.8769,-2.9695,-3.0067,-3.0203,-3.0483,-3.0661,-3.0498,-3.038,-3.0656,-3.1315,0.0,0.0,0.0,0.0,-3.2064,0.0,0.0,0.0,-3.6413,0.0,-3.7159,-3.8908,-4.0211,-4.1198,-4.2086,-4.2943,-4.294,0.0,-3.8065,-3.7976,0.0,0.0,-3.2093,-3.1484,-3.0957,0.0,-2.9349,-2.8359,-2.8711,-2.8691,-2.832,-2.8301,-2.8301,-2.832,-2.8711,0.0,-2.9551,-2.9551,-3.0098,-3.0996,-3.1816,-3.2187,-3.2344,-3.3066,0.0,-3.4512,-3.3262,-3.334,-3.4004,-3.4004,-3.4297,-3.4707,-3.5156,-3.5019,-3.4785,-3.5254,-3.541,-3.5045,-3.3271,-3.3071,-3.2955,-3.0417,0.0,0.0,0.0,0.0,-2.7579,0.0,0.0,0.0,0.0,-2.5771,-2.3394,-2.4086,-2.2757,-2.1306,-2.0384,-2.0003,-1.9813,0.0,0.0,0.0,0.0,-1.8994,-1.8672,-1.8321,-1.8628,0.0,0.0,0.0,0.0,-2.1672,-2.2008,-2.2637,-2.3559,-2.3574,-2.3896,-2.4554,-2.4862,-2.5359,-2.6003,-2.6751,-2.7078,-2.6983,-2.7732,-2.8103,-2.8491,-2.9591,-3.0211,-3.0525,-3.0854,-3.1003,-3.0825,-3.0189,-3.051,-3.1315,-3.1461,-3.2164,-3.3018,0.0,-3.3345,-3.3162,0.0,0.0,0.0,0.0,-3.8365,-4.0167,-4.131,-4.2116,-4.2645,-4.2544,-4.3208,0.0,0.0,0.0,0.0,-3.6618,-3.5653,-3.4398,-3.2595,-3.1996,-3.1003,-2.9589,-2.9055,-2.879,-2.875,-2.8437,-2.8301,-2.8301,0.0,0.0,-2.9101,-2.9434,-3.0273,-3.1367,-3.1601,-3.2441,0.0,0.0,-3.293,-3.416,-3.3496,-3.3203,-3.3125,-3.3125,-3.3398,-3.3769,-3.3887,-3.4277,-3.4785,-3.5254,-3.5605,-3.5685,-3.5298,-3.5662,-3.5635,-3.2991,-3.2193,-3.1439,0.0,0.0,0.0,0.0,0.0,0.0,0.0,0.0,-2.4363,-2.2357,-2.1195,-2.0603,-2.0603,-2.053,0.0,-2.0472,0.0,0.0,0.0,-1.9199,-1.8921,-1.835,-1.9052,0.0,0.0,0.0,0.0,-2.1672,-2.2008,-2.252,-2.3223,-2.3237,-2.3559,-2.4203,-2.4291,-2.4803,-2.5666,-2.6394,-2.6877,-2.7063,-2.7535,-2.8193,-2.8922,-2.9789,-3.0166,-3.0211,-3.1118,-3.1166,-3.0542,-3.0525,-3.089,-3.1315,-3.2867,0.0,0.0,-3.6107,0.0,0.0,-3.5253,0.0,0.0,-3.7156,-3.8946,0.0,-4.0903,-4.2511,-4.323,-4.243,-4.3624,0.0,-4.0662,0.0,0.0,-3.8541,-3.7729,-3.6563,-3.4624,-3.3377,0.0,-3.0016,0.0,-2.8829,-2.8633,-2.8398,-2.8301,-2.8301,0.0,-2.8516,0.0,-2.959,-3.0273,-3.0976,-3.1367,0.0,0.0,-3.209,-3.2402,-3.3203,-3.2969,-3.2832,-3.2832,-3.3008,-3.3223,-3.3418,-3.3418,-3.3887,-3.4473,-3.4746,-3.5117,-3.5488,-3.5684,-3.6094,-3.6191,-3.4812,-3.4353,-3.3688,-3.1529,-3.1274,-3.1283,0.0,0.0,0.0,0.0,0.0,0.0,-2.2345,-2.1668,-2.1693,-2.2323,0.0,0.0,0.0,0.0,0.0,0.0,0.0,0.0,0.0,0.0,0.0,0.0,0.0,0.0,0.0,-2.2271,-2.2754,-2.3106,-2.3398,-2.3647,-2.3866,-2.4013,-2.4525,-2.5344,-2.6354,-2.6884,-2.6944,-2.771,-2.8178,-2.8561,-2.9329,-2.9718,-3.0091,-3.1088,-3.1257,-3.0913,-3.0759,-3.0934,-3.1095,0.0,0.0,0.0,0.0,0.0,0.0,0.0,-3.8387,0.0,-3.8089,0.0,-4.0599,-4.0237,-4.2495,-4.3725,-4.2685,0.0,-4.3548,-4.0455,-4.2035,-4.2149,-3.9659,-3.9151,-3.8142,-3.6688,-3.4592,-3.2371,0.0,-2.9709,-2.9036,-2.8486,-2.832,0.0,0.0,0.0,0.0,0.0,-2.9824,-3.0195,0.0,-3.1152,-3.1523,-3.1562,-3.1934,-3.209,-3.209,-3.209,-3.2324,-3.2695,-3.3105,-3.3262,-3.3262,-3.332,-3.3633,-3.4004,-3.4062,-3.4336,-3.4726,-3.5176,-3.5293,-3.541,-3.584,-3.5937,-3.5472,-3.3688,-3.3081,-3.2933,-3.258,-3.1073,-3.0366,0.0,0.0,-2.4859,-2.3472,-2.3231,-2.3519,0.0,0.0,0.0,0.0,0.0,0.0,0.0,0.0,0.0,0.0,0.0,0.0,0.0,0.0,0.0,0.0,-2.252,0.0,-2.3237,0.0,-2.394,-2.3793,-2.4027,-2.4466,-2.5216,-2.6556,-2.7009,-2.6614,-2.8036,-2.8386,-2.7993,-2.8931,-2.9763,-3.0514,-3.0911,-3.1168,-3.1482,-3.1164,-3.115,-3.115,0.0,0.0,0.0,0.0,0.0,-4.0808,-4.2563,-4.1239,-4.0117,-4.0412,-4.1595,0.0,-4.2952,-4.3188,-4.3485,-4.3844,-4.4246,0.0,0.0,0.0,0.0,-4.1875,-4.098,-3.9657,-3.7975,-3.5686,-3.369,0.0,-3.0017,-2.92,-2.9154,-2.8564,0.0,0.0,0.0,0.0,-2.8984,-2.9824,0.0,-3.0273,-3.1152,-3.1523,-3.1523,-3.1601,-3.1621,-3.1621,-3.1621,-3.168,-3.1816,-3.2246,-3.2383,-3.2441,-3.2793,-3.3203,-3.3613,-3.3965,-3.4121,-3.4277,-3.4707,-3.4824,-3.4922,-3.5391,-3.5508,-3.5547,-3.5472,-3.5104,-3.4834,-3.4757,-3.3989,-3.2796,-3.1514,0.0,0.0,0.0,0.0,0.0,0.0,0.0,0.0,0.0,0.0,0.0,0.0,0.0,0.0,0.0,0.0,0.0,0.0,0.0,0.0,0.0,0.0,0.0,0.0,0.0,0.0,-2.4803,-2.4583,-2.4686,-2.5216,-2.6556,-2.7028,-2.6698,-2.8076,-2.8535,-2.8582,-3.0604,-3.2044,-3.2714,-3.1626,-3.1299,-3.1482,-3.1843,-3.2639,-3.3312,0.0,0.0,0.0,0.0,0.0,0.0,0.0,-4.5278,0.0,-4.2422,-4.1959,-4.1922,-4.222,-4.331,-4.3926,-4.3659,-4.4296,-4.4243,-4.3062,-4.34,-4.3371,-4.2718,-4.1969,0.0,-3.9288,-3.6763,-3.4551,-3.2595,-3.0469,-2.9367,-2.9045,-2.8506,0.0,0.0,0.0,-2.8652,0.0,0.0,0.0,-3.0586,-3.1016,-3.1191,-3.1191,-3.1191,-3.1191,-3.1191,-3.1191,-3.1191,-3.1289,-3.1953,-3.2305,-3.25,-3.248,-3.291,-3.3379,-3.3144,-3.3398,-3.3789,-3.3984,-3.4355,-3.4805,-3.5273,-3.5566,-3.5723,-3.5703,-3.5351,-3.498,-3.4746,-3.418,-3.3077,-3.109,-2.8763,0.0,0.0,0.0,0.0,0.0,0.0,0.0,0.0,0.0,0.0,0.0,0.0,0.0,0.0,0.0,0.0,0.0,0.0,0.0,0.0,0.0,0.0,0.0,0.0,0.0,-2.5712,-2.5764,-2.608,-2.6264,-2.7937,-2.8332,-2.7834,-2.9105,-2.9687,-2.9648,-3.1443,-3.2504,-3.3145,-3.2857,-3.2802,-3.3249,-3.4229,-3.5025,-3.5366,0.0,-4.3614,0.0,0.0,-4.5983,0.0,0.0,-4.8403,-4.7344,-4.4497,-4.3107,-4.2183,-4.1731,-4.3752,-4.4732,-4.3362,-4.4202,-4.4188,-4.288,-4.3371,-4.3526,-4.3177,-4.2596,-4.1628,-4.0261,-3.7529,-3.5088,0.0,-3.0903,-2.9467,0.0,-2.8408,0.0,0.0,0.0,0.0,0.0,0.0,-3.0098,-3.0762,-3.0859,-3.0898,-3.0898,-3.0898,-3.0898,-3.0898,-3.0898,-3.0898,-3.0996,-3.166,-3.2168,-3.248,-3.2246,-3.2676,-3.3164,-3.25,-3.2832,-3.3418,-3.3418,-3.3984,-3.4668,-3.5137,-3.5566,-3.582,-3.5586,-3.5176,-3.4746,-3.4414,-3.3926,-3.3068,-3.1302,-3.0092,0.0,0.0,0.0,0.0,0.0,0.0,0.0,0.0,0.0,0.0,0.0,0.0,0.0,0.0,0.0,0.0,0.0,0.0,0.0,0.0,0.0,0.0,-2.7244,0.0,-2.702,0.0,-2.731,-2.7716,-2.7947,-2.9543,-2.9937,-2.9433,-3.0849,-3.1267,-3.1199,-3.2162,-3.2884,-3.3395,-3.4078,-3.4714,-3.5187,-3.6299,-3.7099,-3.7259,0.0,0.0,0.0,0.0,0.0,0.0,0.0,-4.8863,-4.7999,-4.7179,-4.7387,-4.6713,-4.4232,-4.5147,-4.532,-4.4194,-4.3967,-4.3772,-4.4061,-4.3731,-4.3656,-4.3615,-4.2745,-4.1628,-4.0261,-3.7529,-3.5211,0.0,0.0,-2.9574,0.0,-2.8495,0.0,0.0,0.0,0.0,0.0,-2.998,-3.0176,-3.0293,-3.0723,-3.0898,-3.0898,-3.0898,-3.0898,-3.0898,-3.0898,-3.0898,-3.0898,-3.0976,-3.1289,-3.1699,-3.2051,-3.248,-3.2832,-3.2754,-3.3066,-3.3418,-3.3418,-3.3769,-3.4238,-3.4668,-3.5117,-3.5547,-3.5879,-3.5625,-3.5312,-3.5273,-3.459,-3.3867,-3.3253,-3.2455,-3.1618,0.0,0.0,0.0,0.0,0.0,0.0,0.0,0.0,0.0,0.0,0.0,0.0,0.0,0.0,0.0,0.0,0.0,0.0,0.0,0.0,-2.6389,-2.7872,-2.8009,0.0,-2.9393,-2.9121,-2.9172,-2.9645,-3.0898,-3.1338,-3.1491,-3.2802,-3.3405,-3.3347,-3.3483,-3.3941,-3.4725,-3.5262,-3.5869,-3.6494,-3.7135,-3.795,-3.8761,0.0,0.0,0.0,0.0,0.0,0.0,0.0,-5.2083,-5.1562,-5.0033,-4.8112,-4.6558,-4.5879,-4.5316,-4.471,-4.3884,-4.3967,-4.3987,-4.3905,-4.3718,-4.3491,-4.3201,-4.26,-4.1628,-4.0261,-3.8067,-3.5914,0.0,0.0,0.0,0.0,0.0,0.0,0.0,0.0,-2.9551,-2.9961,-3.0117,-3.0351,-3.0625,-3.082,-3.0898,-3.0898,-3.0898,-3.0898,-3.0898,-3.0898,-3.0898,-3.0898,-3.0898,-3.1172,-3.1543,-3.1719,-3.207,-3.2363,-3.2109,-3.2519,-3.293,-3.2422,-3.3164,-3.4121,-3.4277,-3.4863,-3.543,-3.5605,-3.5508,-3.5312,-3.5039,-3.4297,-3.3555,-3.3125,-3.2344,-3.1758,0.0,0.0,0.0,0.0,0.0,0.0,0.0,0.0,-2.8008,0.0,0.0,0.0,0.0,0.0,0.0,0.0,0.0,0.0,-2.5612,0.0,-2.7299,-3.0008,-2.9632,-2.9976,-3.1025,-3.1096,-3.1461,-3.2025,-3.3303,-3.4047,-3.4477,-3.4757,-3.4902,-3.4949,-3.5664,-3.5994,-3.6469,-3.7421,-3.7958,-3.8408,-3.9531,-4.049,-4.0958,-5.0017,0.0,-4.969,0.0,-5.19,-5.2327,-5.3331,-5.3833,-5.3537,-5.2274,-4.9287,-4.723,-4.7292,-4.6589,-4.5578,-4.4374,-4.4647,-4.4405,-4.3635,-4.3615,-4.3408,-4.2932,-4.2497,0.0,-4.0261,-3.8564,-3.6639,-3.4465,-3.3176,0.0,0.0,0.0,0.0,0.0,-2.9609,-3.0,-3.041,-3.041,-3.0586,-3.0898,-3.0898,-3.0898,-3.0898,-3.0898,-3.0898,-3.0898,-3.0898,-3.0898,-3.0898,-3.0898,-3.1094,-3.1328,-3.1328,-3.1621,-3.1914,-3.1601,-3.2129,-3.2656,-3.2051,-3.2871,-3.3906,-3.4043,-3.4551,-3.5,-3.5,-3.5098,-3.5059,-3.4609,-3.3828,-3.3144,-3.2851,-3.2207,-3.1758,-3.1953,0.0,0.0,0.0,0.0,0.0,0.0,-2.8223,-2.8105,-2.8281,0.0,0.0,0.0,0.0,0.0,0.0,0.0,0.0,0.0,0.0,0.0,0.0,0.0,-3.1626,-3.2637,-3.3011,-3.3442,-3.4026,-3.5363,-3.6432,-3.7016,-3.6739,-3.6402,-3.6275,-3.7446,-3.7778,-3.7902,-3.9273,-3.9888,-4.0315,-4.1598,-4.2216,-4.2216,-5.1046,-5.1699,-5.2226,-5.2804,-5.3331,-5.3507,-5.3005,-5.2955,-5.313,-5.3632,-5.1901,-4.9985,-4.8407,-4.9557,-4.9271,-4.6211,-4.5937,-4.5213,-4.3767,-4.3615,-4.3408,0.0,0.0,-4.1628,-4.0261,-3.8874,-3.726,-3.5397,0.0,0.0,-3.1083,0.0,-2.9785,-3.0176,-3.0176,-3.0449,-3.0879,-3.0879,-3.0879,-3.0898,-3.0898,-3.0898,-3.0898,-3.0898,-3.0898,-3.0898,-3.0898,-3.0898,-3.0898,-3.0898,-3.0898,-3.0898,-3.0898,-3.1191,-3.1523,-3.1523,-3.2129,-3.2793,-3.2793,-3.3105,-3.3535,-3.3965,-3.4082,-3.4082,-3.4082,-3.4414,-3.459,-3.416,-3.3398,-3.2793,-3.2793,-3.2441,-3.2012,-3.1601,0.0,0.0,0.0,0.0,0.0,0.0,-2.8906,-2.875,-2.834,0.0,0.0,0.0,0.0,0.0,0.0,0.0,0.0,-2.8301,-2.998,0.0,-3.1504,-3.2773,-3.3633,-3.4082,-3.4492,-3.4941,-3.543,-3.6719,-3.7944,-3.909,-3.8668,-3.8054,-3.7502,-3.8735,-3.8935,-3.8892,-4.0488,-4.1529,-4.237,-4.237,-4.237,-4.237,-5.2327,-5.2553,-5.2729,-5.2904,-5.3356,-5.3532,-5.3005,-5.3231,-5.3381,-5.3206,-5.259,-5.205,-5.1467,-5.0009,-4.8696,0.0,-4.7535,-4.7389,0.0,-4.5788,-4.4847,-4.4052,-4.29,-4.1628,-4.0261,-3.9185,-3.7881,-3.637,0.0,0.0,0.0,-3.1357,-3.1031,-3.1445,-3.0917,-3.0918,-3.1309,-3.1016,-3.0898,-3.0898,-3.0898,-3.0898,-3.0898,-3.0898,-3.0898,-3.0898,-3.0898,-3.0898,-3.0898,-3.0898,-3.0898,-3.0898,-3.0898,-3.0976,-3.1094,-3.1094,-3.1699,-3.2305,-3.2012,-3.2656,-3.3457,-3.3594,-3.3848,-3.4141,-3.4434,-3.4609,-3.459,-3.416,-3.3613,-3.3144,-3.2851,-3.2207,-3.168,-3.1543,-3.1269,0.0,0.0,0.0,0.0,0.0,-2.9101,-2.8984,0.0,-2.8906,0.0,0.0,0.0,0.0,0.0,0.0,0.0,0.0,-3.0293,0.0,-3.1953,-3.293,-3.3789,-3.4512,-3.5254,-3.6269,-3.7569,-3.7681,-3.8255,-3.9122,-3.9116,-3.8809,-3.8754,-3.9661,-4.0112,-4.0355,-4.1282,-4.1942,-4.237,-4.237,-4.237,-4.237,-5.2929,-5.2929,-5.2929,-5.2929,-5.3206,-5.3306,-5.298,-5.3206,-5.3306,-5.298,-5.2929,-5.2929,-5.2929,-5.1163,0.0,-4.9271,-4.9128,0.0,-4.8407,-4.6802,-4.55,-4.4683,-4.3109,-4.1628,-4.0261,0.0,0.0,-3.7322,-3.5933,-3.4656,-3.3432,-3.2394,-3.2097,-3.2455,-3.1545,-3.1269,-3.1603,-3.1074,-3.0898,-3.0898,-3.0995,-3.0995,-3.0898,-3.0995,-3.0995,-3.0898,-3.0898,-3.0898,-3.0898,-3.0898,-3.0898,-3.0898,-3.0898,-3.0996,-3.1133,-3.1133,-3.1504,-3.1934,-3.1992,-3.2461,-3.3027,-3.334,-3.3516,-3.3711,-3.4121,-3.3984,-3.3711,-3.3613,-3.3262,-3.2812,-3.2402,-3.1875,-3.1465,-3.1309,-3.1055,-3.0781,-3.0488,0.0,0.0,0.0,0.0,0.0,0.0,-2.9316,0.0,0.0,0.0,0.0,0.0,0.0,0.0,-3.0059,-3.0918,0.0,-3.2637,-3.3476,-3.4336,-3.5215,-3.6074,-3.7151,-3.8216,-3.8073,-3.8308,-3.9195,-3.9188,-3.9504,-3.9919,-4.0524,-4.1111,-4.1855,-4.2136,-4.2544,-4.283,-4.283,-4.283,-4.283,-5.2929,-5.2929,0.0,0.0,-5.2929,0.0,-5.2929,-5.2929,-5.2929,-5.2929,-5.2929,-5.2929,-5.2929,-5.2929,-5.2327,-5.0857,0.0,0.0,0.0,-4.7051,-4.575,-4.497,-4.3358,0.0,-4.0381,-3.9903,-3.9218,-3.8129,-3.6136,-3.4923,-3.435,-3.3276,-3.2954,-3.3316,-3.2097,-3.1761,-3.1999,-3.1191,-3.0898,-3.0995,-3.1228,-3.1112,-3.1015,-3.1208,-3.1112,-3.0898,-3.0898,-3.0898,-3.0898,-3.0898,-3.0898,-3.0898,-3.0918,-3.1211,-3.1523,-3.1523,-3.1562,-3.1777,-3.2578,-3.2539,-3.2441,-3.3223,-3.3125,-3.2949,-3.332,-3.2812,-3.2363,-3.2754,-3.2519,-3.2129,-3.168,-3.1582,-3.1426,-3.0996,-3.0918,-3.0898,-3.0898,0.0,0.0,0.0,0.0,0.0,0.0,-2.9629,-2.9629,0.0,0.0,0.0,0.0,0.0,-3.0508,-3.0879,-3.1777,-3.2656,-3.3457,-3.4336,-3.5254,-3.6172,-3.6953,-3.7559,-3.7969,-3.8008,-3.8367,-3.9195,-3.9171,-3.9899,-4.1082,-4.1052,-4.1815,-4.3004,-4.3004,-4.331,-4.3615,-4.3615,-4.3615,-4.3615,0.0,0.0,-5.2929,-5.2929,-5.2929,-5.2929,-5.2929,-5.2929,-5.2929,-5.2929,-5.2929,-5.2929,-5.2929,-5.2929,-5.2767,-5.2352,-5.2352,-5.2189,-5.1911,-4.9934,-4.8568,-4.8072,-4.6124,-4.4007,-4.1869,-4.1374,-4.0088,-3.7653,-3.6738,-3.6119,-3.5644,-3.4473,-3.4167,-3.4431,-3.2954,-3.2415,-3.2455,-3.1544,-3.1228,-3.1228,-3.1208,-3.1208,-3.1228,-3.1325,-3.1112,-3.0898,-3.0898,-3.0898,-3.0898,-3.0898,-3.0898,-3.0937,-3.1269,-3.1445,-3.1523,-3.1523,-3.1973,-3.2539,-3.2734,-3.2949,-3.3164,-3.3379,-3.334,-3.3301,-3.3398,-3.3262,-3.3144,-3.3242,-3.3184,-3.2988,-3.2578,-3.2226,-3.1875,-3.1445,-3.1094,-3.0898,-3.0898,-3.0488,0.0,0.0,-3.0332,-3.0195,-3.0547,-3.0254,-3.0195,0.0,0.0,0.0,0.0,0.0,-3.1445,-3.0918,-3.2344,-3.3379,-3.3906,-3.5098,-3.6309,-3.748,-3.7676,-3.8151,-3.8872,-3.8896,-3.8935,-3.9195,-3.9485,-4.0068,-4.0634,-4.1013,-4.1837,-4.3004,-4.3004,-4.331,-4.3615,-4.3615,-4.3615,-4.3615,-5.2929,-5.2929,-5.2929,-5.2929,-5.2929,-5.2929,-5.2929,-5.2929,-5.2929,-5.2929,-5.2929,-5.2929,-5.2929,-5.2929,-5.2929,-5.2929,-5.2929,-5.2829,-5.2578,-5.0856,-4.9469,-4.87,-4.6289,-4.4264,-4.2726,-4.1345,-3.9749,-3.7819,-3.7136,-3.668,-3.6411,-3.5107,-3.4821,-3.5129,-3.3497,-3.2894,-3.3055,-3.1936,-3.1556,-3.1556,-3.1672,-3.1556,-3.1325,-3.1441,-3.1228,-3.0898,-3.0898,-3.0898,-3.0898,-3.0898,-3.1016,-3.1211,-3.1445,-3.1777,-3.2109,-3.2109,-3.2285,-3.2598,-3.2969,-3.3105,-3.3184,-3.3379,-3.3418,-3.3418,-3.3418,-3.3418,-3.3418,-3.3418,-3.3418,-3.3242,-3.2617,-3.2324,-3.1973,-3.1328,-3.1035,-3.0898,-3.0898,-3.0664,0.0,-3.0859,-3.084,-3.0898,-3.1152,-3.1133,-3.1113,-3.1172,0.0,0.0,-3.1172,-3.1992,-3.2246,-3.1777,-3.3027,-3.4121,-3.4961,-3.625,-3.7246,-3.8216,-3.8269,-3.8602,-3.9473,-3.9249,-3.923,-3.92,-3.9849,-4.0294,-4.0504,-4.1354,-4.2252,-4.3024,-4.3157,-4.3462,-4.3615,-4.3615,-4.3615,-4.3615,-5.2929,-5.2929,-5.2929,-5.2929,-5.2929,-5.2929,-5.2929,-5.2929,-5.2929,-5.2929,-5.2929,-5.2929,-5.2929,-5.2929,-5.2929,-5.2929,-5.2854,-5.2603,-5.2126,-5.0676,-4.9455,-4.8694,-4.6081,-4.4241,-4.357,-4.1006,-3.9166,-3.8465,-3.7348,-3.6763,-3.668,-3.556,-3.5129,-3.5293,-3.3841,-3.3315,-3.3432,-3.2362,-3.1903,-3.1903,-3.2133,-3.1903,-3.1441,-3.1787,-3.1441,-3.0995,-3.0995,-3.0937,-3.0996,-3.0996,-3.1269,-3.1621,-3.1699,-3.2207,-3.2812,-3.2871,-3.2637,-3.2519,-3.3223,-3.3164,-3.2969,-3.332,-3.3476,-3.3516,-3.3516,-3.3574,-3.3594,-3.3535,-3.3516,-3.3242,-3.2344,-3.2168,-3.1894,-3.1035,-3.0898,-3.0898,-3.0898,0.0,-3.0918,-3.0976,-3.1367,-3.1641,-3.1699,-3.2168,-3.2305,-3.1934,-3.1894,0.0,0.0,-3.2656,-3.3086,-3.3086,-3.3848,-3.4902,-3.6191,-3.7422,-3.8171,-3.8477,-3.8767,-3.916,-3.981,-3.9633,-3.9504,-3.9484,-4.0308,-4.0617,-4.0773,-4.1967,-4.2637,-4.3004,-4.3462,-4.3615,-4.3615,-4.3615,-4.3615,-4.3615,-5.2929,-5.2929,-5.2929,-5.2929,-5.2929,-5.2929,-5.2929,-5.2929,-5.2929,-5.2929,-5.2929,-5.2929,-5.2929,-5.2929,-5.2929,-5.2929,-5.2503,-5.2201,-5.2126,-5.093,-5.0199,-5.0024,-4.9158,-4.7613,-4.5562,-4.1943,-3.9779,-3.9346,-3.7676,-3.6597,-3.6204,-3.5541,-3.5231,-3.4838,-3.418,-3.3608,-3.2983,-3.2472,-3.2248,-3.2248,-3.2248,-3.2248,-3.2133,-3.2248,-3.1787,-3.1208,-3.1208,-3.1348,-3.1426,-3.1426,-3.1699,-3.2129,-3.248,-3.2695,-3.2871,-3.3223,-3.3281,-3.3262,-3.3379,-3.3379,-3.334,-3.3398,-3.3691,-3.3965,-3.3965,-3.4238,-3.4394,-3.4043,-3.3965,-3.3594,-3.2402,-3.2168,-3.1894,-3.1035,-3.0898,-3.0898,-3.0898,0.0,-3.1016,-3.1387,-3.1797,-3.2207,-3.2559,-3.332,-3.375,-3.3691,-3.3672,-3.3672,-3.3672,-3.4141,-3.4414,-3.4414,-3.4922,-3.5801,-3.709,-3.8008,-3.8476,-3.8622,-3.92,-3.975,-3.983,-4.0863,-4.1153,-4.0833,-4.1334,-4.1514,-4.1605,-4.2089,-4.2677,-4.3004,-4.3462,-4.3615,-4.3615,-4.3615,-4.3615,-4.3615,-5.2929,-5.2929,-5.2929,-5.2929,-5.2929,-5.2929,-5.2929,-5.2929,-5.2929,-5.2929,-5.2929,-5.2929,-5.2929,-5.2929,-5.2929,-5.2929,-5.2151,-5.1649,-5.1649,-5.087,-5.0293,-4.9992,-4.8639,-4.6771,-4.4384,-4.2609,-4.1226,-4.0464,-3.8738,-3.7655,-3.7061,-3.5997,-3.5314,-3.5086,-3.4652,-3.432,-3.3854,-3.3402,-3.3169,-3.2868,-3.3231,-3.2909,-3.2268,-3.2513,-3.2221,-3.1556,-3.1556,-3.1719,-3.1999,-3.1999,-3.2435,-3.303,-3.3105,-3.3355,-3.3769,-3.3838,-3.3769,-3.3769,-3.3769,-3.3945,-3.4101,-3.4101,-3.4258,-3.4414,-3.4414,-3.457,-3.4648,-3.4453,-3.4414,-3.4082,-3.3027,-3.2656,-3.2305,-3.168,-3.1191,0.0,0.0,-3.123,-3.1387,-3.1816,-3.2441,-3.3105,-3.375,-3.4414,-3.4785,-3.4785,-3.4551,-3.4512,-3.4766,-3.4961,-3.5293,-3.5742,-3.6191,-3.6816,-3.7637,-3.8262,-3.8837,-3.922,-3.9564,-4.0068,-4.0524,-4.1374,-4.1303,-4.0841,-4.1715,-4.1622,-4.1138,-4.1988,-4.2362,-4.239,-4.2851,-4.3157,-4.331,-4.331,-4.3462,-4.3615,-5.2929,-5.2929,-5.2929,-5.2929,-5.2929,-5.2929,-5.2929,-5.2929,-5.2929,-5.2929,-5.2929,-5.2929,-5.2929,-5.2929,-5.2929,-5.2929,-5.1925,-5.1272,-5.1272,-5.0619,-5.0042,-4.9615,-4.7863,-4.6054,-4.4068,-4.3555,-4.2742,-4.1963,-4.0095,-3.8985,-3.8376,-3.6694,-3.5827,-3.56,-3.5022,-3.4693,-3.4569,-3.4217,-3.3865,-3.3575,-3.3927,-3.354,-3.2711,-3.3059,-3.2743,-3.2206,-3.2206,-3.2509,-3.2773,-3.2773,-3.3276,-3.394,-3.3813,-3.4167,-3.4724,-3.4457,-3.4426,-3.4466,-3.4238,-3.4583,-3.4838,-3.4707,-3.4785,-3.4863,-3.4863,-3.4941,-3.498,-3.4883,-3.4863,-3.459,-3.373,-3.3223,-3.2773,-3.2246,0.0,0.0,0.0,-3.1601,-3.1875,-3.2402,-3.3301,-3.418,-3.4941,-3.5605,-3.5937,-3.584,-3.5586,-3.5566,-3.582,-3.5975,-3.6328,-3.7073,-3.7285,-3.7598,-3.791,-3.8359,-3.8935,-3.9662,-3.9909,-4.0514,-4.1118,-4.1807,-4.1715,-4.0991,-4.2229,-4.2035,-4.0991,-4.2229,-4.239,-4.2082,-4.239,-4.2851,-4.3157,-4.3004,-4.331,-4.3615,-5.2929,-5.2929,-5.2929,-5.2929,-5.2929,-5.2929,-5.2929,-5.2929,-5.2929,-5.2929,-5.2929,-5.2929,-5.2929,-5.2929,-5.2929,-5.2929,-5.1925,-5.1272,-5.1272,-5.0268,-4.964,-4.959,-4.8434,-4.7683,-4.7583,-4.5327,-4.3911,-4.3481,-4.1452,-4.0334,-3.9831,-3.8011,-3.6948,-3.6438,-3.536,-3.4527,-3.4113,-3.4072,-3.4051,-3.401,-3.4051,-3.4031,-3.3969,-3.401,-3.3752,-3.3493,-3.3493,-3.3538,-3.3679,-3.3679,-3.398,-3.4443,-3.4866,-3.5047,-3.504,-3.5201,-3.5468,-3.5554,-3.4897,-3.4949,-3.5119,-3.4838,-3.5019,-3.5351,-3.5351,-3.5644,-3.582,-3.543,-3.5351,-3.5078,-3.418,-3.3672,-3.3105,-3.2305,0.0,0.0,-3.1504,-3.1875,-3.2422,-3.3242,-3.4473,-3.543,-3.5879,-3.7031,-3.7578,-3.7187,-3.748,-3.7539,-3.7168,-3.7448,-3.7946,-3.8402,-3.8014,-3.7891,-3.793,-3.8359,-3.8789,-3.9199,-4.0504,-4.1113,-4.1118,-4.2759,-4.3096,-4.233,-4.3136,-4.2984,-4.233,-4.3136,-4.331,-4.2851,-4.3004,-4.3157,-4.3462,-4.3157,-4.331,-4.3615,-5.2929,-5.2929,-5.2929,-5.2929,-5.2929,-5.2929,-5.2929,-5.2929,-5.2929,-5.2929,-5.2929,-5.2929,-5.2929,-5.2929,-5.2929,-5.2929,-5.1925,-5.1272,-5.1272,-5.0218,-4.9289,-4.8586,-4.8134,-4.7606,-4.6928,-4.5991,-4.5105,-4.4215,-4.2784,-4.1519,-4.0692,-3.8335,-3.7199,-3.6927,-3.576,-3.5066,-3.49,-3.49,-3.4755,-3.4527,-3.4797,-3.4569,-3.4093,-3.4383,-3.432,-3.3953,-3.3953,-3.4122,-3.439,-3.439,-3.4862,-3.5496,-3.5428,-3.5726,-3.6253,-3.6323,-3.6696,-3.6777,-3.635,-3.631,-3.631,-3.6176,-3.6296,-3.6435,-3.6435,-3.642,-3.6307,-3.6425,-3.6328,-3.5996,-3.5391,-3.4941,-3.4355,-3.3496,0.0,-3.2819,-3.2962,-3.3426,-3.4093,-3.4811,-3.5681,-3.6445,-3.7129,-3.7637,-3.8086,-3.8457,-3.8144,-3.8203,-3.8867,-3.909,-3.9011,-3.8877,-3.9037,-3.8754,-3.832,-3.875,-3.918,-3.9648,-4.0943,-4.1534,-4.1535,-4.2922,-4.3157,-4.237,-4.3289,-4.3157,-4.237,-4.3004,-4.3004,-4.2697,-4.2697,-4.2851,-4.3157,-4.3004,-4.331,-4.3615,-5.2929,-5.2929,-5.2929,-5.2929,-5.2929,-5.2929,-5.2929,-5.2929,-5.2929,-5.2929,-5.2929,-5.2929,-5.2929,-5.2929,-5.2929,-5.2929,-5.1925,-5.1272,-5.1272,-5.0067,-4.9063,-4.846,-4.8083,-4.7556,-4.6828,-4.6476,-4.5924,-4.5146,-4.4146,-4.3301,-4.2452,-4.0101,-3.8747,-3.8132,-3.6817,-3.616,-3.6013,-3.5541,-3.5477,-3.557,-3.5417,-3.5045,-3.4527,-3.4838,-3.4776,-3.4486,-3.4486,-3.4797,-3.519,-3.519,-3.5687,-3.6349,-3.6239,-3.6684,-3.7208,-3.74,-3.7482,-3.7616,-3.7482,-3.7583,-3.757,-3.7415,-3.7179,-3.7159,-3.7441,-3.7245,-3.6992,-3.747,-3.7431,-3.7154,-3.6426,-3.5995,-3.5426,-3.4414,-3.4023,-3.3956,-3.4211,-3.4701,-3.5407,-3.6127,-3.6661,-3.7285,-3.7871,-3.8164,-3.8574,-3.916,-3.8789,-3.8867,-3.9798,-3.9959,-3.9949,-3.9643,-3.9778,-3.9699,-3.9425,-3.9564,-3.979,-4.0249,-4.1263,-4.1795,-4.2082,-4.3004,-4.3157,-4.2677,-4.331,-4.3157,-4.2697,-4.3004,-4.3004,-4.283,-4.2677,-4.2851,-4.3157,-4.3004,-4.331,-4.3615,-5.2929,-5.2929,-5.2929,-5.2929,-5.2929,-5.2929,-5.2929,-5.2929,-5.2929,-5.2929,-5.2929,-5.2929,-5.2929,-5.2929,-5.2929,-5.2904,-5.19,-5.1272,-5.1272,-4.969,-4.9012,-4.9565,-4.851,-4.7908,-4.7908,-4.6853,-4.6301,-4.6301,-4.5748,-4.5472,-4.5472,-4.3692,-4.1804,-3.9974,-3.8764,-3.7889,-3.7188,-3.6013,-3.6135,-3.7188,-3.589,-3.5418,-3.5418,-3.5418,-3.5418,-3.5418,-3.5418,-3.5728,-3.6121,-3.6121,-3.6432,-3.6887,-3.7363,-3.7534,-3.7636,-3.8058,-3.7904,-3.777,-3.8058,-3.8523,-3.8582,-3.8037,-3.7421,-3.732,-3.8364,-3.8223,-3.7883,-3.8465,-3.8566,-3.8286,-3.741,-3.6836,-3.6127,-3.4995,-3.4726,-3.4726,-3.4726,-3.5488,-3.6211,-3.6641,-3.7422,-3.7949,-3.7949,-3.8711,-3.9199,-3.9199,-3.9648,-3.9857,-3.985,-4.0246,-4.0415,-4.0418,-4.0544,-4.0764,-4.1062,-4.062,-4.0692,-4.1118,-4.1554,-4.1947,-4.237,-4.2851,-4.3004,-4.3004,-4.3462,-4.331,-4.3024,-4.3462,-4.3615,-4.3615,-4.3157,-4.331,-4.3615,-4.3157,-4.331,-4.3615,-5.2929,-5.2929,-5.2929,-5.2929,-5.2929,-5.2929,-5.2929,-5.2929,-5.2929,-5.2929,-5.2929,-5.2779,-5.2402,-5.2352,-5.2201,-5.18,-5.1096,-5.0519,-5.0117,-4.9264,-4.8837,-4.9012,-4.7958,-4.7179,-4.6803,-4.6476,-4.6125,-4.5723,-4.5573,-4.507,-4.4292,-4.2818,-4.1729,-4.0737,-3.9446,-3.8761,-3.8648,-3.8649,-3.81,-3.733,-3.7335,-3.6555,-3.5418,-3.5418,-3.5418,-3.5459,-3.579,-3.5997,-3.6163,-3.6494,-3.6908,-3.7363,-3.7839,-3.814,-3.8512,-3.8647,-3.8512,-3.8574,-3.904,-3.8999,-3.8718,-3.8582,-3.8569,-3.8932,-3.9199,-3.8881,-3.8763,-3.921,-3.901,-3.8688,-3.8145,-3.8006,-3.7391,-3.582,-3.6133,-3.6563,-3.6386,-3.723,-3.8112,-3.8853,-3.9112,-3.9316,-3.9316,-3.983,-4.0255,-4.0551,-4.1271,-4.1363,-4.0753,-4.1433,-4.1615,-4.1304,-4.159,-4.1963,-4.2444,-4.1394,-4.1143,-4.1554,-4.2028,-4.2402,-4.2851,-4.3004,-4.3157,-4.3462,-4.3615,-4.3462,-4.3462,-4.3615,-4.3615,-4.3615,-4.3462,-4.3462,-4.3615,-4.3462,-4.3462,-4.3615,-5.2929,-5.2929,-5.2929,-5.2929,-5.2929,-5.2929,-5.2929,-5.2929,-5.2929,-5.2929,-5.2929,-5.2729,-5.2176,-5.2101,-5.1875,-5.1322,-5.0745,-5.0193,-4.964,-4.8862,-4.8435,-4.8435,-4.738,-4.6753,-4.6652,-4.6426,-4.615,-4.5824,-4.5824,-4.5472,-4.4794,-4.3844,-4.2725,-4.1725,-4.0669,-4.0106,-3.9943,-3.9775,-3.9373,-3.8744,-3.81,-3.7227,-3.6156,-3.5749,-3.5707,-3.5749,-3.6225,-3.6494,-3.6701,-3.697,-3.7384,-3.7819,-3.8088,-3.8502,-3.8854,-3.8854,-3.8978,-3.9185,-3.9454,-3.9475,-3.9392,-3.9392,-3.9475,-3.964,-3.9992,-3.9791,-3.9651,-4.0103,-3.9902,-3.9698,-3.9111,-3.8948,-3.8487,-3.7233,-3.7667,-3.8283,-3.8026,-3.8813,-3.9475,-3.9751,-3.972,-3.9687,-4.0164,-4.0334,-4.0873,-4.1622,-4.2076,-4.2068,-4.1344,-4.22,-4.2363,-4.2029,-4.2399,-4.2755,-4.3157,-4.2281,-4.1988,-4.2292,-4.2556,-4.2697,-4.3004,-4.3004,-4.3157,-4.3615,-4.3615,-4.3615,-4.3615,-4.3615,-4.3615,-4.3615,-4.3615,-4.3615,-4.3615,-4.3615,-4.3615,-4.3615,-5.2929,-5.2929,-5.2929,-5.2929,-5.2929,-5.2929,-5.2929,-5.2929,-5.2929,-5.2929,-5.2879,-5.2653,-5.2101,-5.1975,-5.1724,-5.1172,-5.0645,-5.0117,-4.9565,-4.851,-4.7883,-4.7832,-4.6853,-4.6552,-4.7054,-4.6577,-4.6301,-4.6301,-4.6301,-4.6276,-4.6225,-4.5723,-4.4556,-4.2853,-4.2393,-4.1885,-4.1215,-4.013,-4.027,-4.0942,-3.8716,-3.7659,-3.7362,-3.6602,-3.6289,-3.6225,-3.6701,-3.7136,-3.7508,-3.755,-3.7839,-3.8191,-3.8233,-3.8543,-3.8916,-3.8957,-3.9268,-3.9599,-3.964,-3.993,-4.0241,-4.0282,-3.9972,-3.9868,-4.0696,-4.0572,-4.0406,-4.0841,-4.0903,-4.0636,-3.9982,-3.9738,-3.9434,-3.8748,-3.9251,-3.967,-3.944,-4.0156,-4.0543,-4.0151,-3.9778,-3.968,-4.0543,-4.0583,-4.1223,-4.2463,-4.2524,-4.2322,-4.1877,-4.2566,-4.2759,-4.2522,-4.2739,-4.3116,-4.3615,-4.331,-4.3004,-4.3004,-4.3024,-4.3024,-4.3004,-4.3024,-4.3157,-4.3615,-4.3615,-4.3615,-4.3615,-4.3615,-4.3615,-4.3615,-4.3615,-4.3615,-4.3615,-4.3615,-4.3615,-4.3615,-5.2929,-5.2929,-5.2929,-5.2929,-5.2929,-5.2929,-5.2929,-5.2929,-5.2929,-5.2929,-5.2553,-5.2076,-5.1523,-5.1046,-5.0569,-5.0017,-4.9841,-4.954,-4.8987,-4.8284,-4.7732,-4.733,-4.6677,-4.6376,-4.6476,-4.6376,-4.6301,-4.6301,-4.6301,-4.61,-4.5673,-4.5547,-4.4828,-4.3647,-4.3946,-4.3522,-4.2675,-4.3177,-4.2812,-4.1749,-4.1686,-4.0387,-3.8444,-3.8304,-3.7509,-3.6722,-3.7177,-3.7405,-3.755,-3.7922,-3.8109,-3.8253,-3.8585,-3.9019,-3.9454,-3.9827,-4.0013,-4.0158,-4.0489,-4.0406,-4.0323,-4.0655,-4.0655,-4.0634,-4.082,-4.08,-4.0862,-4.1317,-4.1131,-4.0822,-4.0801,-4.0412,-4.0004,-3.9616,-3.9895,-4.0358,-4.072,-4.1073,-4.1534,-4.1742,-4.1549,-4.1376,-4.1475,-4.1782,-4.2322,-4.3289,-4.331,-4.3104,-4.2631,-4.2864,-4.2885,-4.2782,-4.2864,-4.3091,-4.3615,-4.3462,-4.3462,-4.3462,-4.3157,-4.3157,-4.3462,-4.3157,-4.3157,-4.3615,-4.3615,-4.3615,-4.3615,-4.3615,-4.3615,-4.3615,-4.3615,-4.3615,-4.3615,-4.3615,-4.3615,-4.3615,-5.2879,-5.2703,-5.2628,-5.2879,-5.2929,-5.2829,-5.2578,-5.2528,-5.2452,-5.2176,-5.19,-5.1498,-5.0921,-5.0594,-5.0193,-4.964,-4.9364,-4.9088,-4.8786,-4.8008,-4.7405,-4.7154,-4.6602,-4.6301,-4.6301,-4.6301,-4.6301,-4.6301,-4.6301,-4.6175,-4.5874,-4.5623,-4.5171,-4.4618,-4.4618,-4.4292,-4.379,-4.4367,-4.4095,-4.3124,-4.2947,-4.1969,-4.0632,-4.0242,-3.9204,-3.8188,-3.8657,-3.8324,-3.7902,-3.8357,-3.8502,-3.8585,-3.904,-3.9495,-3.9909,-4.0158,-4.0386,-4.0593,-4.082,-4.0717,-4.0593,-4.082,-4.1048,-4.1151,-4.0924,-4.1048,-4.1276,-4.1524,-4.1545,-4.1545,-4.1275,-4.1275,-4.1172,-4.0657,-4.1187,-4.1549,-4.1644,-4.2069,-4.2261,-4.235,-4.2035,-4.1915,-4.2088,-4.2576,-4.3136,-4.3615,-4.3615,-4.3511,-4.3263,-4.3035,-4.3014,-4.3242,-4.3035,-4.3139,-4.3615,-4.3615,-4.3615,-4.3615,-4.3462,-4.3462,-4.3615,-4.331,-4.3462,-4.3615,-4.3615,-4.3615,-4.3615,-4.3615,-4.3615,-4.3615,-4.3615,-4.3615,-4.3615,-4.3615,-4.3615,-4.3615,-5.2829,-5.2553,-5.2402,-5.2854,-5.2854,-5.2628,-5.2176,-5.2026,-5.18,-5.1348,-5.1197,-5.0946,-5.0469,-5.0343,-5.0092,-4.964,-4.9163,-4.8862,-4.8786,-4.7933,-4.7355,-4.728,-4.6828,-4.6577,-4.6577,-4.6502,-4.6401,-4.6301,-4.6301,-4.6301,-4.6301,-4.5849,-4.5573,-4.5472,-4.5095,-4.4794,-4.4644,-4.4719,-4.4769,-4.4653,-4.3688,-4.3143,-4.3024,-4.2286,-4.108,-4.003,-4.0278,-3.9491,-3.8481,-3.8833,-3.8957,-3.904,-3.9516,-3.993,-4.0241,-4.0323,-4.0593,-4.0903,-4.0965,-4.0986,-4.0986,-4.0986,-4.1338,-4.1565,-4.111,-4.1358,-4.171,-4.1793,-4.2042,-4.2166,-4.1855,-4.2042,-4.2166,-4.1835,-4.2435,-4.2802,-4.2583,-4.2932,-4.3004,-4.2677,-4.2201,-4.213,-4.2473,-4.3104,-4.3462,-4.3615,-4.3615,-4.3573,-4.3491,-4.3056,-4.3014,-4.3491,-4.3056,-4.3077,-4.3594,-4.3615,-4.3615,-4.3615,-4.3698,-4.3698,-4.3615,-4.3698,-4.3698,-4.3615,-4.3615,-4.3615,-4.3615,-4.3615,-4.3615,-4.3615,-4.3615,-4.3615,-4.3615,-4.3615,-4.3615,-4.3615,-5.2904,-5.2879,-5.2829,-5.2904,-5.2528,-5.2176,-5.2126,-5.1699,-5.1373,-5.1297,-5.0845,-5.0494,-5.0419,-4.9992,-4.9665,-4.9615,-4.9515,-4.9289,-4.8812,-4.8636,-4.8335,-4.7832,-4.7732,-4.7682,-4.7682,-4.7255,-4.6778,-4.6301,-4.6301,-4.6301,-4.6301,-4.6225,-4.5949,-4.5497,-4.5899,-4.5547,-4.4644,-4.5171,-4.5372,-4.5372,-4.5254,-4.4762,-4.4034,-4.3983,-4.2989,-4.1797,-4.1022,-4.0195,-3.9371,-3.9433,-3.9454,-3.9537,-3.9992,-4.0179,-4.0303,-4.0675,-4.082,-4.0965,-4.1358,-4.1483,-4.1483,-4.1483,-4.1814,-4.2042,-4.1586,-4.1835,-4.2269,-4.2663,-4.2476,-4.2352,-4.2683,-4.2476,-4.2373,-4.2683,-4.2849,-4.3056,-4.3318,-4.3421,-4.3462,-4.3462,-4.3096,-4.2922,-4.2922,-4.2984,-4.3157,-4.3615,-4.3615,-4.3428,-4.3035,-4.258,-4.2559,-4.2994,-4.258,-4.2745,-4.3594,-4.3615,-4.3615,-4.3615,-4.4029,-4.4008,-4.3615,-4.4029,-4.3987,-4.3615,-4.3615,-4.3615,-4.3615,-4.3615,-4.3615,-4.3615,-4.3615,-4.3615,-4.3615,-4.3615,-4.3615,-4.3615,-5.2879,-5.2678,-5.2578,-5.2879,-5.2477,-5.2,-5.1699,-5.1172,-5.0695,-5.0368,-5.0117,-4.9967,-4.9967,-4.9741,-4.959,-4.959,-4.9314,-4.9038,-4.8786,-4.846,-4.8184,-4.7908,-4.7908,-4.7908,-4.7908,-4.7405,-4.7154,-4.7205,-4.6602,-4.6301,-4.6301,-4.6301,-4.6175,-4.5949,-4.62,-4.6024,-4.5598,-4.5824,-4.5949,-4.5949,-4.5949,-4.5714,-4.5403,-4.5403,-4.4691,-4.3726,-4.2844,-4.1727,-4.0771,-4.1028,-4.0583,-3.9972,-4.0448,-4.0758,-4.1007,-4.1214,-4.1441,-4.169,-4.1897,-4.1959,-4.1959,-4.1959,-4.229,-4.258,-4.2373,-4.2683,-4.2994,-4.2932,-4.2973,-4.2994,-4.2932,-4.2973,-4.2994,-4.2932,-4.3139,-4.3387,-4.3573,-4.3615,-4.3615,-4.3615,-4.3462,-4.331,-4.331,-4.331,-4.3462,-4.3615,-4.3615,-4.3532,-4.3325,-4.287,-4.2828,-4.3284,-4.287,-4.2952,-4.3594,-4.3615,-4.3615,-4.3615,-4.4339,-4.4443,-4.4008,-4.4484,-4.4588,-4.4381,-4.4112,-4.3987,-4.3967,-4.3718,-4.3615,-4.3615,-4.3615,-4.3615,-4.3615,-4.3615,-4.3615,-4.3615]},{"header":{"parameterUnit":"m.s-1","parameterCategory":1,"la1":30.6,"la2":28.766,"lo1":-90.7593,"lo2":-88.6598,"dy":0.0162,"dx":0.0183,"nx":116,"ny":114,"refTime":"2023-06-18T00:00:00:Z","depth":0,"parameterNumber":3,"parameterNumberName":"V-component_of_WINDS"},"data":[0.0,0.0,0.0,0.0,0.0,0.0,0.0,0.0,0.0,0.0,0.0,0.0,0.0,0.0,0.0,0.0,0.0,0.0,0.0,0.0,0.0,0.0,0.0,0.0,0.0,0.0,0.0,0.0,0.0,0.0,0.0,0.0,0.0,0.0,0.0,0.0,0.0,0.0,0.0,0.0,0.0,0.0,0.0,0.0,0.0,0.0,0.0,0.0,0.0,0.0,0.0,0.0,0.0,0.0,0.0,0.0,0.0,0.0,0.0,0.0,0.0,0.0,0.0,0.0,0.0,0.0,0.0,0.0,0.0,0.0,0.0,0.0,0.0,0.0,0.0,0.0,0.0,0.0,0.0,0.0,0.0,0.0,0.0,0.0,0.0,0.0,0.0,0.0,0.0,0.0,0.0,0.0,0.0,0.0,0.0,0.0,0.0,0.0,0.0,0.0,0.0,0.0,0.0,0.0,0.0,0.0,0.0,0.0,0.0,0.0,0.0,0.0,0.0,0.0,0.0,0.0,0.0,0.0,0.0,0.0,0.0,0.0,0.0,0.0,0.0,0.0,0.0,0.0,0.0,0.0,0.0,0.0,0.0,0.0,0.0,0.0,0.0,0.0,0.0,0.0,0.0,0.0,0.0,0.0,0.0,0.0,0.0,0.0,0.0,0.0,0.0,0.0,0.0,0.0,0.0,0.0,0.0,0.0,0.0,0.0,0.0,0.0,0.0,0.0,0.0,0.0,0.0,0.0,0.0,0.0,0.0,0.0,0.0,0.0,0.0,0.0,0.0,0.0,0.0,0.0,0.0,0.0,0.0,0.0,0.0,0.0,0.0,0.0,0.0,0.0,0.0,0.0,0.0,0.0,0.0,0.0,0.0,0.0,0.0,0.0,0.0,0.0,0.0,0.0,0.0,0.0,0.0,0.0,0.0,0.0,0.0,0.0,0.0,0.0,0.0,0.0,0.0,0.0,0.0,0.0,0.0,0.0,0.0,0.0,0.0,0.0,0.0,0.0,0.0,0.0,0.0,0.0,0.0,0.0,0.0,0.0,0.0,0.0,0.0,0.0,0.0,0.0,0.0,0.0,0.0,0.0,0.0,0.0,0.0,0.0,0.0,0.0,0.0,0.0,0.0,0.0,0.0,0.0,0.0,0.0,0.0,0.0,0.0,0.0,0.0,0.0,0.0,0.0,0.0,0.0,0.0,0.0,0.0,0.0,0.0,0.0,0.0,0.0,0.0,0.0,0.0,0.0,0.0,0.0,0.0,0.0,0.0,0.0,0.0,0.0,0.0,0.0,0.0,0.0,0.0,0.0,0.0,0.0,0.0,0.0,0.0,0.0,0.0,0.0,0.0,0.0,0.0,0.0,0.0,0.0,0.0,0.0,0.0,0.0,0.0,0.0,0.0,0.0,0.0,0.0,0.0,0.0,0.0,0.0,0.0,0.0,0.0,0.0,0.0,0.0,0.0,0.0,0.0,0.0,0.0,0.0,0.0,0.0,0.0,0.0,0.0,0.0,0.0,0.0,0.0,0.0,0.0,0.0,0.0,0.0,0.0,0.0,0.0,0.0,0.0,0.0,0.0,0.0,0.0,0.0,0.0,0.0,0.0,0.0,0.0,0.0,0.0,0.0,0.0,0.0,0.0,0.0,0.0,0.0,0.0,0.0,0.0,0.0,0.0,0.0,0.0,0.0,0.0,0.0,0.0,0.0,0.0,0.0,0.0,0.0,0.0,0.0,0.0,0.0,0.0,0.0,0.0,0.0,0.0,0.0,0.0,0.0,0.0,0.0,0.0,0.0,0.0,0.0,0.0,0.0,0.0,0.0,0.0,0.0,0.0,0.0,0.0,0.0,0.0,0.0,0.0,0.0,0.0,0.0,0.0,0.0,0.0,0.0,0.0,0.0,0.0,0.0,0.0,0.0,0.0,0.0,0.0,0.0,0.0,0.0,0.0,0.0,0.0,0.0,0.0,0.0,0.0,0.0,0.0,0.0,0.0,0.0,0.0,0.0,0.0,0.0,0.0,0.0,0.0,0.0,0.0,0.0,0.0,0.0,0.0,0.0,0.0,0.0,0.0,0.0,0.0,0.0,0.0,0.0,0.0,0.0,0.0,0.0,0.0,0.0,0.0,0.0,0.0,0.0,0.0,0.0,0.0,0.0,0.0,0.0,0.0,0.0,0.0,0.0,0.0,0.0,0.0,0.0,0.0,0.0,0.0,0.0,0.0,0.0,0.0,0.0,0.0,0.0,0.0,0.0,0.0,0.0,0.0,0.0,0.0,0.0,0.0,0.0,0.0,0.0,0.0,0.0,0.0,0.0,0.0,0.0,0.0,0.0,0.0,0.0,0.0,0.0,0.0,0.0,0.0,0.0,0.0,0.0,0.0,0.0,0.0,0.0,0.0,0.0,0.0,0.0,0.0,0.0,0.0,0.0,0.0,0.0,0.0,0.0,0.0,0.0,0.0,0.0,0.0,0.0,0.0,0.0,0.0,0.0,0.0,0.0,0.0,0.0,0.0,0.0,0.0,0.0,0.0,0.0,0.0,0.0,0.0,0.0,0.0,0.0,0.0,0.0,0.0,0.0,0.0,0.0,0.0,0.0,0.0,0.0,0.0,0.0,0.0,0.0,0.0,0.0,0.0,0.0,0.0,0.0,0.0,0.0,0.0,0.0,0.0,0.0,0.0,0.0,0.0,0.0,0.0,0.0,0.0,0.0,0.0,0.0,0.0,0.0,0.0,0.0,0.0,0.0,0.0,0.0,0.0,0.0,0.0,0.0,0.0,0.0,0.0,0.0,0.0,0.0,0.0,0.0,0.0,0.0,0.0,0.0,0.0,0.0,0.0,0.0,0.0,0.0,0.0,0.0,0.0,0.0,0.0,0.0,0.0,0.0,0.0,0.0,0.0,0.0,0.0,0.0,0.0,0.0,0.0,0.0,0.0,0.0,0.0,0.0,0.0,0.0,0.0,0.0,0.0,0.0,0.0,0.0,0.0,0.0,0.0,0.0,0.0,0.0,0.0,0.0,0.0,0.0,0.0,0.0,0.0,0.0,0.0,0.0,0.0,0.0,0.0,0.0,0.0,0.0,0.0,0.0,0.0,0.0,0.0,0.0,0.0,0.0,0.0,0.0,0.0,0.0,0.0,0.0,0.0,0.0,0.0,0.0,0.0,0.0,0.0,0.0,0.0,0.0,0.0,0.0,0.0,0.0,0.0,0.0,0.0,0.0,0.0,0.0,0.0,0.0,0.0,0.0,0.0,0.0,0.0,0.0,0.0,0.0,0.0,0.0,0.0,0.0,0.0,0.0,0.0,0.0,0.0,0.0,0.0,0.0,0.0,0.0,0.0,0.0,0.0,0.0,0.0,0.0,0.0,0.0,0.0,0.0,0.0,0.0,0.0,0.0,0.0,0.0,0.0,0.0,0.0,0.0,0.0,0.0,0.0,0.0,0.0,0.0,0.0,0.0,0.0,0.0,0.0,0.0,0.0,0.0,0.0,0.0,0.0,0.0,0.0,0.0,0.0,0.0,0.0,0.0,0.0,0.0,0.0,0.0,0.0,0.0,0.0,0.0,0.0,0.0,0.0,0.0,0.0,0.0,0.0,0.0,0.0,0.0,0.0,0.0,0.0,0.0,0.0,0.0,0.0,0.0,0.0,0.0,0.0,0.0,0.0,0.0,0.0,0.0,0.0,0.0,0.0,0.0,0.0,0.0,0.0,0.0,0.0,0.0,0.0,0.0,0.0,0.0,0.0,0.0,0.0,0.0,0.0,0.0,0.0,0.0,0.0,0.0,0.0,0.0,0.0,0.0,0.0,0.0,0.0,0.0,0.0,0.0,0.0,0.0,0.0,0.0,0.0,0.0,0.0,0.0,0.0,0.0,0.0,0.0,0.0,0.0,0.0,0.0,0.0,0.0,0.0,0.0,0.0,0.0,0.0,0.0,0.0,0.0,0.0,0.0,0.0,0.0,0.0,0.0,0.0,0.0,0.0,0.0,0.0,0.0,0.0,0.0,0.0,0.0,0.0,0.0,0.0,0.0,0.0,0.0,0.0,0.0,0.0,0.0,0.0,0.0,0.0,0.0,0.0,0.0,0.0,0.0,0.0,0.0,0.0,0.0,0.0,0.0,0.0,0.0,0.0,0.0,0.0,0.0,0.0,0.0,0.0,0.0,0.0,0.0,0.0,0.0,0.0,0.0,0.0,0.0,0.0,0.0,0.0,0.0,0.0,0.0,0.0,0.0,0.0,0.0,0.0,0.0,0.0,0.0,0.0,0.0,0.0,0.0,0.0,0.0,0.0,0.0,0.0,0.0,0.0,0.0,0.0,0.0,0.0,0.0,0.0,0.0,0.0,0.0,0.0,0.0,0.0,0.0,0.0,0.0,0.0,0.0,0.0,0.0,0.0,0.0,0.0,0.0,0.0,0.0,0.0,0.0,0.0,0.0,0.0,0.0,0.0,0.0,0.0,0.0,0.0,0.0,0.0,0.0,0.0,0.0,0.0,0.0,0.0,0.0,0.0,0.0,0.0,0.0,0.0,0.0,0.0,0.0,0.0,0.0,0.0,0.0,0.0,0.0,0.0,0.0,0.0,0.0,0.0,0.0,0.0,0.0,0.0,0.0,0.0,0.0,0.0,0.0,0.0,0.0,0.0,0.0,0.0,0.0,0.0,0.0,0.0,0.0,0.0,0.0,0.0,0.0,0.0,0.0,0.0,0.0,0.0,0.0,0.0,0.0,0.0,0.0,0.0,0.0,0.0,0.0,0.0,0.0,0.0,0.0,0.0,0.0,0.0,0.0,0.0,0.0,0.0,0.0,0.0,0.0,0.0,0.0,0.0,0.0,0.0,0.0,0.0,0.0,0.0,0.0,0.0,0.0,0.0,0.0,0.0,0.0,0.0,0.0,0.0,0.0,0.0,0.0,0.0,0.0,0.0,0.0,0.0,0.0,0.0,0.0,0.0,0.0,0.0,0.0,0.0,0.0,0.0,0.0,0.0,0.0,0.0,0.0,0.0,0.0,0.0,0.0,0.0,0.0,0.0,0.0,0.0,0.0,0.0,0.0,0.0,0.0,0.0,0.0,0.0,0.0,0.0,0.0,0.0,0.0,0.0,0.0,0.0,0.0,0.0,0.0,0.0,0.0,0.0,0.0,0.0,0.0,0.0,0.0,0.0,0.0,0.0,0.0,0.0,0.0,0.0,0.0,0.0,0.0,0.0,0.0,0.0,0.0,0.0,0.0,0.0,0.0,0.0,0.0,0.0,0.0,0.0,0.0,0.0,0.0,0.0,0.0,0.0,0.0,0.0,0.0,0.0,0.0,0.0,0.0,0.0,0.0,0.0,0.0,0.0,0.0,0.0,0.0,0.0,0.0,0.0,0.0,0.0,0.0,0.0,0.0,0.0,0.0,0.0,0.0,0.0,0.0,0.0,0.0,0.0,0.0,0.0,0.0,0.0,0.0,0.0,0.0,0.0,0.0,0.0,0.0,0.0,0.0,0.0,0.0,0.0,0.0,0.0,0.0,0.0,0.0,0.0,0.0,0.0,0.0,0.0,0.0,0.0,0.0,0.0,0.0,0.0,0.0,0.0,0.0,0.0,0.0,0.0,0.0,0.0,0.0,0.0,0.0,0.0,0.0,0.0,0.0,0.0,0.0,0.0,0.0,0.0,0.0,0.0,0.0,0.0,0.0,0.0,0.0,0.0,0.0,0.0,0.0,0.0,0.0,0.0,0.0,0.0,0.0,0.0,0.0,0.0,0.0,0.0,0.0,0.0,0.0,0.0,0.0,0.0,0.0,0.0,0.0,0.0,0.0,0.0,0.0,0.0,0.0,0.0,0.0,0.0,0.0,0.0,0.0,0.0,0.0,0.0,0.0,0.0,0.0,0.0,0.0,0.0,0.0,0.0,0.0,0.0,0.0,0.0,0.0,0.0,0.0,0.0,0.0,0.0,0.0,0.0,0.0,0.0,0.0,0.0,0.0,0.0,0.0,0.0,0.0,0.0,0.0,0.0,0.0,0.0,0.0,0.0,0.0,0.0,0.0,0.0,0.0,0.0,0.0,0.0,0.0,0.0,0.0,0.0,0.0,0.0,0.0,-4.0447,0.0,0.0,0.0,0.0,0.0,0.0,0.0,0.0,0.0,0.0,0.0,0.0,0.0,0.0,0.0,0.0,0.0,0.0,0.0,0.0,0.0,0.0,0.0,0.0,0.0,0.0,0.0,0.0,0.0,0.0,0.0,0.0,0.0,0.0,0.0,0.0,0.0,0.0,0.0,0.0,0.0,0.0,0.0,0.0,0.0,0.0,0.0,0.0,0.0,0.0,0.0,0.0,0.0,0.0,0.0,0.0,0.0,0.0,0.0,0.0,0.0,0.0,0.0,0.0,0.0,0.0,0.0,0.0,0.0,0.0,0.0,0.0,0.0,0.0,0.0,0.0,0.0,0.0,0.0,0.0,0.0,0.0,0.0,0.0,0.0,0.0,0.0,0.0,0.0,0.0,0.0,0.0,0.0,0.0,0.0,0.0,0.0,0.0,0.0,0.0,0.0,0.0,0.0,0.0,0.0,0.0,0.0,0.0,0.0,0.0,0.0,0.0,0.0,0.0,0.0,0.0,-4.2951,0.0,0.0,0.0,0.0,0.0,0.0,0.0,0.0,0.0,0.0,0.0,0.0,0.0,0.0,0.0,0.0,0.0,0.0,0.0,0.0,0.0,0.0,0.0,0.0,0.0,0.0,0.0,0.0,0.0,0.0,0.0,0.0,0.0,0.0,0.0,0.0,0.0,0.0,0.0,0.0,0.0,0.0,0.0,0.0,0.0,0.0,0.0,0.0,0.0,0.0,0.0,0.0,0.0,0.0,0.0,0.0,0.0,0.0,0.0,0.0,0.0,0.0,0.0,0.0,0.0,0.0,0.0,0.0,0.0,0.0,0.0,0.0,0.0,0.0,0.0,0.0,0.0,0.0,0.0,0.0,0.0,0.0,0.0,0.0,0.0,0.0,0.0,0.0,0.0,0.0,0.0,0.0,0.0,0.0,0.0,0.0,0.0,0.0,0.0,0.0,0.0,0.0,0.0,0.0,0.0,0.0,0.0,0.0,0.0,0.0,-5.2094,-5.1281,-5.1673,-5.2753,-4.7998,-4.5656,-4.5176,0.0,0.0,0.0,0.0,0.0,0.0,0.0,0.0,0.0,0.0,0.0,0.0,0.0,0.0,0.0,0.0,0.0,0.0,0.0,0.0,0.0,0.0,0.0,0.0,0.0,0.0,0.0,0.0,0.0,0.0,0.0,0.0,0.0,0.0,0.0,0.0,0.0,0.0,0.0,-4.4895,-4.5775,-4.611,-4.5816,-4.5075,0.0,0.0,0.0,0.0,0.0,0.0,0.0,0.0,0.0,0.0,0.0,0.0,0.0,0.0,0.0,0.0,0.0,0.0,0.0,0.0,0.0,0.0,0.0,0.0,0.0,0.0,0.0,0.0,0.0,0.0,0.0,0.0,0.0,0.0,0.0,0.0,0.0,0.0,0.0,0.0,0.0,0.0,0.0,-4.031,-4.031,0.0,0.0,0.0,0.0,0.0,0.0,0.0,0.0,0.0,0.0,0.0,0.0,0.0,0.0,-5.1701,-5.1648,-5.2119,-5.3057,-5.3148,-5.3682,-5.4628,-5.4514,-5.4552,-5.478,-5.462,0.0,-5.0182,-4.9614,0.0,0.0,0.0,0.0,0.0,0.0,0.0,0.0,0.0,0.0,0.0,0.0,0.0,0.0,0.0,0.0,0.0,0.0,0.0,0.0,0.0,0.0,0.0,0.0,0.0,0.0,0.0,0.0,0.0,0.0,0.0,0.0,0.0,0.0,0.0,0.0,-4.3924,-4.5771,-4.7289,-4.8348,-4.9435,-5.052,-4.9334,-4.8252,-4.7166,-4.5375,0.0,0.0,0.0,0.0,0.0,0.0,0.0,0.0,0.0,0.0,0.0,0.0,0.0,0.0,0.0,0.0,0.0,0.0,0.0,0.0,0.0,0.0,0.0,0.0,0.0,0.0,0.0,0.0,0.0,0.0,0.0,0.0,0.0,0.0,0.0,0.0,0.0,0.0,0.0,-4.1533,-4.2201,-4.1723,-4.2772,-4.315,0.0,0.0,0.0,0.0,0.0,0.0,0.0,0.0,0.0,-5.2526,-5.334,-5.4573,-5.6278,-5.6186,-5.7073,-5.8901,-5.8872,-5.949,-6.0715,-6.0653,-6.0653,-6.0659,-6.0974,-5.9463,-5.655,-5.3821,-5.1964,-5.0751,0.0,0.0,0.0,0.0,0.0,0.0,0.0,0.0,0.0,0.0,0.0,0.0,0.0,0.0,0.0,0.0,0.0,0.0,0.0,0.0,0.0,0.0,0.0,0.0,0.0,0.0,0.0,0.0,0.0,0.0,0.0,0.0,0.0,0.0,-4.7006,-4.9039,-5.0452,-5.1529,-5.2821,-5.4219,-5.32,-5.1376,-4.8969,-4.7191,-4.6201,0.0,0.0,0.0,0.0,0.0,0.0,0.0,0.0,0.0,0.0,0.0,0.0,0.0,0.0,0.0,0.0,0.0,0.0,0.0,0.0,0.0,0.0,0.0,0.0,0.0,0.0,0.0,0.0,0.0,0.0,0.0,0.0,0.0,0.0,0.0,0.0,0.0,0.0,-4.3118,-4.3899,-4.2827,-4.4925,-4.5627,0.0,0.0,0.0,0.0,0.0,0.0,-4.9553,-5.2755,-5.5412,-5.7183,-5.8196,-5.954,-6.1239,-6.1157,-6.2161,-6.4318,-6.4215,-6.4828,-6.5973,-6.5942,-6.5793,-6.5603,-6.5568,-6.4358,-6.2046,-5.7876,-5.5185,-5.3669,-5.3442,-5.3518,0.0,-5.42,-5.4352,-5.4427,0.0,0.0,0.0,0.0,0.0,0.0,0.0,0.0,0.0,0.0,0.0,0.0,0.0,0.0,0.0,0.0,0.0,0.0,0.0,0.0,0.0,0.0,0.0,0.0,0.0,0.0,0.0,-4.8403,-4.9466,-5.1538,-5.4617,-5.539,-5.5789,-5.5874,-5.5423,-5.4946,-5.4292,-5.1064,-4.9457,-4.8964,0.0,0.0,0.0,0.0,0.0,0.0,0.0,0.0,0.0,0.0,0.0,0.0,0.0,0.0,0.0,0.0,0.0,0.0,0.0,0.0,0.0,0.0,0.0,0.0,0.0,0.0,0.0,0.0,0.0,0.0,0.0,0.0,0.0,0.0,0.0,0.0,0.0,0.0,0.0,-4.2904,-4.7007,0.0,0.0,0.0,0.0,-4.9632,-5.2855,-5.4814,-5.476,-5.7891,-6.051,-6.2285,-6.3861,-6.547,-6.7144,-6.7182,-6.7604,-6.8522,-6.8484,-6.8485,-6.8413,-6.8413,-6.7996,-6.7276,-6.7276,-6.6746,-6.5533,-6.1363,-5.8672,-5.7081,-5.6323,-5.6474,-5.7043,-5.6323,-5.6057,-5.6095,0.0,0.0,0.0,0.0,0.0,0.0,0.0,0.0,0.0,0.0,0.0,0.0,0.0,0.0,0.0,0.0,0.0,0.0,0.0,0.0,0.0,0.0,0.0,0.0,0.0,0.0,-4.6813,-4.9611,-5.248,-5.4725,-5.6391,-5.7188,-5.8006,-5.875,-5.8371,-5.8303,-5.8119,-5.315,-5.0748,-5.004,-4.7492,-4.5686,0.0,0.0,0.0,0.0,0.0,0.0,0.0,0.0,0.0,0.0,0.0,0.0,0.0,0.0,0.0,0.0,0.0,0.0,0.0,0.0,0.0,0.0,0.0,0.0,0.0,0.0,0.0,0.0,0.0,0.0,0.0,0.0,0.0,0.0,0.0,0.0,0.0,-4.9923,-5.3362,0.0,0.0,-5.3356,-5.4296,-5.481,-5.7519,-5.9642,-6.0715,-6.3949,-6.6303,-6.744,-6.9011,-7.019,-7.0872,-7.0763,-7.0839,-7.118,-7.1143,-7.1105,-7.1029,-7.1029,-7.0877,-7.0612,-7.0612,-7.0119,-6.9209,-6.7731,-6.485,-6.1326,-6.0492,-6.0378,-6.0643,-6.0871,-6.0947,-6.106,0.0,0.0,0.0,0.0,0.0,0.0,0.0,0.0,0.0,0.0,0.0,0.0,0.0,0.0,0.0,0.0,0.0,0.0,0.0,0.0,0.0,0.0,0.0,0.0,0.0,-4.7096,-4.9603,-5.2082,-5.5269,-5.7369,-5.842,-5.9253,-5.9932,-6.0505,-6.0515,-6.0633,-6.0501,-5.6518,-5.3965,-5.234,-4.9784,-4.8401,-4.7522,0.0,0.0,0.0,0.0,0.0,0.0,0.0,0.0,0.0,0.0,0.0,0.0,0.0,0.0,0.0,0.0,0.0,0.0,0.0,0.0,0.0,0.0,0.0,0.0,0.0,0.0,0.0,0.0,0.0,0.0,0.0,0.0,0.0,0.0,0.0,-5.4988,-5.5437,-5.8981,-6.0431,-5.8097,-5.8957,-5.9861,-6.0399,-6.2819,-6.4981,-6.673,-6.9467,-7.1368,-7.2167,-7.3497,-7.418,-7.4296,-7.3875,-7.3684,-7.3724,-7.338,-7.3075,-7.281,-7.281,-7.2658,-7.2393,-7.2393,-7.2052,-7.1521,-7.1521,-6.9588,-6.648,-6.5381,-6.4775,-6.4585,-6.5419,-6.5381,-6.5002,0.0,0.0,0.0,0.0,0.0,0.0,0.0,0.0,0.0,0.0,0.0,0.0,0.0,0.0,0.0,0.0,0.0,0.0,0.0,0.0,0.0,0.0,0.0,0.0,-4.6446,-5.0443,-5.3711,-5.6066,-5.7695,-5.9325,-6.0883,-6.1716,-6.1679,-6.0955,-6.1752,-6.1927,-6.1643,-6.1308,-5.9364,-5.6285,-5.3631,-5.284,-5.2666,0.0,0.0,0.0,0.0,0.0,0.0,0.0,0.0,0.0,0.0,0.0,0.0,0.0,0.0,0.0,0.0,0.0,0.0,0.0,0.0,0.0,0.0,0.0,0.0,0.0,0.0,0.0,0.0,0.0,0.0,0.0,0.0,0.0,-5.0596,-5.5483,-5.9155,-5.9064,-6.3503,-6.5323,-6.1918,-6.4643,-6.6577,-6.6473,-6.8823,-7.0988,-7.2586,-7.4257,-7.5471,-7.6306,-7.7021,-7.7396,-7.7396,-7.6524,-7.6069,-7.6107,-7.5274,-7.4478,-7.3644,-7.3606,-7.3189,-7.2431,-7.2393,-7.2393,-7.2431,-7.2431,-7.2431,-7.2241,-7.0612,-6.9437,-6.883,-6.9664,-6.8944,-6.7617,0.0,0.0,0.0,0.0,0.0,0.0,0.0,0.0,0.0,0.0,0.0,0.0,0.0,0.0,0.0,0.0,0.0,0.0,0.0,0.0,0.0,0.0,0.0,0.0,-4.9694,-5.2144,-5.4798,-5.7732,-5.9941,-6.1245,-6.1716,-6.3092,-6.3635,-6.3418,-6.4001,-6.4398,-6.4678,-6.4955,-6.4403,-6.2955,-5.8028,-5.5042,-5.3248,0.0,0.0,0.0,0.0,0.0,0.0,0.0,0.0,0.0,0.0,0.0,0.0,0.0,0.0,0.0,0.0,0.0,0.0,0.0,0.0,0.0,0.0,0.0,0.0,0.0,0.0,0.0,0.0,0.0,0.0,0.0,0.0,-5.752,-5.6681,-6.1514,-6.5559,-6.6739,-6.9663,-7.1219,-7.0309,-7.1067,-7.1863,-7.247,-7.3684,-7.4937,-7.5997,-7.7059,-7.7438,-7.7097,-7.7282,-7.7396,-7.7396,-7.5956,-7.5539,-7.6107,-7.5274,-7.4781,-7.4516,-7.3909,-7.3492,-7.3227,-7.2658,-7.2734,-7.3265,-7.3265,-7.3265,-7.3189,-7.2128,-7.1559,-7.137,-7.1597,-7.1029,-7.0043,0.0,0.0,0.0,0.0,0.0,0.0,0.0,0.0,0.0,0.0,0.0,0.0,0.0,0.0,0.0,0.0,0.0,0.0,0.0,0.0,0.0,0.0,0.0,-4.9045,-5.2004,-5.4786,-5.7406,-5.9905,-6.1643,-6.2838,-6.3563,-6.4794,-6.541,-6.541,-6.6041,-6.6482,-6.6817,-6.757,-6.7716,-6.7221,-6.3951,-6.0942,-5.8091,-5.4852,-5.3497,-5.3194,-5.2492,-5.2424,-5.2545,-5.2054,0.0,0.0,0.0,0.0,0.0,0.0,0.0,0.0,0.0,0.0,0.0,0.0,0.0,0.0,0.0,0.0,0.0,0.0,0.0,0.0,0.0,0.0,0.0,0.0,-6.0273,-6.3682,-6.4976,-6.7721,-7.0346,-7.2319,-7.4139,-7.5198,-7.5198,-7.5198,-7.5539,-7.6411,-7.6562,-7.7169,-7.8382,-7.8533,-7.8533,-7.8457,-7.8457,-7.8457,-7.8457,-7.679,-7.6335,-7.7131,-7.5956,-7.5577,-7.5918,-7.5046,-7.4857,0.0,-7.3947,-7.3909,-7.4629,-7.4288,-7.4136,0.0,0.0,0.0,0.0,0.0,-7.1483,-7.1483,0.0,0.0,0.0,0.0,0.0,0.0,0.0,0.0,0.0,0.0,0.0,0.0,0.0,0.0,0.0,0.0,0.0,0.0,0.0,0.0,0.0,-4.4728,-4.9159,-5.2401,-5.4061,-5.7846,-6.0665,-6.2295,-6.3164,-6.4323,-6.5736,-6.6641,-6.7076,-6.7112,-6.7836,-6.8186,-6.8305,-6.9221,-6.9694,-6.9767,-6.9985,-6.8072,-6.4647,-6.0152,-5.9261,-6.0053,-5.7794,-5.6141,-5.4943,-5.4728,0.0,0.0,0.0,0.0,0.0,0.0,0.0,0.0,0.0,0.0,0.0,0.0,0.0,0.0,0.0,0.0,0.0,0.0,0.0,0.0,0.0,0.0,0.0,0.0,-6.5703,-6.9776,-7.3838,-7.38,-7.4103,-7.6259,-7.7282,-7.7851,-7.7965,-7.7965,-7.8268,-7.8988,-7.8268,-7.8457,0.0,0.0,0.0,0.0,0.0,-7.9784,-7.9898,-7.823,-7.7813,-7.8571,-7.7017,-7.6638,-7.7358,-7.6486,-7.6524,-7.7169,-7.5577,-7.5311,-7.5918,-7.5198,-7.4857,-7.4705,-7.4023,-7.2848,-7.1408,-7.0612,-7.118,0.0,0.0,0.0,0.0,0.0,0.0,0.0,0.0,0.0,0.0,0.0,0.0,0.0,0.0,0.0,0.0,0.0,0.0,0.0,0.0,0.0,-4.7384,-4.9329,-5.2929,-5.5974,-5.8211,-6.0377,-6.2331,-6.3925,-6.5374,-6.6279,-6.6605,-6.8054,-6.8742,-6.8742,-6.8887,-6.9186,-6.9518,-6.9761,-7.0309,-7.1133,-7.1163,-6.9048,-6.572,-6.4158,-6.2585,-6.1012,-5.9883,-6.0237,-6.0876,-5.8842,-5.8383,-5.8192,-5.5326,0.0,0.0,0.0,0.0,0.0,0.0,0.0,0.0,0.0,0.0,0.0,0.0,0.0,0.0,0.0,0.0,0.0,0.0,0.0,0.0,-6.6721,-7.0875,-7.4749,-7.828,-7.8618,-7.8652,-7.9102,-7.9898,-8.0656,-8.1338,-8.1414,-8.1489,-8.1641,-8.0883,-8.0542,-8.0845,-8.0087,0.0,-7.9898,-7.9215,-7.9177,-7.9898,-7.823,-7.7813,-7.8609,0.0,0.0,-7.7358,-7.6486,-7.6183,-7.6297,-7.5311,-7.5008,-7.5122,-7.497,-7.4478,-7.3909,-7.444,-7.444,-7.4061,-7.3189,-7.2696,-7.2241,0.0,0.0,0.0,0.0,0.0,0.0,0.0,0.0,0.0,0.0,0.0,0.0,0.0,0.0,0.0,0.0,0.0,0.0,0.0,-4.7133,-4.9698,-5.2845,-5.5845,-5.8412,-6.0447,-6.2145,-6.3667,-6.5011,-6.5808,-6.6822,-6.8017,-6.8814,-6.9611,-7.0335,-7.0335,-7.0484,-7.0748,-7.1003,-7.147,-7.1961,-7.2211,-7.1216,-6.935,-6.8451,-6.6885,-6.5123,-6.4762,-6.4374,-6.3902,-6.2671,-6.1707,-6.0561,-5.8039,-5.5517,-5.2996,0.0,0.0,0.0,0.0,0.0,0.0,0.0,0.0,0.0,0.0,0.0,0.0,0.0,0.0,-5.8216,0.0,0.0,-6.7496,-7.1331,-7.4673,-7.7555,-7.9642,-8.0661,-8.1148,-8.1148,-8.111,-8.1452,-8.2323,-8.2399,-8.2399,-8.2399,-8.1982,-8.1755,-8.1755,-8.1376,-8.1148,-8.1148,-8.0731,-8.0694,-8.1148,-7.9898,-7.967,-8.0504,-7.9632,-7.9253,-7.9215,-7.8382,-7.8002,-7.7927,-7.6676,-7.6145,-7.6107,-7.5236,-7.4629,-7.4288,-7.4743,-7.4402,-7.353,-7.2658,-7.262,-7.2772,0.0,0.0,0.0,0.0,0.0,0.0,0.0,0.0,0.0,0.0,0.0,0.0,0.0,0.0,0.0,0.0,0.0,0.0,0.0,-4.8564,-5.1851,-5.5955,-5.8407,-6.0511,-6.2242,-6.382,-6.5055,-6.6062,-6.6388,-6.751,-6.943,-6.9575,-7.0299,-7.1494,-7.1494,-7.1494,-7.1494,-7.2011,-7.227,-7.2443,-7.2852,-7.2968,-7.2791,-7.1765,-7.0574,-6.9312,-6.904,-6.7164,-6.4832,-6.5047,-6.3465,-6.1134,-5.9797,-5.8001,-5.5823,-5.2919,-5.1353,0.0,0.0,0.0,0.0,0.0,0.0,0.0,0.0,0.0,-5.6687,-5.893,-6.15,-6.4101,-6.6615,-6.9435,-7.2318,-7.5243,-7.7855,-7.9746,-8.0315,-8.1527,-8.2399,-8.2399,-8.1906,-8.1906,-8.2778,-8.2892,-8.2892,-8.2892,-8.2702,-8.2627,-8.2627,-8.2475,-8.2399,-8.2399,-8.2399,-8.2399,-8.2399,-8.1679,-8.1717,-8.2361,-8.1679,-8.1338,-8.1338,-8.0656,-8.0277,-8.0049,-7.8344,-7.7623,-7.751,-7.6032,-7.5311,-7.5122,-7.5122,-7.4212,-7.281,-7.209,-7.2583,-7.3303,0.0,0.0,0.0,0.0,0.0,0.0,0.0,0.0,0.0,0.0,0.0,0.0,0.0,0.0,0.0,0.0,0.0,0.0,-4.8266,-5.1017,-5.4527,-5.9166,-6.1104,-6.2892,-6.4651,-6.5731,-6.6716,-6.7728,-6.914,-6.9973,-7.0263,-7.0951,-7.135,-7.1494,-7.1494,-7.1494,-7.1494,-7.1557,-7.1891,-7.2386,-7.25,-7.276,-7.3066,-7.2274,-7.1538,-7.0875,-6.9355,-6.6379,-6.3192,-6.3917,-6.2527,-6.0485,-6.0293,-6.0064,-5.9033,-5.4982,0.0,-5.1238,-5.0283,-4.9557,-4.9786,-5.269,-5.3034,-5.4409,0.0,0.0,-6.3421,-6.5144,-6.805,-7.0149,-6.9699,-7.3459,-7.7027,-7.8045,-8.0921,-8.2816,-8.221,-8.2285,-8.2399,-8.2399,-8.293,-8.365,-8.456,-8.4635,-8.4635,-8.4635,-8.3877,-8.346,-8.346,-8.2778,-8.2399,-8.2399,-8.2399,-8.2399,-8.2399,-8.2285,-8.2285,-8.2399,-8.2285,-8.2248,-8.2248,-8.2134,-8.1679,-8.0883,-7.9177,-7.8457,-7.8382,-7.751,-7.6676,-7.5994,-7.5994,-7.5425,-7.4629,-7.4516,-7.4099,-7.3454,0.0,0.0,0.0,0.0,0.0,0.0,0.0,0.0,0.0,0.0,0.0,0.0,0.0,0.0,0.0,0.0,0.0,0.0,-4.8062,-5.1333,-5.536,-6.038,-6.176,-6.2988,-6.4279,-6.5622,-6.6848,-6.7861,-6.9104,-6.9937,-7.0408,-7.0698,-7.1096,-7.1494,-7.1494,-7.1748,-7.2183,-7.1712,-7.1936,-7.2547,-7.2073,-7.1919,-7.1894,-7.0602,-6.9049,-6.7447,-6.6773,-6.4294,0.0,0.0,-6.0532,-5.9291,-5.9015,-5.8268,-5.6905,-5.3922,-5.2679,0.0,-5.1276,-5.1888,0.0,0.0,-5.716,-6.0523,-6.4627,-6.6624,-6.8236,-7.0264,-7.2585,-7.4409,-7.4937,-7.7514,-7.9675,0.0,-8.1641,-8.2589,-8.1755,-8.2058,-8.1679,-7.9708,-8.1073,-8.2475,-8.3347,-8.3877,-8.4143,-8.4143,-8.4294,-8.437,-8.437,-8.4029,-8.3839,-8.3839,-8.3839,-8.3839,-8.3839,-8.3839,-8.3839,-8.3839,-8.3839,-8.3574,-8.3081,-8.2589,-8.1679,-8.0315,-7.9102,-7.8609,-7.8533,-7.7737,-7.7207,-7.6865,-7.6865,-7.6335,-7.5501,-7.4516,-7.425,-7.4099,0.0,0.0,0.0,0.0,0.0,0.0,0.0,0.0,0.0,0.0,0.0,0.0,0.0,0.0,0.0,0.0,0.0,0.0,0.0,-5.0535,-5.4868,-5.9965,-6.1568,-6.2796,-6.4015,-6.5679,-6.6942,-6.7703,-6.8873,-6.9792,-7.0372,-7.0589,-7.0987,-7.1494,-7.1494,-7.182,-7.2327,-7.1531,-7.1531,-7.2001,-7.1205,-7.0532,-6.9811,-6.7945,-6.522,-6.2484,-6.3252,-6.0927,0.0,0.0,-5.6657,-5.5655,-5.5788,-5.5465,-5.4686,-5.2975,-5.2703,-5.2844,-5.226,0.0,0.0,-5.7489,-6.1497,-6.5741,-6.8007,-7.0296,-7.2545,-7.4675,-7.6268,-7.7631,-7.8723,-8.0125,0.0,-8.1414,-8.1982,-8.2172,-8.1527,-8.1376,-8.0277,-7.7396,-7.823,-7.9367,-8.0239,-8.1906,-8.3006,-8.3233,-8.3839,-8.4294,-8.4522,-8.456,-8.4635,-8.4901,-8.4901,-8.4901,-8.4901,-8.4901,-8.4901,-8.4901,-8.4901,-8.456,-8.3915,-8.2854,-8.1717,-8.0542,-7.9443,-7.895,-7.8912,-7.8344,-7.7965,-7.7699,-7.7472,-7.6865,-7.5918,-7.4516,-7.4364,-7.4591,0.0,0.0,0.0,0.0,0.0,0.0,0.0,0.0,0.0,0.0,0.0,0.0,0.0,0.0,0.0,0.0,0.0,0.0,0.0,-4.8676,-5.3042,-5.7786,-6.0747,-6.3081,-6.4839,-6.6379,-6.7357,-6.7703,-6.9255,-7.0211,-7.0408,-7.1132,-7.1494,-7.1494,-7.1494,-7.1531,-7.1494,-7.0734,-7.0444,-7.0372,-6.9575,-6.8307,-6.6641,-6.4307,-6.0429,-5.6637,-5.9239,0.0,0.0,0.0,-5.0226,-4.8527,-5.0203,-5.2273,0.0,-5.3035,-5.308,-5.3361,0.0,0.0,-5.8625,-6.2704,-6.5612,-6.859,-7.2736,-7.4942,-7.6612,-7.8283,-7.9263,-7.9784,-7.986,-8.0542,-8.1376,-8.221,-8.2361,-8.2361,-8.2361,-8.0239,-7.8078,-7.6335,-7.4781,-7.4174,0.0,-7.8798,-8.1527,-8.2361,-8.2437,-8.2816,-8.3574,-8.3612,-8.4029,-8.4863,-8.4901,-8.4901,-8.4901,-8.4901,-8.4901,-8.4901,-8.4901,-8.4901,-8.4825,-8.3157,-8.2361,-8.221,-8.058,-7.986,-7.986,-7.9822,-7.9329,-7.8495,-7.7699,-7.6865,-7.5994,-7.516,-7.4895,-7.4781,0.0,0.0,0.0,0.0,0.0,0.0,0.0,0.0,0.0,0.0,0.0,0.0,0.0,0.0,0.0,0.0,0.0,0.0,0.0,-4.5932,-4.9318,-5.3334,-5.6775,-5.9087,-6.021,-6.3296,-6.5248,-6.5995,-6.7101,-6.8114,-6.8814,-6.9068,-6.9466,-6.9973,-6.9973,-7.0263,-7.0698,-6.9937,-7.0191,-7.0879,-6.7981,-6.6822,-6.6243,-6.1136,-5.6899,-5.3432,0.0,0.0,0.0,0.0,0.0,-4.5239,-4.6046,-4.6855,-4.7972,-5.0071,-5.2183,-5.4209,0.0,0.0,-6.3372,-6.6455,-6.9957,-7.3421,-7.6424,-7.7979,-7.8736,-7.8694,-7.759,-7.6411,-7.5842,-7.5956,-7.66,-7.8002,-7.914,-8.0277,-8.1376,-8.0352,-7.8002,-7.4099,-7.4591,0.0,0.0,0.0,0.0,-8.058,-8.1755,-8.274,-8.3536,-8.4143,-8.4597,-8.4901,-8.4901,-8.4901,-8.4901,-8.4901,-8.4901,-8.4901,-8.4901,-8.4597,-8.3991,-8.2892,-8.2058,-8.1489,-8.039,-7.9898,-7.9898,-7.9898,-7.9708,-7.9443,-7.914,-7.8533,-7.7737,-7.7434,-7.6638,-7.5501,0.0,0.0,0.0,0.0,0.0,0.0,0.0,0.0,0.0,0.0,0.0,0.0,0.0,0.0,0.0,0.0,0.0,0.0,0.0,0.0,-4.5917,-4.8838,-5.2462,-5.4782,-5.5553,-5.8284,-6.0143,-6.1105,-6.2188,-6.3392,-6.4649,-6.5091,-6.5931,-6.704,-6.704,-6.7474,-6.8162,-6.7076,-6.704,-6.7402,-6.3961,-6.2223,-6.1136,-5.6138,-5.2082,0.0,0.0,0.0,0.0,0.0,0.0,0.0,-4.3167,-4.4272,-4.6086,-4.9257,-5.2414,-5.5619,-5.8899,-6.3448,-6.8025,-7.1179,-7.4448,-7.7374,-7.9191,-7.9343,-7.8618,-7.7131,-7.4857,-7.2772,-7.1597,-7.0649,-7.0991,-7.3833,-7.4705,-7.6145,-7.9329,-7.8798,-7.7017,-7.4061,-7.4591,0.0,0.0,0.0,0.0,-7.8836,-8.0807,-8.2285,-8.3119,-8.3953,-8.4597,-8.4901,-8.4901,-8.4901,-8.4901,-8.4901,-8.4901,-8.4901,-8.4901,-8.4597,-8.4029,-8.2892,-8.2096,-8.1489,-8.039,-7.9898,-7.9898,-7.9898,-7.9898,-7.986,-7.9556,-7.8912,-7.8116,-7.7813,-7.6828,-7.5577,0.0,0.0,0.0,0.0,0.0,0.0,0.0,0.0,0.0,0.0,0.0,0.0,0.0,0.0,0.0,0.0,0.0,0.0,0.0,0.0,0.0,-4.4334,-4.7954,-5.0298,-5.1049,-5.1941,-5.2799,-5.3707,-5.5001,-5.6532,-5.8253,-5.9581,-6.1081,-6.271,-6.271,-6.3164,-6.3816,-6.2295,-6.1208,-6.0303,-5.7804,-5.5051,-5.2154,-4.9619,0.0,0.0,0.0,0.0,0.0,0.0,0.0,0.0,0.0,-4.4621,-4.8315,-5.0859,-5.4049,-5.7821,-6.2757,-6.7758,-7.2585,-7.6648,-7.8845,-8.0125,-8.0807,-7.8988,-7.6411,-7.3871,-7.1218,-6.8868,0.0,0.0,-6.5116,-7.0081,-6.9778,-7.0953,-7.6752,-7.6221,-7.5463,0.0,0.0,0.0,0.0,0.0,0.0,-7.7396,0.0,-8.1489,-8.2399,-8.3233,-8.4029,-8.4863,-8.4901,-8.4901,-8.4901,-8.4901,-8.4901,-8.4901,-8.4901,-8.4901,-8.4863,-8.3195,-8.2437,-8.2285,-8.0656,-7.9936,-7.9898,-7.9936,-7.9936,-7.9822,-7.9026,-7.823,-7.7434,-7.66,-7.5804,-7.5198,0.0,0.0,0.0,0.0,0.0,0.0,0.0,0.0,0.0,0.0,0.0,0.0,0.0,0.0,0.0,0.0,0.0,0.0,0.0,0.0,0.0,0.0,0.0,0.0,0.0,0.0,0.0,0.0,0.0,-5.2438,-5.352,-5.3898,-5.4811,-5.6224,-5.6224,-5.6544,-5.7159,-5.6762,-5.6523,-5.6138,0.0,-5.1792,-5.114,0.0,0.0,0.0,0.0,0.0,0.0,0.0,0.0,0.0,0.0,-4.6721,-5.0286,-5.4164,-5.8914,-6.387,-6.8339,-7.3154,-7.7447,-7.9665,-8.051,-8.0504,-7.9481,-7.6335,-7.2962,-7.0384,-6.5912,-6.2122,0.0,0.0,0.0,-6.7617,-7.1142,0.0,-7.9519,-7.9784,0.0,0.0,0.0,-7.6941,-7.588,-7.751,0.0,0.0,-8.039,-8.1717,-8.3195,-8.4105,-8.4673,-8.4901,-8.4901,-8.4901,-8.4901,-8.4901,-8.4901,-8.4901,-8.4901,-8.4901,-8.4863,-8.3802,-8.2968,-8.2323,-8.1262,-8.0428,-7.9936,-8.0542,-8.0428,-7.9936,-8.0315,-7.9973,-7.9253,-7.9026,-7.8382,-7.7699,0.0,0.0,0.0,0.0,0.0,0.0,0.0,0.0,0.0,0.0,0.0,0.0,0.0,0.0,0.0,0.0,0.0,0.0,0.0,0.0,0.0,0.0,0.0,0.0,0.0,0.0,0.0,0.0,0.0,0.0,0.0,-4.7841,-4.8783,-5.0857,-5.0708,-5.1244,-5.2184,-5.209,0.0,0.0,0.0,0.0,0.0,0.0,0.0,0.0,0.0,0.0,0.0,0.0,0.0,-4.5997,-4.8677,-5.1466,-5.4556,-5.8796,0.0,-6.7768,-7.2174,-7.6443,-8.0039,-8.1763,-8.1158,-7.9592,-7.7467,-7.3336,-6.879,-6.4821,-6.0372,0.0,0.0,0.0,0.0,0.0,0.0,0.0,-7.8154,-7.986,-8.0618,0.0,-8.0769,0.0,-7.9481,-8.0694,-8.1679,0.0,-8.2172,-8.2589,-8.3536,-8.4446,-8.4901,-8.4901,-8.4901,-8.4901,-8.4901,-8.4901,-8.4901,-8.4901,-8.4901,-8.4901,-8.4863,-8.3991,-8.3347,-8.2854,0.0,-8.1414,-8.1035,-8.1489,-8.1186,-8.0466,-8.0921,-8.0618,-7.986,-7.9481,-7.9026,-7.8609,0.0,0.0,0.0,0.0,0.0,0.0,0.0,0.0,0.0,0.0,0.0,0.0,0.0,0.0,0.0,0.0,0.0,0.0,0.0,0.0,0.0,0.0,0.0,0.0,0.0,0.0,0.0,0.0,0.0,0.0,0.0,0.0,0.0,0.0,0.0,0.0,0.0,0.0,0.0,0.0,0.0,0.0,0.0,0.0,0.0,0.0,0.0,0.0,0.0,0.0,-4.8206,-5.0234,-5.4255,-5.7297,-6.0158,-6.4142,-6.7373,-7.0606,-7.5105,-7.8424,-8.1139,-8.2923,-8.0951,-7.7775,-7.487,-6.9841,-6.4178,-5.8538,0.0,-5.2789,-5.1532,0.0,-5.4091,-6.0354,0.0,-6.8868,-7.5804,-7.8685,-8.0997,-8.3612,-8.3726,-8.3726,-8.4067,-8.3991,-8.4294,-8.5166,-8.4408,-8.3915,-8.3915,-8.4635,-8.5014,-8.4901,-8.4901,-8.4901,-8.4901,-8.4901,-8.4901,-8.4901,-8.4901,-8.4901,-8.4863,-8.4105,-8.3688,-8.3536,0.0,0.0,-8.2399,-8.2513,-8.2058,-8.1262,-8.1376,-8.0921,-8.0125,-7.9253,-7.8912,-7.8912,0.0,0.0,0.0,0.0,0.0,0.0,0.0,0.0,0.0,0.0,-3.5114,-3.4883,0.0,0.0,0.0,0.0,0.0,0.0,0.0,0.0,0.0,0.0,0.0,0.0,0.0,0.0,0.0,0.0,0.0,0.0,0.0,0.0,0.0,0.0,0.0,0.0,0.0,0.0,0.0,0.0,0.0,0.0,0.0,0.0,0.0,0.0,0.0,0.0,0.0,0.0,-5.1538,-5.3566,-5.755,-6.1353,-6.512,-6.9104,-7.2029,-7.4715,-7.8002,-8.032,-8.1771,-8.2089,-7.9448,-7.5705,-7.1546,-6.5399,0.0,0.0,0.0,-4.9408,-4.8509,-5.0829,0.0,-6.1694,0.0,0.0,0.0,0.0,-8.2058,0.0,0.0,0.0,0.0,0.0,0.0,0.0,0.0,0.0,-8.5659,-8.581,-8.5583,-8.4939,-8.4901,-8.4901,-8.4901,-8.4901,-8.4901,-8.4901,-8.4901,-8.4901,-8.4901,-8.4749,-8.4294,-8.3574,0.0,0.0,-8.2437,-8.3119,-8.2892,-8.2248,-8.2892,-8.2664,-8.1869,-8.0997,-8.0656,-8.058,0.0,0.0,0.0,0.0,0.0,0.0,0.0,-3.3172,-3.4283,-3.682,-3.6551,-3.6088,-3.6026,-3.6009,-3.5843,0.0,0.0,0.0,0.0,0.0,0.0,0.0,0.0,0.0,0.0,0.0,0.0,0.0,0.0,0.0,0.0,0.0,0.0,0.0,0.0,0.0,0.0,0.0,0.0,0.0,0.0,0.0,0.0,0.0,0.0,0.0,0.0,0.0,0.0,0.0,-5.0343,-5.4146,-6.0194,-6.4577,-6.809,-7.1205,-7.3849,-7.6264,-7.8876,-8.0568,-8.1453,-8.12,-7.7087,-7.1872,-6.7439,0.0,0.0,0.0,-4.8274,-4.7022,-4.7314,0.0,0.0,0.0,0.0,0.0,0.0,0.0,0.0,0.0,0.0,0.0,0.0,0.0,0.0,0.0,0.0,0.0,0.0,-8.5697,-8.5318,-8.4901,-8.4901,-8.509,-8.5545,-8.5128,-8.5128,-8.5545,-8.509,-8.4901,-8.4901,-8.4901,-8.4673,-8.4294,0.0,0.0,-8.3726,-8.4105,-8.3764,-8.3043,-8.3422,-8.3347,-8.2854,-8.1565,-8.1376,-8.1603,0.0,0.0,0.0,0.0,0.0,0.0,0.0,-3.4147,-3.5291,-3.8256,-3.7796,-3.7275,-3.7548,-3.6903,-3.6108,0.0,0.0,0.0,0.0,0.0,0.0,0.0,0.0,0.0,0.0,0.0,0.0,0.0,0.0,0.0,0.0,0.0,0.0,0.0,0.0,0.0,0.0,0.0,0.0,0.0,0.0,0.0,0.0,0.0,0.0,0.0,0.0,0.0,0.0,0.0,-4.8061,-5.248,-5.9796,-6.5011,-6.8887,-7.1277,-7.403,-7.6735,-7.8857,-8.0203,-8.0866,-7.9952,-7.4622,-6.8365,-6.3537,-5.6916,0.0,0.0,-4.5836,-4.5609,-4.6539,0.0,0.0,0.0,0.0,0.0,0.0,0.0,0.0,0.0,0.0,0.0,0.0,0.0,0.0,0.0,0.0,0.0,0.0,-8.5507,-8.509,-8.4901,-8.5242,-8.5583,-8.5848,-8.5393,-8.5393,-8.5848,-8.5204,-8.4901,-8.4901,-8.4722,-8.4675,-8.4675,0.0,0.0,0.0,-8.4675,-8.4391,-8.3877,-8.3877,-8.3764,-8.3422,-8.1906,-8.1634,-8.1733,0.0,0.0,0.0,0.0,0.0,0.0,0.0,-3.4484,-3.6117,-3.9731,-3.8417,-3.7633,-3.8937,-3.8427,-3.7433,0.0,0.0,0.0,0.0,0.0,0.0,0.0,0.0,0.0,0.0,0.0,0.0,0.0,0.0,0.0,0.0,0.0,0.0,0.0,0.0,0.0,0.0,0.0,0.0,0.0,0.0,0.0,0.0,0.0,0.0,0.0,0.0,0.0,0.0,0.0,0.0,-4.7953,-5.3059,-5.9868,-6.6388,-6.8814,0.0,0.0,-7.83,-7.9931,-8.0368,-7.7456,-7.2644,-6.6994,-6.0383,0.0,0.0,-4.5249,-4.4877,-4.5309,-4.5421,-4.6501,-4.8897,0.0,0.0,-5.9809,0.0,0.0,0.0,0.0,0.0,0.0,0.0,0.0,0.0,0.0,0.0,0.0,0.0,0.0,-8.5659,-8.4939,-8.6379,-8.6493,-8.5014,-8.5659,-8.5659,-8.5014,-8.4939,-8.4901,-8.4901,-8.4268,-8.3975,-8.3975,0.0,0.0,0.0,-8.3975,-8.428,-8.4787,-8.4787,-8.4294,-8.346,-8.2589,-8.1481,-8.0368,0.0,0.0,0.0,0.0,0.0,0.0,-3.3423,-3.3558,-3.4959,-3.9331,-3.8779,-3.8302,-3.9235,-3.9023,-3.7897,-3.5545,0.0,0.0,0.0,0.0,0.0,0.0,0.0,0.0,0.0,0.0,0.0,0.0,0.0,0.0,0.0,0.0,0.0,0.0,0.0,0.0,0.0,0.0,0.0,0.0,0.0,0.0,0.0,0.0,0.0,0.0,0.0,0.0,0.0,0.0,0.0,0.0,-4.6757,-5.1357,0.0,0.0,-6.8959,-7.3414,-7.642,-7.9136,-8.0223,-7.6492,-7.1174,-6.533,-5.9704,0.0,0.0,-4.5276,-4.4693,-4.4729,-4.52,-4.5721,-4.6822,-4.9273,0.0,0.0,0.0,0.0,0.0,0.0,0.0,0.0,0.0,0.0,0.0,0.0,0.0,0.0,0.0,0.0,-8.5323,-8.4939,-8.5545,-8.5631,-8.5059,-8.4871,-8.468,-8.4475,-8.4026,-8.3763,-8.3709,-8.3452,-8.3563,0.0,0.0,0.0,0.0,-8.3508,-8.3545,-8.3726,-8.3238,-8.3126,-8.3089,-8.1777,-8.1206,-8.1027,0.0,0.0,0.0,0.0,0.0,-3.138,-3.329,-3.3377,-3.4572,-3.8319,-3.8444,-3.8463,-3.9235,-3.8692,-3.7566,-3.5711,-3.5148,0.0,0.0,0.0,0.0,0.0,0.0,0.0,0.0,0.0,-3.5413,-3.4883,0.0,0.0,0.0,0.0,0.0,0.0,0.0,0.0,0.0,0.0,0.0,0.0,0.0,0.0,0.0,0.0,0.0,0.0,0.0,0.0,0.0,0.0,0.0,0.0,0.0,0.0,0.0,0.0,-6.4287,-6.943,-7.316,-7.671,-7.8448,-7.4645,-6.943,-6.3852,0.0,0.0,0.0,-4.52,-4.4295,-4.3969,-4.4802,-4.5128,-4.5562,-4.6359,-4.6819,-4.9142,0.0,0.0,0.0,0.0,0.0,0.0,0.0,0.0,0.0,0.0,0.0,0.0,0.0,0.0,-8.5077,-8.472,-8.5172,-8.5282,-8.489,-8.4516,-8.4143,-8.3849,-8.3292,-8.2994,-8.2994,-8.2816,-8.2935,0.0,0.0,0.0,0.0,-8.2876,-8.2816,-8.2957,-8.2363,-8.2326,-8.2474,-8.1285,-8.0984,-8.103,0.0,0.0,0.0,0.0,0.0,0.0,-3.327,-3.4466,-3.5721,-3.7145,-3.7187,-3.7698,-3.9135,-3.7334,-3.6307,-3.7036,-3.5744,0.0,0.0,0.0,0.0,0.0,0.0,0.0,0.0,0.0,-3.4916,-3.4883,-3.5644,-3.6009,0.0,0.0,0.0,0.0,0.0,0.0,0.0,0.0,0.0,0.0,0.0,0.0,0.0,0.0,0.0,0.0,0.0,0.0,0.0,0.0,0.0,0.0,0.0,0.0,0.0,0.0,-5.8854,-6.5156,-6.838,-7.2146,-7.4428,-7.1241,-6.7402,-6.273,0.0,0.0,0.0,-4.4621,-4.3462,-4.3136,-4.3969,-4.4765,-4.5562,-4.6359,-4.8496,-5.1661,-5.6257,0.0,0.0,0.0,0.0,0.0,0.0,0.0,0.0,0.0,0.0,0.0,0.0,0.0,-8.5198,-8.4257,-8.5781,-8.5855,-8.422,-8.5,-8.4592,-8.3032,-8.2994,-8.2994,-8.2935,-8.2323,0.0,0.0,0.0,0.0,0.0,-8.2003,-8.2386,-8.2994,-8.2994,-8.2474,-8.1731,-8.1694,-8.0799,-7.9764,0.0,0.0,0.0,0.0,0.0,0.0,0.0,-3.2087,-3.3216,-3.5036,-3.5959,-3.6808,-3.7713,-3.7168,-3.6638,-3.6373,-3.5446,0.0,0.0,0.0,0.0,0.0,0.0,0.0,0.0,0.0,-3.5148,-3.5644,-3.6406,-3.7003,-3.75,-3.7235,-3.7367,0.0,0.0,0.0,0.0,0.0,0.0,0.0,0.0,0.0,0.0,0.0,0.0,0.0,0.0,0.0,0.0,0.0,0.0,0.0,0.0,0.0,0.0,-4.7047,0.0,0.0,-6.2585,-6.5989,-6.7836,-6.4649,-6.1643,-5.8383,-5.4218,0.0,0.0,-4.52,-4.4258,-4.3788,-4.4041,-4.52,-4.6576,-4.7916,-4.9691,-5.181,0.0,0.0,0.0,0.0,0.0,0.0,0.0,0.0,0.0,0.0,0.0,0.0,0.0,0.0,0.0,-8.416,-8.4703,-8.4497,-8.3539,-8.3761,-8.3684,-8.3358,-8.2774,-8.2518,-8.2482,0.0,0.0,0.0,0.0,0.0,0.0,-8.1542,-8.151,-8.1641,-8.1094,-8.1057,-8.124,-8.0692,-8.0558,-8.0681,0.0,0.0,0.0,0.0,0.0,0.0,0.0,-3.1897,-3.2846,-3.4069,-3.5104,-3.6055,-3.6985,-3.6605,-3.6307,-3.6406,-3.5479,0.0,0.0,0.0,0.0,0.0,0.0,0.0,-3.4883,-3.4883,-3.5413,-3.6406,-3.7168,-3.7897,-3.8593,-3.8427,-3.8129,-3.7765,-3.7286,0.0,0.0,0.0,0.0,0.0,0.0,0.0,-3.8183,0.0,0.0,0.0,0.0,0.0,0.0,0.0,0.0,0.0,0.0,0.0,0.0,0.0,-4.8206,0.0,0.0,-6.0231,-6.1933,-5.9941,-5.7659,0.0,0.0,0.0,0.0,-4.5381,-4.4657,-4.4077,-4.4077,-4.5417,-4.6721,-4.7446,-4.9401,-5.1502,0.0,0.0,0.0,0.0,0.0,0.0,0.0,0.0,0.0,0.0,0.0,0.0,0.0,0.0,0.0,-8.3447,-8.3475,-8.3464,-8.3322,-8.303,-8.3113,-8.3483,-8.236,-8.1998,-8.2251,0.0,0.0,0.0,0.0,0.0,0.0,-8.1269,-8.1128,-8.1056,-8.0549,-8.0658,-8.1056,-8.0549,-8.0694,-8.1128,0.0,0.0,0.0,0.0,0.0,0.0,0.0,-3.3298,-3.405,-3.405,-3.4546,-3.5413,-3.6804,-3.5711,-3.5446,-3.6837,0.0,0.0,0.0,0.0,0.0,0.0,0.0,0.0,-3.4883,-3.4949,-3.5711,-3.7201,-3.7996,-3.8758,-3.952,-4.0216,-3.9388,-3.7367,-3.8085,-3.7636,0.0,0.0,0.0,0.0,0.0,0.0,0.0,0.0,0.0,0.0,0.0,0.0,0.0,0.0,0.0,0.0,0.0,0.0,0.0,0.0,0.0,0.0,0.0,-5.4689,0.0,0.0,0.0,0.0,0.0,0.0,0.0,0.0,0.0,-4.4114,-4.415,-4.5454,-4.6323,-4.5816,-4.8315,-5.1176,0.0,0.0,0.0,0.0,0.0,0.0,0.0,0.0,0.0,0.0,0.0,0.0,0.0,0.0,0.0,0.0,-8.2287,-8.265,-8.341,-8.265,-8.2686,-8.3483,-8.1925,-8.1563,-8.2251,0.0,0.0,0.0,0.0,0.0,0.0,-8.1128,-8.1128,-8.1128,-8.1128,-8.1128,-8.1128,-8.1128,-8.1128,-8.1128,0.0,0.0,0.0,0.0,0.0,0.0,0.0,0.0,0.0,0.0,-3.4267,-3.5015,-3.5379,-3.5114,-3.5048,0.0,0.0,0.0,0.0,0.0,0.0,0.0,0.0,0.0,-3.4883,-3.5446,-3.6473,-3.7963,-3.9255,-4.0514,-4.1773,-4.1939,-4.1233,-3.9748,-3.8905,-3.7483,0.0,0.0,0.0,0.0,0.0,0.0,0.0,0.0,0.0,0.0,-3.9369,-4.013,0.0,0.0,0.0,0.0,0.0,0.0,0.0,0.0,-4.3317,-4.3896,-4.5816,0.0,-4.8858,-4.8242,-4.7663,-4.712,0.0,0.0,0.0,0.0,0.0,0.0,0.0,-4.5816,-4.7228,-4.951,-5.1538,-5.3675,0.0,0.0,0.0,0.0,0.0,0.0,0.0,0.0,0.0,0.0,0.0,0.0,0.0,0.0,0.0,0.0,-8.2287,-8.236,-8.2577,-8.236,-8.2686,-8.3483,-8.2468,-8.2106,0.0,0.0,0.0,0.0,0.0,0.0,0.0,-8.1128,-8.1128,-8.1128,-8.1128,-8.1128,-8.1128,-8.1128,-8.1128,-8.1128,0.0,0.0,0.0,0.0,0.0,0.0,0.0,0.0,0.0,0.0,0.0,0.0,0.0,0.0,0.0,0.0,0.0,0.0,0.0,0.0,0.0,0.0,0.0,-3.4883,-3.4883,-3.5611,-3.6903,-3.8692,-3.9818,-4.1276,-4.3032,-4.3032,-4.2071,-4.0392,-3.8438,-3.7244,0.0,0.0,0.0,0.0,0.0,0.0,0.0,0.0,0.0,0.0,-3.9478,-4.0166,0.0,-4.1868,-4.252,-4.2882,0.0,0.0,0.0,0.0,-4.2882,-4.2991,-4.3425,-4.4983,-4.6468,-4.6432,-4.6106,-4.5961,-4.6323,0.0,0.0,0.0,0.0,0.0,0.0,0.0,0.0,0.0,-5.1864,0.0,0.0,0.0,0.0,0.0,0.0,0.0,0.0,0.0,0.0,0.0,0.0,0.0,0.0,0.0,0.0,0.0,0.0,-8.2287,-8.2287,-8.1925,-8.2324,-8.3483,-8.2287,-8.1925,0.0,0.0,0.0,0.0,0.0,0.0,-8.1128,-8.1128,-8.1128,-8.1128,-8.1128,-8.1128,-8.1128,-8.1128,-8.1128,-8.1128,0.0,0.0,0.0,0.0,0.0,0.0,0.0,0.0,0.0,0.0,0.0,0.0,0.0,0.0,0.0,0.0,0.0,0.0,0.0,0.0,0.0,0.0,-3.5015,-3.5048,-3.5413,-3.5909,-3.7235,-3.9454,-4.0415,-4.1939,-4.3959,-4.4191,-4.2999,-4.0691,-3.8254,-3.7427,0.0,0.0,0.0,0.0,-3.8728,0.0,0.0,0.0,0.0,0.0,0.0,0.0,0.0,-4.2049,-4.2701,-4.2882,-4.2882,0.0,0.0,0.0,0.0,0.0,-4.3353,-4.5128,-4.6902,-4.712,-4.683,-4.6649,-4.7228,0.0,0.0,0.0,0.0,0.0,0.0,0.0,0.0,0.0,0.0,0.0,0.0,0.0,0.0,0.0,0.0,0.0,0.0,0.0,0.0,0.0,0.0,0.0,0.0,0.0,0.0,0.0,0.0,0.0,-8.2106,-8.1454,-8.178,-8.312,-8.1744,-8.1454,-8.207,0.0,0.0,0.0,0.0,0.0,-8.1128,-8.1128,-8.1128,-8.1128,-8.1128,-8.1128,-8.1128,-8.1128,-8.1128,-8.1128,0.0,0.0,0.0,0.0,0.0,0.0,0.0,0.0,0.0,0.0,0.0,0.0,0.0,0.0,0.0,0.0,0.0,0.0,0.0,0.0,0.0,-3.6738,-3.5578,-3.5777,-3.7665,-3.7201,-3.803,-4.0216,-4.217,-4.3926,-4.5483,-4.6742,-4.5607,-4.2445,-4.1062,-3.9496,-3.7936,-3.8322,-3.8894,-3.9548,-3.9629,0.0,0.0,0.0,0.0,0.0,0.0,0.0,0.0,-4.0564,-4.1759,-4.2882,-4.2882,0.0,0.0,0.0,0.0,0.0,-4.5381,-4.7228,-4.7916,-4.5309,-4.5599,-4.6359,-4.5816,0.0,0.0,0.0,0.0,0.0,0.0,0.0,0.0,0.0,0.0,0.0,0.0,0.0,0.0,0.0,0.0,0.0,0.0,0.0,0.0,0.0,0.0,0.0,0.0,0.0,0.0,0.0,0.0,0.0,0.0,-8.1165,-8.1237,-8.1491,-8.1237,-8.1165,-8.1273,-8.1165,-8.1128,0.0,0.0,0.0,-8.1128,-8.1128,-8.1128,-8.1128,-8.1128,-8.1128,-8.1128,-8.1128,-8.1128,-8.1128,0.0,0.0,0.0,0.0,0.0,0.0,0.0,0.0,0.0,0.0,0.0,0.0,0.0,0.0,0.0,0.0,0.0,0.0,0.0,0.0,-3.7533,-3.8261,-3.7268,-3.7168,-3.8195,-3.8659,-3.9951,-4.2137,-4.3926,-4.5549,-4.6974,-4.6507,-4.513,-4.3004,-4.123,-3.9969,-3.9088,-3.8921,-3.9397,-4.0262,0.0,0.0,0.0,0.0,0.0,0.0,0.0,0.0,0.0,0.0,-4.194,-4.2882,-4.2882,0.0,0.0,0.0,0.0,0.0,-4.4765,-4.6395,-4.7482,-4.6866,-4.7591,-4.8351,-4.7989,0.0,0.0,0.0,0.0,0.0,0.0,0.0,0.0,0.0,0.0,0.0,0.0,0.0,0.0,0.0,0.0,0.0,0.0,0.0,0.0,0.0,0.0,0.0,0.0,0.0,0.0,0.0,0.0,0.0,0.0,-8.1128,-8.1128,-8.1128,-8.1128,-8.1128,-8.1128,-8.1128,-8.1128,0.0,0.0,-8.1128,-8.1128,-8.1128,-8.1128,-8.1128,-8.1128,-8.1128,-8.1128,-8.1128,-8.1128,-8.1128,0.0,0.0,0.0,0.0,0.0,0.0,0.0,0.0,0.0,0.0,0.0,0.0,0.0,0.0,0.0,0.0,0.0,0.0,0.0,0.0,-3.8526,-3.9255,-3.8758,-3.8791,-3.9454,-4.0216,-4.1773,-4.4125,-4.5781,-4.7239,-4.853,-4.6599,-4.4842,-4.3149,-4.1317,-4.0323,-4.0104,-3.9627,-4.0001,-4.0967,0.0,0.0,0.0,0.0,0.0,0.0,0.0,0.0,0.0,0.0,0.0,0.0,0.0,0.0,0.0,-4.3643,-4.3317,-4.3462,-4.4838,-4.5997,-4.7192,-4.8786,-4.951,-5.0053,-5.0995,0.0,0.0,0.0,0.0,0.0,0.0,0.0,0.0,0.0,0.0,0.0,0.0,0.0,0.0,0.0,0.0,0.0,0.0,0.0,0.0,0.0,0.0,0.0,0.0,0.0,0.0,0.0,0.0,0.0,0.0,-8.1128,-8.1128,-8.1128,-8.1128,-8.1128,-8.1128,-8.1128,-8.1128,-8.1128,-8.1128,-8.1128,-8.1128,-8.1128,-8.1128,-8.1128,-8.1128,-8.1128,-8.1128,-8.1128,-8.1128,-8.1128,0.0,0.0,0.0,0.0,0.0,0.0,0.0,0.0,0.0,0.0,0.0,0.0,0.0,0.0,0.0,0.0,0.0,0.0,0.0,0.0,-3.8526,-3.9255,-3.9222,-4.0448,-4.3164,-4.1972,-4.2734,-4.5649,-4.7802,-4.9327,-5.0192,-4.8857,-4.6468,-4.3182,-4.2469,-4.1373,-4.0138,-4.0528,-4.0967,-4.1499,-4.1937,0.0,0.0,0.0,0.0,0.0,0.0,0.0,0.0,0.0,0.0,0.0,0.0,0.0,-4.52,-4.5128,-4.4584,-4.4693,-4.7735,-4.8098,-4.7989,-4.9619,-4.951,0.0,-5.3711,-5.3784,0.0,-5.7224,0.0,0.0,0.0,0.0,0.0,0.0,0.0,0.0,0.0,0.0,0.0,0.0,0.0,0.0,0.0,0.0,0.0,0.0,0.0,0.0,0.0,0.0,0.0,0.0,0.0,0.0,0.0,0.0,-8.1128,-8.1128,-8.1128,-8.1128,-8.1128,-8.1128,-8.1128,-8.1128,-8.1128,-8.1128,-8.1128,-8.1128,-8.1128,-8.1128,-8.1128,-8.1128,-8.1128,-8.1128,-8.1128,-8.1128,0.0,0.0,0.0,0.0,0.0,0.0,0.0,0.0,0.0,0.0,0.0,0.0,0.0,0.0,0.0,0.0,0.0,0.0,0.0,-3.8858,-3.9189,-3.9918,-3.9951,-4.111,-4.3562,-4.3959,-4.5351,-4.7868,-4.916,-4.9825,-4.9859,-4.7517,-4.5354,-4.3259,-4.2098,-4.1305,-4.0764,-4.0458,-4.069,-4.1312,-4.163,-4.1209,0.0,0.0,0.0,0.0,0.0,0.0,0.0,0.0,-4.2592,-4.3607,0.0,0.0,-4.5852,-4.4838,-4.4693,-4.5236,-4.6939,-4.7916,-4.8967,-5.1067,-5.1756,0.0,0.0,-5.6102,-5.7659,-6.1353,-6.2512,0.0,0.0,0.0,0.0,0.0,0.0,0.0,0.0,0.0,0.0,0.0,0.0,0.0,0.0,0.0,0.0,0.0,0.0,0.0,0.0,0.0,0.0,0.0,0.0,0.0,0.0,0.0,-8.1128,-8.1128,-8.1128,-8.1128,-8.1128,-8.1128,-8.1128,-8.1128,-8.1128,-8.1128,-8.1128,-8.1128,-8.1128,-8.1128,-8.1128,-8.1128,-8.1128,-8.1128,-8.1128,-8.1128,0.0,0.0,0.0,0.0,0.0,0.0,0.0,0.0,0.0,0.0,0.0,0.0,0.0,0.0,0.0,0.0,0.0,0.0,-3.9288,-3.9288,-3.9541,-4.0017,-4.0249,-4.1276,-4.323,-4.4688,-4.6643,-4.9094,-4.9924,-4.9793,-4.8885,-4.6374,-4.4707,-4.3707,-4.2219,-4.1677,-4.1847,-4.1036,-4.095,-4.146,-4.1499,-4.1042,0.0,0.0,0.0,0.0,0.0,0.0,0.0,0.0,0.0,0.0,0.0,0.0,0.0,0.0,-4.5454,-4.5816,-4.6359,-4.712,-4.8351,0.0,0.0,0.0,-5.8202,-5.9868,-6.1897,-6.6134,0.0,0.0,0.0,0.0,0.0,0.0,0.0,0.0,0.0,0.0,0.0,0.0,0.0,0.0,0.0,0.0,0.0,0.0,0.0,0.0,0.0,0.0,0.0,0.0,0.0,0.0,0.0,0.0,-8.1128,-8.1128,-8.1128,-8.1128,-8.1128,-8.1128,-8.1128,-8.1128,-8.1128,-8.1128,-8.1128,-8.1128,-8.1128,-8.1128,-8.1128,-8.1128,-8.1128,-8.1128,-8.1128,-8.1128,0.0,0.0,0.0,0.0,0.0,0.0,0.0,0.0,0.0,0.0,0.0,0.0,0.0,0.0,0.0,0.0,0.0,0.0,-3.9288,-3.9288,-3.9288,-3.9288,-3.9984,-4.1044,-4.2469,-4.3926,-4.6146,-4.9094,-4.9925,-4.9359,-4.7345,-4.5992,-4.5091,-4.4485,-4.2963,-4.2726,-4.3301,-4.2311,-4.1905,-4.1919,-4.1635,-4.1042,-4.0446,0.0,0.0,0.0,0.0,0.0,0.0,0.0,-4.2882,0.0,0.0,0.0,0.0,0.0,-4.712,-4.6504,-4.6504,-4.5924,0.0,0.0,0.0,0.0,0.0,-6.5627,-6.7003,0.0,0.0,0.0,0.0,0.0,0.0,0.0,0.0,0.0,0.0,0.0,0.0,0.0,0.0,0.0,0.0,0.0,0.0,0.0,0.0,0.0,0.0,0.0,0.0,0.0,0.0,0.0,0.0,0.0,-8.1128,-8.1128,-8.1128,-8.1128,-8.1128,-8.1128,-8.1128,-8.1128,-8.1128,-8.1128,-8.1128,-8.1128,-8.1128,-8.1128,-8.1128,-8.1128,-8.1128,-8.1128,-8.1128,-8.1128,0.0,0.0,0.0,0.0,0.0,0.0,0.0,0.0,0.0,0.0,0.0,0.0,0.0,0.0,0.0,0.0,0.0,0.0,-3.9288,-3.9288,-3.9288,-3.9288,-3.9487,-4.0282,-4.1707,-4.3694,-4.5616,-4.7537,-4.7899,-4.7325,-4.5838,-4.5043,-4.4282,-4.3741,-4.3301,-4.32,-4.3301,-4.197,-4.1988,-4.2909,-4.2509,-4.1985,-4.158,0.0,0.0,0.0,0.0,0.0,0.0,0.0,0.0,0.0,0.0,0.0,0.0,-4.6721,-4.7083,-4.7337,-4.7337,0.0,0.0,0.0,0.0,0.0,0.0,0.0,0.0,0.0,0.0,0.0,0.0,0.0,0.0,0.0,0.0,0.0,0.0,0.0,0.0,0.0,0.0,0.0,0.0,0.0,0.0,0.0,0.0,0.0,0.0,0.0,0.0,0.0,0.0,0.0,0.0,0.0,0.0,-8.1128,-8.1128,-8.1128,-8.1128,-8.1128,-8.1128,-8.1128,-8.1128,-8.1128,-8.1128,-8.1128,-8.1128,-8.1128,-8.1128,-8.1128,-8.1128,-8.1128,-8.1128,-8.1128,0.0,0.0,0.0,0.0,0.0,0.0,0.0,0.0,0.0,0.0,-3.4912,-3.6162,0.0,0.0,0.0,0.0,0.0,0.0,0.0,-3.9288,-3.9388,-3.9686,-3.9421,-3.9951,-4.1375,-4.3621,-4.4915,-4.5308,-4.5996,-4.5784,-4.4767,-4.5134,-4.5081,-4.479,-4.5365,-4.5297,-4.4688,-4.3688,-4.3348,-4.3356,-4.3019,-4.2645,-4.2466,0.0,0.0,0.0,0.0,0.0,0.0,0.0,0.0,0.0,0.0,0.0,0.0,-4.6504,-4.683,-4.7156,-4.683,0.0,0.0,0.0,0.0,0.0,0.0,0.0,0.0,0.0,0.0,0.0,0.0,0.0,0.0,0.0,0.0,0.0,0.0,0.0,0.0,0.0,0.0,0.0,0.0,0.0,0.0,0.0,0.0,0.0,0.0,0.0,0.0,0.0,0.0,0.0,0.0,0.0,0.0,-8.0621,-8.0621,-8.0802,-8.1128,-8.1128,-8.0947,-8.0621,-8.0621,-8.0621,-8.0621,-8.0621,-8.0802,-8.1092,-8.0766,-8.0839,-8.1128,-8.1128,-8.1128,-8.1128,0.0,0.0,0.0,0.0,0.0,0.0,0.0,0.0,0.0,0.0,-3.5305,-3.658,0.0,0.0,0.0,0.0,0.0,0.0,0.0,0.0,-3.9587,-4.0249,-3.9752,-4.0117,-4.1475,-4.358,-4.4131,-4.2898,-4.4474,-4.48,-4.403,-4.5925,-4.6752,-4.6752,-4.8173,-4.8003,-4.6675,-4.6281,-4.5097,-4.3525,-4.3237,-4.3147,-4.3178,-4.2929,0.0,0.0,0.0,0.0,0.0,0.0,0.0,0.0,0.0,0.0,0.0,-4.6613,-4.6576,-4.6395,0.0,0.0,0.0,0.0,0.0,0.0,0.0,0.0,0.0,0.0,0.0,0.0,0.0,0.0,0.0,0.0,0.0,0.0,0.0,0.0,0.0,0.0,0.0,0.0,0.0,0.0,0.0,0.0,0.0,0.0,0.0,0.0,0.0,0.0,0.0,0.0,0.0,0.0,0.0,0.0,0.0,-8.0187,-8.0875,-8.0984,-8.0549,-7.9788,-7.9788,-7.9788,-7.9788,-7.9788,-8.0223,-8.0839,-8.0151,-8.0368,-8.102,-8.1092,-8.1128,-8.1128,0.0,0.0,0.0,0.0,0.0,0.0,0.0,0.0,0.0,0.0,0.0,0.0,0.0,0.0,0.0,0.0,0.0,0.0,0.0,0.0,-3.9355,-3.952,-4.0448,-4.1375,-4.227,-4.2941,-4.3398,-4.3664,-4.4825,-4.4673,-4.3429,-4.5747,-4.6481,-4.5974,-4.6853,-4.6786,-4.5838,-4.4597,-4.4156,-4.4304,-4.4026,-4.394,-4.4042,-4.4752,-4.4769,0.0,0.0,0.0,0.0,0.0,0.0,0.0,0.0,-4.6504,-4.6613,-4.7265,-4.7011,0.0,0.0,0.0,0.0,0.0,0.0,0.0,0.0,0.0,0.0,0.0,0.0,0.0,0.0,0.0,0.0,0.0,0.0,0.0,0.0,0.0,0.0,0.0,0.0,0.0,0.0,0.0,0.0,0.0,0.0,0.0,0.0,0.0,0.0,0.0,0.0,0.0,0.0,0.0,-7.8774,0.0,-7.8955,-7.9064,-7.9245,-7.9861,-7.9716,-7.8955,-7.8955,-7.8955,-7.8955,-7.8955,-7.9064,-7.9245,-7.9716,-8.0006,-8.0223,-8.0875,-8.1128,-8.1128,0.0,0.0,0.0,0.0,0.0,0.0,0.0,0.0,0.0,0.0,0.0,0.0,0.0,0.0,0.0,0.0,0.0,0.0,0.0,0.0,-3.9288,-3.9288,-4.0647,-4.1442,-4.1508,-4.2399,-4.3079,-4.348,-4.4505,-4.4552,-4.3755,-4.622,-4.6921,-4.6278,-4.7361,-4.7403,-4.651,-4.5106,-4.4818,-4.5267,-4.4906,-4.5006,-4.5515,-4.563,-4.563,-4.5564,-4.5771,0.0,0.0,0.0,0.0,0.0,0.0,0.0,-4.7083,-4.712,-4.683,0.0,0.0,0.0,0.0,0.0,0.0,0.0,0.0,0.0,0.0,0.0,0.0,0.0,0.0,0.0,0.0,0.0,0.0,0.0,0.0,0.0,0.0,0.0,0.0,0.0,0.0,0.0,0.0,0.0,0.0,0.0,0.0,0.0,0.0,0.0,0.0,0.0,-7.642,-7.642,-7.6601,-7.7,-7.7,-7.7,-7.7,-7.7796,-7.8159,-7.8086,-7.7724,-7.776,-7.8122,-7.8122,-7.8593,-7.9281,-7.9318,-7.9788,-8.0549,-8.0947,-8.1128,-8.1128,0.0,0.0,0.0,0.0,0.0,0.0,0.0,0.0,0.0,0.0,0.0,0.0,0.0,0.0,0.0,0.0,0.0,0.0,0.0,0.0,0.0,-3.9454,-4.0613,-4.1067,-4.0636,-4.2211,-4.3048,-4.3048,-4.4103,-4.4699,-4.499,-4.6828,-4.7462,-4.7022,-4.8003,-4.8099,-4.7339,-4.5796,-4.5377,-4.58,-4.5338,-4.5795,-4.6682,-4.6132,-4.6227,-4.6721,-4.6721,-4.6721,-4.683,-4.7482,0.0,0.0,0.0,0.0,-4.7554,-4.6757,-4.6504,-4.6757,0.0,0.0,0.0,0.0,0.0,0.0,0.0,0.0,0.0,0.0,0.0,0.0,0.0,0.0,0.0,0.0,0.0,0.0,0.0,0.0,0.0,0.0,0.0,0.0,0.0,0.0,0.0,0.0,0.0,0.0,0.0,0.0,0.0,0.0,0.0,0.0,-7.3921,-7.3921,-7.4247,-7.4899,-7.4899,-7.4899,-7.4935,-7.5442,-7.613,-7.6855,-7.6311,-7.6384,-7.6891,-7.7181,-7.8086,-7.9245,-7.8847,-7.9607,-8.0911,-8.1056,-8.1128,-8.1128,0.0,0.0,0.0,0.0,0.0,0.0,0.0,0.0,0.0,0.0,-3.5142,0.0,0.0,0.0,0.0,0.0,0.0,0.0,0.0,0.0,0.0,-4.0216,-4.0525,-4.0945,-4.151,-4.259,-4.316,-4.316,-4.4159,-4.5568,-4.7402,-4.7124,-4.7259,-4.7733,-4.6616,-4.6438,-4.6699,-4.3965,-4.3545,-4.4763,-4.4474,-4.5092,-4.6244,-4.66,-4.7052,-4.7554,-4.7554,-4.7554,-4.7554,-4.7663,-4.7699,0.0,0.0,0.0,-4.7554,-4.6757,-4.6504,0.0,0.0,0.0,0.0,0.0,0.0,0.0,0.0,0.0,0.0,0.0,0.0,0.0,0.0,0.0,0.0,0.0,0.0,0.0,0.0,0.0,0.0,0.0,0.0,0.0,0.0,0.0,0.0,0.0,0.0,0.0,0.0,0.0,0.0,0.0,0.0,0.0,-7.3921,-7.3921,-7.3957,-7.4066,-7.4066,-7.4066,-7.4066,-7.345,-7.3631,-7.4428,-7.5008,-7.4935,-7.45,-7.5877,-7.6565,-7.6891,-7.8195,-7.9245,-8.0151,-8.0839,-8.1128,-8.1128,0.0,0.0,0.0,0.0,0.0,0.0,0.0,0.0,0.0,0.0,0.0,0.0,0.0,0.0,0.0,0.0,0.0,0.0,0.0,0.0,0.0,-3.9752,-3.9914,-4.0334,-4.1067,-4.2043,-4.2812,-4.3182,-4.4159,-4.594,0.0,-4.8612,-4.9255,-5.027,-4.797,-4.7267,-4.7626,-4.4347,-4.3644,-4.4888,-4.5126,-4.5768,-4.6613,-4.7151,-4.7493,-4.7699,-4.7699,-4.7699,-4.7699,-4.7699,-4.7699,-4.7663,-4.7301,0.0,0.0,0.0,0.0,0.0,0.0,0.0,0.0,0.0,0.0,0.0,0.0,0.0,0.0,0.0,0.0,0.0,0.0,0.0,0.0,0.0,0.0,0.0,0.0,0.0,0.0,0.0,0.0,0.0,0.0,0.0,0.0,0.0,0.0,0.0,0.0,-7.2798,-7.2581,-7.2581,-7.2581,0.0,-7.1929,-7.2364,-7.2581,-7.2545,-7.2146,-7.2146,-7.2545,-7.2183,-7.2726,-7.3921,-7.3812,-7.4102,-7.4645,-7.5334,-7.642,-7.7724,-7.8412,-7.9462,-8.0621,-8.0984,-8.1128,-8.1128,0.0,0.0,0.0,0.0,0.0,0.0,0.0,0.0,0.0,0.0,0.0,0.0,0.0,0.0,0.0,0.0,0.0,0.0,0.0,0.0,0.0,-3.9288,-3.9501,-3.9787,-4.0374,-4.158,-4.2429,-4.2968,-4.3855,0.0,-4.956,-4.9932,-5.1386,-5.3585,-5.0439,-4.8923,-4.8586,-4.5499,-4.478,-4.5734,-4.5971,-4.6259,-4.6788,-4.7702,-4.788,-4.7735,-4.7953,-4.788,-4.7699,-4.7699,-4.7844,-4.7989,-4.7772,-4.7844,0.0,0.0,0.0,0.0,0.0,0.0,0.0,0.0,0.0,0.0,0.0,0.0,0.0,0.0,0.0,0.0,0.0,0.0,0.0,0.0,0.0,0.0,0.0,0.0,0.0,0.0,0.0,0.0,0.0,0.0,0.0,0.0,0.0,0.0,0.0,-7.1241,-7.0915,-7.0915,-7.0915,-7.0734,-7.0372,-7.0951,-7.1132,-7.0915,-7.0553,-7.0661,-7.1241,-7.1422,-7.2146,-7.3269,-7.2871,-7.3378,-7.4537,-7.4935,-7.642,-7.8412,-7.8412,-7.939,-8.0802,-8.0802,-8.0802,-8.0839,0.0,0.0,0.0,0.0,0.0,0.0,0.0,0.0,0.0,0.0,0.0,0.0,-3.9028,-3.8668,-3.8557,-3.9255,-3.9288,0.0,0.0,0.0,0.0,-3.9288,-3.952,0.0,-3.9744,-4.1384,-4.232,-4.2354,0.0,0.0,-5.1082,-5.0405,-5.2773,-5.7442,-5.3721,-5.0913,-4.8843,-4.7055,-4.6862,-4.7665,-4.635,-4.5939,-4.635,-4.8147,-4.8387,-4.7808,-4.8568,-4.8351,-4.7699,-4.7699,-4.8206,-4.8713,-4.7953,-4.8242,-4.8713,0.0,0.0,0.0,0.0,0.0,0.0,0.0,0.0,0.0,0.0,0.0,0.0,0.0,0.0,0.0,0.0,0.0,0.0,0.0,0.0,0.0,0.0,0.0,0.0,0.0,0.0,0.0,0.0,0.0,0.0,0.0,0.0,0.0,-6.943,-6.9321,-6.9285,-6.9285,-6.9285,-6.9647,-7.0372,-7.0444,-7.0046,-6.9321,-7.0046,-7.0408,-7.048,-7.1168,-7.1567,-7.1675,-7.24,-7.2762,-7.2943,-7.45,-7.6094,-7.7543,-7.7543,-7.8557,-7.9969,-7.9969,-7.9969,-8.0078,0.0,0.0,0.0,0.0,0.0,0.0,0.0,0.0,0.0,0.0,0.0,0.0,0.0,-3.9094,-3.904,-3.9288,-3.9288,0.0,0.0,0.0,0.0,-3.9448,-3.9711,-4.027,-4.1244,-4.1909,-4.276,0.0,0.0,-4.5602,-4.8409,-4.956,-5.0845,-5.2164,-5.1792,-5.1677,-5.1473,-4.7636,-4.6893,0.0,-4.7131,-4.7298,-4.8176,-4.8127,-4.8279,-4.8532,0.0,0.0,0.0,-4.9075,-4.9075,-4.8967,-4.9184,-4.9075,-4.8858,-4.8568,-4.7373,-4.6685,0.0,0.0,0.0,0.0,0.0,0.0,0.0,0.0,0.0,0.0,0.0,0.0,0.0,0.0,0.0,0.0,0.0,0.0,0.0,0.0,0.0,0.0,0.0,0.0,0.0,0.0,0.0,0.0,0.0,0.0,-6.9213,-6.9176,-6.9176,-6.9176,-6.9176,-6.9321,-6.9611,-6.8597,-6.8452,-6.9176,-6.8959,-6.9394,-7.0372,-7.0118,-7.0553,-7.1531,-7.182,-7.2545,-7.3559,-7.4682,-7.6058,-7.7543,-7.8086,-7.8955,-7.9861,-7.9318,-7.9788,-8.0658,0.0,0.0,0.0,0.0,0.0,0.0,0.0,0.0,-3.5973,-3.7235,0.0,0.0,0.0,0.0,-3.9288,-3.9288,-3.9288,-3.9288,-3.9288,-3.9395,-3.9448,-3.9501,-3.9677,-4.0404,-4.1701,-4.1861,-4.2658,-4.4181,-4.3944,-4.4959,0.0,-4.8409,-4.9255,-4.9763,-4.9999,-5.1167,0.0,0.0,0.0,-5.0045,0.0,-4.8919,-5.0449,-5.02,0.0,0.0,0.0,0.0,0.0,0.0,-4.951,-4.9401,-4.9908,-4.9908,-4.9655,-4.9401,-4.7989,-4.6975,-4.9112,0.0,0.0,0.0,0.0,0.0,0.0,0.0,0.0,0.0,0.0,0.0,0.0,0.0,0.0,0.0,0.0,0.0,0.0,0.0,0.0,0.0,0.0,0.0,0.0,0.0,0.0,0.0,0.0,0.0,-6.838,-6.838,-6.8271,-6.7981,-6.7981,-6.7836,-6.7583,-6.6786,-6.6931,-6.7981,-6.7438,-6.8054,-6.9575,-6.9032,-6.9647,-7.1132,-7.1132,-7.2183,-7.3993,-7.479,-7.6203,-7.7905,-7.7905,-7.8557,-7.939,-7.8593,-7.9136,-8.0259,0.0,0.0,0.0,0.0,0.0,0.0,0.0,0.0,-3.5973,-3.7266,0.0,0.0,0.0,0.0,0.0,-3.9322,-3.9375,-3.9375,-3.9322,-3.9375,-3.9428,-3.9534,-3.9659,-4.015,-4.0995,-4.1219,-4.1982,-4.347,-4.2726,-4.4215,-4.7767,-4.709,-4.8308,-5.098,-4.8883,-4.9526,-5.2298,0.0,-5.3714,-5.303,0.0,-5.0659,-5.311,0.0,0.0,0.0,-5.5703,-5.4508,0.0,-4.9908,0.0,0.0,-5.0162,-5.0669,-5.1104,-5.0343,-4.9546,-4.8931,0.0,0.0,0.0,0.0,0.0,0.0,0.0,0.0,0.0,0.0,0.0,0.0,0.0,0.0,0.0,0.0,0.0,0.0,0.0,0.0,0.0,0.0,0.0,0.0,0.0,0.0,0.0,0.0,0.0,0.0,-6.675,-6.675,-6.6388,-6.5591,-6.5555,-6.5192,-6.4396,-6.5156,-6.5555,-6.5555,-6.5555,-6.6424,-6.7981,-6.7981,-6.885,-7.0372,-7.0444,-7.1748,-7.3957,-7.479,-7.6492,-7.8484,-7.6963,-7.7326,-7.8593,-7.7833,-7.805,-7.8847,0.0,0.0,0.0,0.0,0.0,-3.504,-3.4562,-3.5455,-3.6445,0.0,0.0,0.0,-3.9202,-3.9752,-4.0282,-4.0779,-4.0956,-4.0956,-4.0812,-4.0642,-4.0481,-4.03,-4.0587,-4.1081,-4.1769,-4.2469,-4.3301,-4.4248,-4.4045,-4.4181,-4.4688,-4.5602,-4.6447,0.0,-4.8274,-4.9154,-4.9864,-4.9168,0.0,0.0,-4.9838,-5.0909,0.0,0.0,0.0,0.0,0.0,-5.5124,-5.4907,0.0,-5.382,-5.3385,-5.219,-5.1176,-5.0488,-5.085,-4.9981,-4.8931,-4.8931,0.0,0.0,0.0,0.0,0.0,0.0,0.0,0.0,0.0,0.0,0.0,0.0,0.0,0.0,0.0,0.0,0.0,0.0,0.0,0.0,0.0,0.0,0.0,0.0,0.0,0.0,0.0,0.0,-6.5301,-6.5917,-6.5917,-6.5555,-6.4758,-6.4722,-6.4613,-6.4396,-6.4613,-6.4722,-6.4722,-6.4722,-6.5555,-6.7148,-6.7148,-6.8343,-7.0444,-7.1567,-7.2436,-7.316,-7.4537,-7.5841,-7.7036,-7.776,-7.8303,-7.8666,-7.8448,-7.8883,-7.9607,0.0,0.0,0.0,0.0,0.0,-3.537,-3.4981,-3.6006,-3.7002,0.0,0.0,0.0,-3.9632,-4.0945,-4.1541,-4.11,-4.1388,-4.1421,-4.1067,-4.1121,-4.103,-4.0708,-4.1191,-4.1721,-4.2179,-4.2672,-4.347,-4.4587,-4.4248,-4.4045,-4.391,-4.4823,-4.5229,-4.5297,0.0,0.0,0.0,0.0,0.0,0.0,-5.0397,0.0,0.0,-5.4517,-5.5533,0.0,0.0,0.0,-5.834,-5.6597,-5.5541,0.0,0.0,-5.1756,-5.2009,-5.1466,-5.0633,-4.9836,-4.9474,-4.8568,-4.7953,-4.8967,0.0,0.0,0.0,0.0,0.0,0.0,0.0,0.0,0.0,0.0,0.0,0.0,0.0,0.0,0.0,0.0,0.0,0.0,0.0,0.0,0.0,0.0,0.0,0.0,-6.407,-6.4251,-6.5048,-6.4758,-6.4359,-6.3889,-6.3563,-6.3418,-6.3418,-6.3418,-6.3563,-6.3889,-6.3889,-6.4722,-6.6315,-6.6641,-6.7945,-6.9937,-7.1205,-7.211,-7.2762,-7.374,-7.4971,-7.6384,-7.7326,-7.8122,-7.8666,-7.8303,-7.8919,-7.9897,0.0,0.0,-3.3814,-3.4472,-3.516,-3.5669,-3.5818,-3.6801,-3.7592,0.0,-3.8541,-3.956,-4.0955,-4.27,-4.3057,-4.1311,-4.1465,-4.1465,-4.0945,-4.1355,-4.1411,-4.105,-4.1686,-4.2186,-4.2422,-4.2489,-4.32,-4.4587,-4.3876,-4.391,-4.4587,-4.4587,-4.4587,-4.4587,0.0,0.0,0.0,0.0,0.0,-4.9642,-5.1133,-5.3626,0.0,0.0,-6.0224,0.0,-6.1938,-6.2295,-6.1736,-5.7911,-5.6008,0.0,0.0,0.0,0.0,-5.2299,-5.1647,-5.1393,-5.0669,-4.951,-4.8967,-5.0814,-4.8749,0.0,-5.0053,-4.8605,0.0,0.0,0.0,0.0,0.0,0.0,0.0,0.0,0.0,0.0,0.0,0.0,0.0,0.0,0.0,0.0,0.0,0.0,0.0,-6.4033,-6.3526,-6.3454,-6.4106,-6.3526,-6.3164,-6.3056,-6.2367,-6.2005,-6.2005,-6.2005,-6.2367,-6.3056,-6.3164,-6.4033,-6.5627,-6.6533,-6.78,-6.9358,-7.0263,-7.1386,-7.2581,-7.2762,-7.4138,-7.6167,-7.6167,-7.7144,-7.8484,-7.7869,-7.8593,-7.9933,0.0,-3.3844,-3.4502,-3.519,-3.5848,-3.6656,-3.7674,-3.8046,-3.8811,-4.045,-4.2291,-4.4004,-4.5483,-4.4953,-4.4556,-4.4782,-4.3913,-4.3281,-4.2999,-4.2798,-4.2579,-4.2422,-4.2747,-4.298,-4.3002,-4.3753,-4.4282,-4.4587,-4.4418,-4.4418,-4.4587,-4.4587,-4.4587,-4.4587,-4.4587,0.0,0.0,0.0,0.0,-4.6748,-4.9203,0.0,-5.6611,-5.7512,-5.9522,-6.1912,-6.2707,-6.301,-6.2745,-6.0677,-5.8968,-5.7478,0.0,0.0,0.0,-5.4146,-5.3748,-5.3204,-5.3023,-5.3241,-5.3132,-5.1647,-5.1683,0.0,-4.8134,-4.7446,0.0,0.0,0.0,0.0,0.0,0.0,0.0,0.0,0.0,0.0,0.0,0.0,0.0,0.0,0.0,0.0,0.0,0.0,0.0,-6.2404,-6.2911,-6.2983,-6.2512,-6.2911,-6.2911,-6.2259,-6.2114,-6.2005,-6.2005,-6.2005,-6.2114,-6.2259,-6.2875,-6.4033,-6.5663,-6.7112,-6.8633,-7.0227,-7.1639,-7.2074,-7.182,-7.3124,-7.4319,-7.5334,-7.5334,-7.6311,-7.7796,-7.8267,-7.9064,-8.0006,-3.3425,-3.4292,-3.519,-3.5878,-3.6776,-3.7644,-3.8302,-3.9565,-4.0797,-4.1904,-4.4854,-4.6742,-4.6378,-4.6676,-4.6311,-4.4942,-4.4477,-4.3979,-4.3215,-4.324,-4.3189,-4.2912,-4.3417,-4.353,-4.3293,-4.4181,-4.4587,-4.4587,-4.4587,-4.4587,-4.4587,-4.4587,-4.4587,-4.4587,-4.4587,0.0,0.0,0.0,-4.6244,-4.6515,-4.9733,0.0,-5.568,-5.7491,-5.9814,-6.221,-6.2584,-6.2988,-6.3151,-6.1901,-6.0899,0.0,0.0,-5.6319,-5.6428,0.0,-5.4617,-5.4037,-5.2842,-5.248,-5.2408,-5.2009,0.0,0.0,0.0,-4.7373,0.0,0.0,0.0,0.0,0.0,0.0,0.0,0.0,0.0,0.0,0.0,0.0,0.0,0.0,0.0,0.0,0.0,0.0,-6.0375,-6.0774,-6.1172,-6.139,-6.1426,-6.1788,-6.2005,-6.2005,-6.2005,-6.2005,-6.2005,-6.2005,-6.2223,-6.2621,-6.3816,-6.5011,-6.6279,-6.8271,-6.9647,-7.0444,-7.1603,-7.211,-7.2146,-7.2545,-7.3197,-7.3957,-7.4356,-7.5478,-7.7,-7.7796,-7.8847,-8.0042,-3.3694,-3.4681,-3.5699,-3.6357,-3.7434,-3.8272,-3.8542,-4.0447,-4.2212,-4.3055,-4.6778,-4.8763,-4.7239,-4.8166,-4.8033,-4.5868,-4.5009,-4.4411,-4.3972,-4.378,-4.3539,-4.3227,-4.3954,-4.4202,-4.3876,-4.4485,-4.4857,-4.4993,-4.4722,-4.4722,-4.4993,-4.4722,-4.4722,-4.4993,-4.4857,0.0,0.0,0.0,0.0,-4.7496,0.0,-5.2891,-5.4385,-5.7561,-6.0006,-6.1936,-6.2366,-6.2995,-6.3471,-6.2379,-6.2161,-6.1515,-5.7355,-5.7695,0.0,0.0,0.0,0.0,0.0,0.0,0.0,0.0,0.0,-5.1212,0.0,0.0,0.0,0.0,0.0,0.0,0.0,0.0,0.0,0.0,0.0,0.0,0.0,0.0,0.0,0.0,0.0,0.0,0.0,0.0,0.0,-5.9361,-5.9216,-5.9579,-6.052,-6.0593,-6.081,-6.1317,-6.1643,-6.1716,-6.1571,-6.186,-6.2404,-6.32,-6.4649,-6.5953,-6.7112,-6.9213,-7.0299,-7.0625,-7.1241,-7.1857,-7.2436,-7.1929,-7.211,-7.2762,-7.345,-7.4754,-7.6384,-7.7181,-7.8629,-8.0223,-3.4352,-3.4981,-3.5699,-3.6357,-3.7045,-3.7913,-3.911,-3.9573,-4.1122,-4.4976,-4.8128,-5.0485,-5.1512,-4.9659,-4.936,-5.2042,-4.7328,-4.5357,-4.8232,-4.5629,-4.4006,-4.3997,-4.4783,-4.5293,-4.5466,-4.5534,-4.5906,-4.6549,-4.5229,-4.5263,-4.6515,-4.5196,-4.5297,-4.6515,-4.5872,0.0,0.0,0.0,-4.8105,0.0,-5.0642,-5.1799,0.0,-5.6625,-5.8959,-6.0499,-6.2645,-6.3865,-6.4214,0.0,-6.262,-6.2809,0.0,-5.9905,-5.9542,-5.918,0.0,0.0,0.0,0.0,0.0,0.0,-5.8094,0.0,0.0,0.0,0.0,0.0,0.0,0.0,0.0,0.0,0.0,0.0,0.0,0.0,0.0,0.0,0.0,0.0,0.0,0.0,0.0,0.0,0.0,0.0,-5.7876,-5.813,-5.9651,-5.976,-5.947,-5.8818,-6.0194,-6.0593,-5.9905,-6.1317,-6.2404,-6.32,-6.4106,-6.57,-6.7909,-6.8887,-7.0082,-7.1386,-7.1458,-7.1567,-7.1675,-7.2327,-7.2617,-7.2726,-7.2798,-7.4247,-7.6384,-7.7181,-7.8955,-8.0984,-3.3993,-3.4771,-3.5699,-3.6357,-3.6985,-3.7853,-3.923,-4.2571,-4.5769,-4.7987,-5.1251,-5.3732,-5.4759,-5.3838,-5.3208,-5.34,0.0,-4.8596,0.0,0.0,-4.519,-4.5369,-4.5731,-4.5875,-4.5703,-4.6109,-4.6278,-4.6143,-4.5974,-4.6177,-4.6786,-4.6143,-4.621,-4.6786,-4.6481,0.0,-4.6853,0.0,0.0,0.0,0.0,0.0,0.0,-5.5792,-5.8734,-6.0974,-6.2857,-6.3693,-6.3691,0.0,-6.2287,0.0,0.0,0.0,0.0,0.0,0.0,0.0,0.0,0.0,0.0,0.0,0.0,0.0,-5.3038,0.0,-5.0995,0.0,0.0,0.0,0.0,0.0,0.0,0.0,0.0,0.0,0.0,0.0,0.0,0.0,0.0,0.0,0.0,0.0,0.0,0.0,0.0,-5.5848,-5.7442,-5.7949,-5.8492,-5.9072,-5.976,-6.0194,-6.0303,-6.0991,-6.1933,-6.32,-6.4468,-6.6134,-6.8054,-6.9321,-7.048,-7.1494,-7.1494,-7.1494,-7.1567,-7.2364,-7.2726,-7.2762,-7.3233,-7.4319,-7.5696,-7.6492,-7.805,-7.9861,-3.3903,-3.4711,-3.5639,-3.6118,-3.6746,-3.7803,-3.9768,-4.4475,-4.836,-4.9904,-5.2795,0.0,-5.6812,-5.6724,0.0,0.0,-5.4369,-5.208,0.0,0.0,-4.6724,-4.6307,-4.6596,-4.6615,-4.6312,-4.6819,-4.6955,-4.6616,-4.6718,-4.6989,-4.7394,-4.6989,-4.7022,-4.7394,0.0,-4.753,-4.7733,0.0,0.0,-4.9221,-5.027,-5.1386,-5.2773,-5.5683,-5.8423,-6.0842,-6.2122,-6.2675,-6.2724,-6.1501,-6.1901,0.0,-6.1084,0.0,0.0,0.0,0.0,0.0,-5.8591,0.0,0.0,0.0,0.0,0.0,0.0,0.0,0.0,0.0,0.0,0.0,0.0,0.0,-4.8822,-5.0959,0.0,0.0,0.0,0.0,0.0,0.0,0.0,0.0,0.0,0.0,0.0,0.0,-5.2045,0.0,-5.4617,-5.5667,-5.679,-5.7949,-5.8601,-5.9325,-6.0122,-6.0593,-6.1607,-6.32,-6.4613,-6.6098,-6.7728,-6.9104,-7.0154,-7.0879,-7.1096,-7.1313,-7.1603,-7.2553,-7.3132,-7.3414,-7.3711,-7.4471,-7.5515,-7.6094,-7.7326,-7.8883,-3.4592,-3.5011,-3.5519,-3.5519,0.0,-3.7714,-4.1063,-4.3482,0.0,0.0,0.0,0.0,0.0,0.0,0.0,0.0,0.0,-5.5288,-5.6282,0.0,-4.8677,0.0,0.0,-4.7868,-4.7834,-4.7868,-4.8206,-4.8883,-4.7496,-4.753,-4.8917,-4.7462,-4.7564,-4.8951,-4.8951,-4.9323,-5.0033,-5.0777,-5.1522,-5.2164,-5.2198,-5.3585,-5.5683,0.0,-5.7746,-5.9167,-5.9953,0.0,0.0,-6.1208,-6.1703,0.0,0.0,0.0,0.0,0.0,0.0,0.0,0.0,0.0,0.0,-5.8372,0.0,0.0,0.0,0.0,-5.6355,0.0,0.0,0.0,0.0,-5.2915,-5.2082,-5.1393,-5.1864,0.0,0.0,0.0,0.0,0.0,0.0,0.0,0.0,0.0,0.0,0.0,-5.0162,0.0,-5.1393,-5.2951,-5.3856,-5.3892,-5.6102,-5.7659,-5.8456,-6.0013,-6.1607,-6.32,-6.4033,-6.5265,-6.6858,-6.7692,-6.8525,-6.9285,-7.0082,-7.0842,-7.1639,-7.3038,-7.4224,-7.4905,-7.4049,-7.4766,-7.6239,-7.6275,-7.7326,-7.881,-3.5848,-3.5998,-3.6028,0.0,0.0,0.0,0.0,-4.5028,0.0,0.0,0.0,0.0,0.0,0.0,-6.4314,0.0,0.0,-6.0598,-5.8742,-5.5749,0.0,0.0,0.0,-5.0548,0.0,-4.9593,-4.9492,-4.8274,-4.8274,-4.8511,-4.8984,-4.8477,-4.8511,-4.9018,0.0,-4.9154,0.0,0.0,0.0,0.0,0.0,-5.504,-5.7881,0.0,0.0,-5.9032,-5.9302,-5.9877,0.0,-6.0483,-6.096,-6.1493,-6.1002,-6.1294,-6.1765,-6.1293,-6.1812,0.0,0.0,0.0,-6.3588,-5.9786,0.0,0.0,0.0,0.0,0.0,0.0,0.0,0.0,0.0,-5.4617,-5.3639,-5.2299,-5.1864,-5.0778,0.0,0.0,0.0,0.0,0.0,0.0,0.0,0.0,0.0,-4.6178,-4.8605,-5.0198,0.0,-5.2552,-5.4182,-5.5196,-5.5993,-5.7043,-5.8383,-5.8927,-6.0013,-6.1607,-6.244,-6.3925,-6.6025,-6.6858,-6.7945,-6.9213,-6.9466,-7.0335,-7.1603,-7.2532,-7.3435,-7.4319,-7.3868,-7.4477,-7.5515,-7.5515,-7.6529,-7.7941,-3.6806,0.0,0.0,0.0,0.0,0.0,0.0,0.0,0.0,0.0,-5.999,0.0,-6.6987,0.0,-6.7902,0.0,-6.6679,-6.4447,-6.0491,-5.9198,0.0,-5.4794,-5.4022,0.0,0.0,-5.1014,-5.027,-4.8308,-4.9052,-4.9255,-4.9018,-4.9018,-4.9018,-4.9018,0.0,0.0,0.0,0.0,-5.0811,0.0,0.0,-5.5716,0.0,0.0,-5.8524,-5.9302,0.0,-5.8863,-5.9708,-5.9708,-6.0177,-6.0784,-6.057,-6.0955,-6.1432,-6.1277,-6.1834,-6.2472,-6.1953,-6.2749,0.0,-6.0431,-5.9319,0.0,-5.5883,0.0,0.0,0.0,0.0,0.0,0.0,-5.6269,-5.5147,-5.3243,-5.2521,-5.1321,0.0,-4.788,0.0,0.0,0.0,0.0,0.0,0.0,-4.5961,-4.4621,-4.7192,-4.8931,0.0,0.0,-5.3277,-5.5124,-5.545,-5.65,-5.8383,-5.8383,-5.9216,-6.081,-6.1643,-6.3128,-6.5192,-6.5931,-6.7017,-6.8343,-6.8536,-6.9586,-7.1205,-7.2135,-7.3038,-7.3826,-7.4049,-7.4483,-7.5014,-7.4724,-7.5877,-7.7507,0.0,0.0,0.0,0.0,-3.8212,0.0,0.0,0.0,-5.3984,0.0,-6.1843,-6.5076,-6.7255,-6.7892,-6.8677,-7.0076,-6.939,0.0,-6.2116,-6.2582,0.0,0.0,-5.5308,-5.4532,-5.3619,0.0,-5.0578,-4.912,-4.9729,-4.9695,-4.9052,-4.9018,-4.9018,-4.9052,-4.9729,0.0,-5.1183,-5.1183,-5.2131,-5.3687,-5.5108,-5.575,-5.6021,-5.7273,0.0,-5.9776,-5.7611,-5.7746,-5.8896,-5.8896,-5.9404,-6.0114,-6.0892,-6.0655,-6.025,-6.1061,-6.1332,-6.1316,-6.1277,-6.1872,-6.1979,-6.0346,0.0,0.0,0.0,0.0,-6.1223,0.0,0.0,0.0,0.0,-5.7882,-5.6479,-5.4099,-5.3612,-5.2733,-5.0452,-4.951,-4.9039,0.0,0.0,0.0,0.0,-4.7011,-4.6214,-4.5345,-4.6106,0.0,0.0,0.0,0.0,-5.3639,-5.4472,-5.6029,-5.8311,-5.8347,-5.9144,-6.0774,-6.1534,-6.2766,-6.4359,-6.4983,-6.5777,-6.6786,-6.7367,-6.8692,-7.0517,-7.1882,-7.2936,-7.3694,-7.4488,-7.4849,-7.488,-7.4254,-7.5515,-7.7507,-3.7494,-3.8332,-3.9349,0.0,-3.9738,-4.0952,0.0,0.0,0.0,0.0,-6.4808,-6.819,-6.9783,-7.044,-7.0623,-7.0456,-7.0509,0.0,0.0,0.0,0.0,-6.2165,-6.0829,-5.8395,-5.4787,-5.378,-5.2371,-5.0483,-4.9573,-4.9367,-4.9796,-4.9255,-4.9018,-4.9018,0.0,0.0,-5.0405,-5.098,-5.2435,-5.4329,-5.4735,-5.619,0.0,0.0,-5.7036,-5.9167,-5.8017,-5.7509,-5.7374,-5.7374,-5.7848,-5.849,-5.8693,-5.937,-6.025,-6.1061,-6.167,-6.212,-6.2072,-6.3033,-6.3631,-6.2048,-6.1188,-6.0393,0.0,0.0,0.0,0.0,0.0,0.0,0.0,0.0,-5.6366,-5.3315,-5.1808,-5.0995,-5.0995,-5.0814,0.0,-5.0669,0.0,0.0,0.0,-4.7518,-4.683,-4.5417,-4.7156,0.0,0.0,0.0,0.0,-5.3639,-5.4472,-5.574,-5.7478,-5.7514,-5.8311,-5.9905,-6.0122,-6.139,-6.3526,-6.4116,-6.4888,-6.5741,-6.6476,-6.8064,-7.0256,-7.1038,-7.1939,-7.2936,-7.4208,-7.4781,-7.5122,-7.5551,-7.6456,-7.7507,-3.917,0.0,0.0,-4.303,0.0,0.0,-4.8744,0.0,0.0,-6.0932,-6.5462,0.0,-6.8752,-7.075,-7.1593,-7.0616,-7.1537,0.0,-6.9031,0.0,0.0,-6.543,-6.3732,-6.1153,-5.7624,-5.5548,0.0,-5.0957,0.0,-4.9434,-4.9593,-4.9187,-4.9018,-4.9018,0.0,-4.939,0.0,-5.1251,-5.2435,-5.3653,-5.4329,0.0,0.0,-5.5581,-5.6122,-5.7509,-5.7103,-5.6867,-5.6867,-5.7171,-5.7543,-5.7881,-5.7881,-5.8693,-5.9708,-6.0182,-6.0825,-6.1467,-6.1806,-6.2516,-6.3001,-6.248,-6.1975,-6.1405,-6.0566,-6.1049,-6.1396,0.0,0.0,0.0,0.0,0.0,0.0,-5.2641,-5.1358,-5.0796,-5.1034,0.0,0.0,0.0,0.0,0.0,0.0,0.0,0.0,0.0,0.0,0.0,0.0,0.0,0.0,0.0,-5.5124,-5.6319,-5.7188,-5.7913,-5.8528,-5.9072,-5.9434,-6.0701,-6.273,-6.3625,-6.4505,-6.5452,-6.6488,-6.8028,-6.9813,-7.0807,-7.1745,-7.2647,-7.4136,-7.4997,-7.5562,-7.613,-7.6565,-7.6963,0.0,0.0,0.0,0.0,0.0,0.0,0.0,-5.4569,0.0,-6.1551,0.0,-6.7569,-6.6966,-7.0029,-7.1704,-7.069,0.0,-7.1766,-6.8337,-7.0306,-7.0147,-6.6993,-6.5158,-6.3166,-6.0759,-5.7005,-5.3874,0.0,-5.0186,-4.954,-4.9092,-4.9052,0.0,0.0,0.0,0.0,0.0,-5.1657,-5.23,0.0,-5.3957,-5.46,-5.4668,-5.531,-5.5581,-5.5581,-5.5581,-5.5987,-5.663,-5.734,-5.7611,-5.7611,-5.7712,-5.8254,-5.8896,-5.8998,-5.9471,-6.0148,-6.0926,-6.1129,-6.1332,-6.2076,-6.2245,-6.2063,-6.1405,-6.1246,-6.0971,-6.0318,-6.001,-5.9276,0.0,0.0,-5.4865,-5.2106,-5.1571,-5.1312,0.0,0.0,0.0,0.0,0.0,0.0,0.0,0.0,0.0,0.0,0.0,0.0,0.0,0.0,0.0,0.0,-5.574,0.0,-5.7514,0.0,-5.9253,-5.8891,-5.947,-6.0557,-6.2023,-6.3329,-6.441,-6.5461,-6.6859,-6.811,-6.9285,-7.0717,-7.1853,-7.2767,-7.4168,-7.5245,-7.6003,-7.6176,-7.614,-7.614,0.0,0.0,0.0,0.0,0.0,-5.3423,-5.5721,-5.9724,-6.3276,-6.5625,-6.8884,0.0,-7.0437,-7.0476,-7.0614,-7.0851,-7.1154,0.0,0.0,0.0,0.0,-6.8669,-6.7202,-6.4714,-6.1069,-5.7387,-5.4442,0.0,-4.9957,-4.908,-4.9742,-4.9227,0.0,0.0,0.0,0.0,-5.0202,-5.1657,0.0,-5.2435,-5.3957,-5.46,-5.46,-5.4735,-5.4769,-5.4769,-5.4769,-5.4871,-5.5108,-5.5852,-5.6089,-5.619,-5.6799,-5.7509,-5.822,-5.8829,-5.9099,-5.937,-6.0114,-6.0317,-6.0486,-6.1298,-6.1501,-6.1569,-6.2063,-6.1732,-6.1257,-6.1121,-6.0075,-5.8863,-5.7741,0.0,0.0,0.0,0.0,0.0,0.0,0.0,0.0,0.0,0.0,0.0,0.0,0.0,0.0,0.0,0.0,0.0,0.0,0.0,0.0,0.0,0.0,0.0,0.0,0.0,0.0,-6.139,-6.0846,-6.11,-6.2023,-6.3329,-6.4063,-6.4455,-6.6546,-6.8048,-6.9002,-6.9967,-7.1551,-7.3476,-7.3611,-7.464,-7.6003,-7.5937,-7.5514,-7.5262,0.0,0.0,0.0,0.0,0.0,0.0,0.0,-6.3186,0.0,-6.5324,-6.7148,-6.8411,-6.8227,-6.9988,-7.0984,-7.0552,-7.1582,-7.1845,-7.0964,-7.117,-7.0776,-6.971,-6.8153,0.0,-6.2875,-5.8833,-5.5563,-5.319,-5.046,-4.9117,-4.9308,-4.9125,0.0,0.0,0.0,-4.9627,0.0,0.0,0.0,-5.2976,-5.3721,-5.4025,-5.4025,-5.4025,-5.4025,-5.4025,-5.4025,-5.4025,-5.4194,-5.5344,-5.5953,-5.6292,-5.6258,-5.7002,-5.7814,-5.7408,-5.7848,-5.8524,-5.8863,-5.9505,-6.0283,-6.1095,-6.1603,-6.1873,-6.1839,-6.1231,-6.0588,-6.0182,-5.9201,-5.8167,-5.726,-5.496,0.0,0.0,0.0,0.0,0.0,0.0,0.0,0.0,0.0,0.0,0.0,0.0,0.0,0.0,0.0,0.0,0.0,0.0,0.0,0.0,0.0,0.0,0.0,0.0,0.0,-6.0208,-6.0696,-6.107,-6.1501,-6.3117,-6.401,-6.4398,-6.6145,-6.7468,-6.8593,-7.0621,-7.2157,-7.3154,-7.3797,-7.4548,-7.5119,-7.4677,-7.4264,-7.4146,0.0,-5.1977,0.0,0.0,-5.7809,0.0,0.0,-6.482,-6.699,-6.5352,-6.5437,-6.5897,-6.6461,-6.9343,-7.0896,-7.0415,-7.1778,-7.2108,-7.0664,-7.0776,-7.0681,-7.0115,-6.85,-6.6618,-6.4432,-6.0059,-5.6425,0.0,-5.0927,-4.9284,0.0,-4.8956,0.0,0.0,0.0,0.0,0.0,0.0,-5.2131,-5.3281,-5.345,-5.3518,-5.3518,-5.3518,-5.3518,-5.3518,-5.3518,-5.3518,-5.3687,-5.4837,-5.5716,-5.6258,-5.5852,-5.6596,-5.7442,-5.6292,-5.6867,-5.7881,-5.7881,-5.8863,-6.0047,-6.0858,-6.1603,-6.2042,-6.1637,-6.0926,-6.0182,-5.9607,-5.8761,-5.7857,-5.7056,-5.5135,0.0,0.0,0.0,0.0,0.0,0.0,0.0,0.0,0.0,0.0,0.0,0.0,0.0,0.0,0.0,0.0,0.0,0.0,0.0,0.0,0.0,0.0,-5.5859,0.0,-5.929,0.0,-6.0273,-6.0818,-6.097,-6.264,-6.3836,-6.4586,-6.5782,-6.7052,-6.846,-7.0983,-7.2157,-7.2438,-7.3499,-7.4022,-7.4187,-7.3606,-7.3206,-7.3125,0.0,0.0,0.0,0.0,0.0,0.0,0.0,-6.3393,-6.7292,-6.9291,-6.7676,-6.7336,-7.0103,-6.919,-6.9124,-7.0726,-7.0361,-7.0391,-7.0855,-7.0324,-6.9864,-6.9798,-6.8407,-6.6618,-6.4432,-6.0059,-5.6349,0.0,0.0,-4.922,0.0,-4.8861,0.0,0.0,0.0,0.0,0.0,-5.1928,-5.2266,-5.2469,-5.3213,-5.3518,-5.3518,-5.3518,-5.3518,-5.3518,-5.3518,-5.3518,-5.3518,-5.3653,-5.4194,-5.4905,-5.5513,-5.6258,-5.6867,-5.6731,-5.7273,-5.7881,-5.7881,-5.849,-5.9302,-6.0047,-6.0825,-6.1569,-6.2144,-6.1704,-6.1163,-6.1095,-5.9911,-5.866,-5.7887,-5.6498,-5.5041,0.0,0.0,0.0,0.0,0.0,0.0,0.0,0.0,0.0,0.0,0.0,0.0,0.0,0.0,0.0,0.0,0.0,0.0,0.0,0.0,-5.471,-5.7464,-5.7745,0.0,-6.0938,-6.0375,-6.048,-6.1119,-6.1634,-6.2855,-6.4566,-6.5792,-6.7368,-6.9135,-6.9417,-7.0367,-7.1593,-7.1504,-7.2337,-7.3597,-7.3276,-7.2901,-7.2517,0.0,0.0,0.0,0.0,0.0,0.0,0.0,-6.4031,-6.5996,-6.7308,-6.7451,-6.806,-6.9645,-6.978,-6.9845,-7.0229,-7.0361,-7.0394,-7.0262,-6.9964,-6.9599,-6.9136,-6.8175,-6.6618,-6.4432,-6.092,-5.7475,0.0,0.0,0.0,0.0,0.0,0.0,0.0,0.0,-5.1183,-5.1894,-5.2164,-5.257,-5.3044,-5.3382,-5.3518,-5.3518,-5.3518,-5.3518,-5.3518,-5.3518,-5.3518,-5.3518,-5.3518,-5.3991,-5.4634,-5.4938,-5.5547,-5.6055,-5.5615,-5.6325,-5.7036,-5.6156,-5.7442,-5.9099,-5.937,-6.0385,-6.1366,-6.167,-6.1501,-6.1163,-6.0689,-5.9404,-5.8118,-5.7374,-5.6021,-5.5006,0.0,0.0,0.0,0.0,0.0,0.0,0.0,0.0,-4.8511,0.0,0.0,0.0,0.0,0.0,0.0,0.0,0.0,0.0,-4.9729,0.0,-5.3868,-5.5847,-5.6621,-5.8203,-6.0563,-6.0702,-6.1085,-6.1849,-6.2634,-6.3698,-6.4841,-6.6063,-6.7045,-6.7857,-6.9246,-7.0262,-7.0809,-7.1503,-7.2147,-7.2617,-7.2056,-7.1566,-7.13,-5.9608,0.0,-5.9219,0.0,-6.1852,-6.2361,-6.3558,-6.4156,-6.4657,-6.5132,-6.6305,-6.7452,-6.8171,-6.8747,-6.9188,-6.9318,-6.9746,-7.0039,-6.9831,-6.9798,-6.9467,-6.8705,-6.8009,0.0,-6.4432,-6.1715,-5.8634,-5.5156,-5.3612,0.0,0.0,0.0,0.0,0.0,-5.1285,-5.1961,-5.2672,-5.2672,-5.2976,-5.3518,-5.3518,-5.3518,-5.3518,-5.3518,-5.3518,-5.3518,-5.3518,-5.3518,-5.3518,-5.3518,-5.3856,-5.4262,-5.4262,-5.4769,-5.5277,-5.4735,-5.5649,-5.6562,-5.5513,-5.6934,-5.8727,-5.8964,-5.9844,-6.0622,-6.0622,-6.0791,-6.0723,-5.9945,-5.8592,-5.7408,-5.69,-5.5784,-5.5006,-5.5344,0.0,0.0,0.0,0.0,0.0,0.0,-4.8883,-4.868,-4.8984,0.0,0.0,0.0,0.0,0.0,0.0,0.0,0.0,0.0,0.0,0.0,0.0,0.0,-5.7947,-5.9798,-6.0484,-6.1273,-6.2021,-6.3469,-6.4393,-6.5094,-6.628,-6.7044,-6.7512,-6.8966,-6.9942,-7.054,-7.1217,-7.1591,-7.162,-7.0973,-7.0608,-7.0608,-6.0835,-6.1613,-6.2241,-6.2929,-6.3558,-6.3767,-6.3169,-6.3109,-6.3318,-6.3917,-6.438,-6.5142,-6.6322,-6.5467,-6.5683,-6.7871,-6.8104,-6.8634,-6.9703,-6.9798,-6.9467,0.0,0.0,-6.6618,-6.4432,-6.2212,-5.9628,-5.6647,0.0,0.0,-5.1731,0.0,-5.1589,-5.2266,-5.2266,-5.2739,-5.3484,-5.3484,-5.3484,-5.3518,-5.3518,-5.3518,-5.3518,-5.3518,-5.3518,-5.3518,-5.3518,-5.3518,-5.3518,-5.3518,-5.3518,-5.3518,-5.3518,-5.4025,-5.46,-5.46,-5.5649,-5.6799,-5.6799,-5.734,-5.8084,-5.8829,-5.9032,-5.9032,-5.9032,-5.9607,-5.9911,-5.9167,-5.7848,-5.6799,-5.6799,-5.619,-5.5446,-5.4735,0.0,0.0,0.0,0.0,0.0,0.0,-5.0067,-4.9796,-4.9086,0.0,0.0,0.0,0.0,0.0,0.0,0.0,0.0,-4.9018,-5.1928,0.0,-5.4566,-5.6765,-5.8254,-5.9032,-5.9742,-6.052,-6.1366,-6.3599,-6.4739,-6.5058,-6.6306,-6.7604,-6.8713,-6.8116,-6.9169,-7.0891,-7.0128,-7.0152,-7.0515,-7.0515,-7.0515,-7.0515,-6.2361,-6.263,-6.2839,-6.3049,-6.3588,-6.3797,-6.3169,-6.3438,-6.3617,-6.3408,-6.3514,-6.3706,-6.4127,-6.5173,-6.611,0.0,-6.695,-6.7054,0.0,-6.8204,-6.8079,-6.6872,-6.7339,-6.6618,-6.4432,-6.2709,-6.0622,-5.8204,0.0,0.0,0.0,-5.2706,-5.2943,-5.3651,-5.3281,-5.3551,-5.4228,-5.3721,-5.3518,-5.3518,-5.3518,-5.3518,-5.3518,-5.3518,-5.3518,-5.3518,-5.3518,-5.3518,-5.3518,-5.3518,-5.3518,-5.3518,-5.3518,-5.3653,-5.3856,-5.3856,-5.4905,-5.5953,-5.5446,-5.6562,-5.7949,-5.8186,-5.8626,-5.9133,-5.9641,-5.9945,-5.9911,-5.9167,-5.822,-5.7408,-5.69,-5.5784,-5.4871,-5.4634,-5.416,0.0,0.0,0.0,0.0,0.0,-5.0405,-5.0202,0.0,-5.0067,0.0,0.0,0.0,0.0,0.0,0.0,0.0,0.0,-5.2469,0.0,-5.5344,-5.7036,-5.8524,-5.9776,-6.1061,-6.2505,-6.4098,-6.4937,-6.5597,-6.6085,-6.6406,-6.7218,-6.815,-6.835,-6.9127,-7.025,-7.0434,-7.0498,-7.0515,-7.0515,-7.0515,-7.0515,-6.3079,-6.3079,-6.3079,-6.3079,-6.3408,-6.3528,-6.3139,-6.3408,-6.3528,-6.3139,-6.3079,-6.3079,-6.3079,-6.432,0.0,-6.5683,-6.579,0.0,-6.6322,-6.7465,-6.7456,-6.5934,-6.702,-6.6618,-6.4432,0.0,0.0,-5.9728,-5.7785,-5.6004,-5.4556,-5.4179,-5.4219,-5.4552,-5.4091,-5.416,-5.4464,-5.3822,-5.3518,-5.3518,-5.3416,-5.3416,-5.3518,-5.3416,-5.3416,-5.3518,-5.3518,-5.3518,-5.3518,-5.3518,-5.3518,-5.3518,-5.3518,-5.3687,-5.3923,-5.3923,-5.4566,-5.531,-5.5412,-5.6224,-5.7205,-5.7746,-5.8051,-5.8389,-5.9099,-5.8863,-5.8389,-5.822,-5.7611,-5.6833,-5.6122,-5.5209,-5.4499,-5.4228,-5.3788,-5.3315,-5.2807,0.0,0.0,0.0,0.0,0.0,0.0,-5.0777,0.0,0.0,0.0,0.0,0.0,0.0,0.0,-5.2063,-5.3551,0.0,-5.6528,-5.7983,-5.9471,-6.0994,-6.2482,-6.4025,-6.553,-6.5613,-6.6019,-6.6541,-6.6862,-6.7401,-6.8109,-6.8796,-6.9446,-7.0004,-7.0473,-7.0456,-7.0236,-7.0236,-7.0236,-7.0236,-6.3079,-6.3079,0.0,0.0,-6.3079,0.0,-6.3079,-6.3079,-6.3079,-6.3079,-6.3079,-6.3079,-6.3079,-6.3079,-6.3478,-6.4512,0.0,0.0,0.0,-6.7196,-6.7193,-6.5738,-6.6766,0.0,-6.4311,-6.355,-6.2458,-6.102,-5.8395,-5.6711,-5.6054,-5.5655,-5.5391,-5.5174,-5.4763,-5.4462,-5.4323,-5.3754,-5.3518,-5.3416,-5.328,-5.3348,-5.345,-5.3247,-5.3348,-5.3518,-5.3518,-5.3518,-5.3518,-5.3518,-5.3518,-5.3518,-5.3551,-5.4059,-5.46,-5.46,-5.4668,-5.504,-5.6427,-5.6359,-5.619,-5.7543,-5.7374,-5.707,-5.7712,-5.6833,-5.6055,-5.6731,-5.6325,-5.5649,-5.4871,-5.4702,-5.4431,-5.3687,-5.3551,-5.3518,-5.3518,0.0,0.0,0.0,0.0,0.0,0.0,-5.1319,-5.1319,0.0,0.0,0.0,0.0,0.0,-5.2841,-5.3484,-5.504,-5.6562,-5.7949,-5.9471,-6.1061,-6.2651,-6.4005,-6.5053,-6.5764,-6.5831,-6.612,-6.6541,-6.7505,-6.8075,-6.8372,-6.9346,-6.9937,-7.0176,-7.0176,-6.9988,-6.9798,-6.9798,-6.9798,-6.9798,0.0,0.0,-6.3079,-6.3079,-6.3079,-6.3079,-6.3079,-6.3079,-6.3079,-6.3079,-6.3079,-6.3079,-6.3079,-6.3079,-6.3164,-6.3508,-6.3508,-6.3592,-6.3819,-6.449,-6.4452,-6.3505,-6.407,-6.4031,-6.3258,-6.2509,-6.1437,-6.0258,-5.9079,-5.8084,-5.7321,-5.6254,-5.6029,-5.6463,-5.4845,-5.4485,-5.5097,-5.382,-5.328,-5.328,-5.3247,-5.3247,-5.328,-5.3179,-5.3348,-5.3518,-5.3518,-5.3518,-5.3518,-5.3518,-5.3518,-5.3585,-5.416,-5.4465,-5.46,-5.46,-5.5378,-5.6359,-5.6697,-5.707,-5.7442,-5.7814,-5.7746,-5.7679,-5.7848,-5.7611,-5.7408,-5.7577,-5.7476,-5.7137,-5.6427,-5.5818,-5.5209,-5.4465,-5.3856,-5.3518,-5.3518,-5.2807,0.0,0.0,-5.2536,-5.23,-5.2909,-5.2401,-5.23,0.0,0.0,0.0,0.0,0.0,-5.4465,-5.3551,-5.6021,-5.7814,-5.8727,-6.0791,-6.2888,-6.4918,-6.5256,-6.5748,-6.6323,-6.7032,-6.71,-6.6541,-6.7367,-6.8021,-6.864,-6.8596,-6.9286,-7.0176,-7.0176,-6.9988,-6.9798,-6.9798,-6.9798,-6.9798,-6.3079,-6.3079,-6.3079,-6.3079,-6.3079,-6.3079,-6.3079,-6.3079,-6.3079,-6.3079,-6.3079,-6.3079,-6.3079,-6.3079,-6.3079,-6.3079,-6.3079,-6.2959,-6.266,-6.3365,-6.3318,-6.2333,-6.3419,-6.3806,-6.3344,-6.2762,-6.1797,-6.0523,-5.9429,-5.8701,-5.827,-5.701,-5.6545,-5.6768,-5.5202,-5.4745,-5.5013,-5.3679,-5.3041,-5.3041,-5.2972,-5.3041,-5.3179,-5.311,-5.328,-5.3518,-5.3518,-5.3518,-5.3518,-5.3518,-5.3721,-5.4059,-5.4465,-5.504,-5.5615,-5.5615,-5.5919,-5.6461,-5.7103,-5.734,-5.7476,-5.7814,-5.7881,-5.7881,-5.7881,-5.7881,-5.7881,-5.7881,-5.7881,-5.7577,-5.6494,-5.5987,-5.5378,-5.4262,-5.3754,-5.3518,-5.3518,-5.3112,0.0,-5.345,-5.3416,-5.3518,-5.3957,-5.3923,-5.389,-5.3991,0.0,0.0,-5.3991,-5.5412,-5.5852,-5.504,-5.7205,-5.9099,-6.0554,-6.2787,-6.4512,-6.553,-6.5951,-6.6525,-6.7012,-6.764,-6.7606,-6.7217,-6.8331,-6.8749,-6.8762,-6.9166,-6.9628,-7.0209,-7.0082,-6.9893,-6.9798,-6.9798,-6.9798,-6.9798,-6.3079,-6.3079,-6.3079,-6.3079,-6.3079,-6.3079,-6.3079,-6.3079,-6.3079,-6.3079,-6.3079,-6.3079,-6.3079,-6.3079,-6.3079,-6.3079,-6.2989,-6.269,-6.2121,-6.2859,-6.2733,-6.1492,-6.3136,-6.3774,-6.3099,-6.2844,-6.2075,-6.067,-5.9481,-5.8833,-5.8701,-5.7465,-5.6768,-5.6481,-5.5495,-5.4901,-5.4556,-5.3332,-5.2834,-5.2834,-5.2694,-5.2834,-5.311,-5.2903,-5.311,-5.3416,-5.3416,-5.3585,-5.3687,-5.3687,-5.416,-5.4769,-5.4905,-5.5784,-5.6833,-5.6934,-5.6528,-5.6325,-5.7543,-5.7442,-5.7103,-5.7712,-5.7983,-5.8051,-5.8051,-5.8152,-5.8186,-5.8084,-5.8051,-5.7577,-5.6021,-5.5716,-5.5243,-5.3754,-5.3518,-5.3518,-5.3518,0.0,-5.3551,-5.3653,-5.4329,-5.4803,-5.4905,-5.5716,-5.5953,-5.531,-5.5243,0.0,0.0,-5.6562,-5.7306,-5.7306,-5.8626,-6.0452,-6.2685,-6.4816,-6.5782,-6.5649,-6.6475,-6.715,-6.7584,-6.7959,-6.8079,-6.8046,-6.9465,-6.9647,-6.8875,-6.9846,-7.0263,-7.0176,-6.9893,-6.9798,-6.9798,-6.9798,-6.9798,-6.9798,-6.3079,-6.3079,-6.3079,-6.3079,-6.3079,-6.3079,-6.3079,-6.3079,-6.3079,-6.3079,-6.3079,-6.3079,-6.3079,-6.3079,-6.3079,-6.3079,-6.257,-6.2211,-6.2121,-6.1237,-6.0626,-6.0415,-6.0167,-5.9857,-5.9377,-5.99,-5.9816,-5.8885,-5.8856,-5.8568,-5.7939,-5.7155,-5.6382,-5.5752,-5.4966,-5.4309,-5.3823,-5.299,-5.2624,-5.2624,-5.2624,-5.2624,-5.2694,-5.2624,-5.2903,-5.3247,-5.3247,-5.3753,-5.4431,-5.4431,-5.4905,-5.5649,-5.6258,-5.663,-5.6934,-5.7543,-5.7645,-5.7611,-5.7814,-5.7814,-5.7746,-5.7848,-5.8355,-5.8829,-5.8829,-5.9302,-5.9573,-5.8964,-5.8829,-5.8186,-5.6122,-5.5716,-5.5243,-5.3754,-5.3518,-5.3518,-5.3518,0.0,-5.3721,-5.4363,-5.5074,-5.5784,-5.6393,-5.7712,-5.8457,-5.8355,-5.8321,-5.8321,-5.8321,-5.9133,-5.9607,-5.9607,-6.0486,-6.2009,-6.4241,-6.5831,-6.6643,-6.6559,-6.7217,-6.7483,-6.7618,-6.8685,-6.8831,-6.8294,-6.9132,-6.9434,-6.9243,-6.9361,-6.9643,-7.0176,-6.9893,-6.9798,-6.9798,-6.9798,-6.9798,-6.9798,-6.3079,-6.3079,-6.3079,-6.3079,-6.3079,-6.3079,-6.3079,-6.3079,-6.3079,-6.3079,-6.3079,-6.3079,-6.3079,-6.3079,-6.3079,-6.3079,-6.2151,-6.1553,-6.1553,-6.0625,-5.9937,-5.9578,-5.9531,-5.9328,-5.8899,-5.9188,-5.8876,-5.7788,-5.7975,-5.7707,-5.7069,-5.6777,-5.6514,-5.615,-5.5454,-5.4924,-5.4708,-5.3977,-5.334,-5.3114,-5.344,-5.318,-5.2657,-5.3057,-5.3098,-5.3041,-5.3041,-5.3581,-5.4323,-5.4323,-5.5063,-5.6073,-5.6482,-5.7195,-5.7904,-5.8315,-5.849,-5.849,-5.849,-5.8795,-5.9066,-5.9066,-5.9336,-5.9607,-5.9607,-5.9877,-6.0013,-5.9674,-5.9607,-5.9032,-5.7205,-5.6562,-5.5953,-5.4871,-5.4025,0.0,0.0,-5.4093,-5.4363,-5.5108,-5.619,-5.734,-5.8457,-5.9607,-6.025,-6.025,-5.9844,-5.9776,-6.0216,-6.0554,-6.1129,-6.1907,-6.2685,-6.3768,-6.5189,-6.6271,-6.6931,-6.7251,-6.7502,-6.8021,-6.8796,-6.9199,-6.9424,-6.9334,-6.9769,-6.9961,-6.9839,-6.9879,-7.0155,-7.0549,-7.027,-7.0082,-6.9988,-6.9988,-6.9893,-6.9798,-6.3079,-6.3079,-6.3079,-6.3079,-6.3079,-6.3079,-6.3079,-6.3079,-6.3079,-6.3079,-6.3079,-6.3079,-6.3079,-6.3079,-6.3079,-6.3079,-6.1882,-6.1104,-6.1104,-6.0326,-5.9638,-5.9129,-5.9105,-5.8947,-5.8746,-5.8593,-5.8027,-5.6709,-5.6997,-5.6723,-5.6099,-5.6235,-5.6237,-5.615,-5.5776,-5.5521,-5.5322,-5.4759,-5.4195,-5.3732,-5.4295,-5.3937,-5.3119,-5.3684,-5.3695,-5.3335,-5.3335,-5.3837,-5.4544,-5.4544,-5.5381,-5.6486,-5.6835,-5.7715,-5.8656,-5.9085,-5.9329,-5.9396,-5.9302,-5.9599,-6.0038,-6.0114,-6.025,-6.0385,-6.0385,-6.052,-6.0588,-6.0419,-6.0385,-5.9911,-5.8423,-5.7543,-5.6765,-5.5852,0.0,0.0,0.0,-5.4735,-5.5209,-5.6122,-5.7679,-5.9201,-6.052,-6.167,-6.2245,-6.2076,-6.1637,-6.1603,-6.2042,-6.1998,-6.2606,-6.389,-6.458,-6.5121,-6.5662,-6.644,-6.71,-6.7671,-6.7752,-6.8438,-6.9805,-6.9578,-6.9769,-7.0288,-7.0281,-7.0306,-7.0288,-7.0281,-7.0549,-7.0733,-7.0549,-7.027,-7.0082,-7.0176,-6.9988,-6.9798,-6.3079,-6.3079,-6.3079,-6.3079,-6.3079,-6.3079,-6.3079,-6.3079,-6.3079,-6.3079,-6.3079,-6.3079,-6.3079,-6.3079,-6.3079,-6.3079,-6.1882,-6.1104,-6.1104,-5.9907,-5.9159,-5.9099,-5.7978,-5.7333,-5.7213,-5.6984,-5.6457,-5.5653,-5.6019,-5.5771,-5.5075,-5.5306,-5.5037,-5.4533,-5.5237,-5.5256,-5.4593,-5.4527,-5.4494,-5.4427,-5.4494,-5.446,-5.4361,-5.4427,-5.4542,-5.4655,-5.4655,-5.5269,-5.6051,-5.6051,-5.6553,-5.7323,-5.8026,-5.8327,-5.8605,-5.9463,-6.0213,-6.0661,-6.014,-5.9928,-5.9919,-6.0038,-6.0655,-6.1231,-6.1231,-6.1738,-6.2042,-6.1366,-6.1231,-6.0757,-5.9201,-5.8321,-5.734,-5.5953,0.0,0.0,-5.4566,-5.5209,-5.6156,-5.7577,-5.9708,-6.1366,-6.2144,-6.414,-6.5087,-6.441,-6.4918,-6.5019,-6.4377,-6.4214,-6.442,-6.5194,-6.5512,-6.5628,-6.5696,-6.644,-6.7184,-6.7895,-6.8081,-6.8764,-6.9805,-6.9776,-6.9982,-7.0448,-7.0049,-7.0143,-7.0448,-7.0049,-6.9988,-7.027,-7.0176,-7.0082,-6.9893,-7.0082,-6.9988,-6.9798,-6.3079,-6.3079,-6.3079,-6.3079,-6.3079,-6.3079,-6.3079,-6.3079,-6.3079,-6.3079,-6.3079,-6.3079,-6.3079,-6.3079,-6.3079,-6.3079,-6.1882,-6.1104,-6.1104,-5.9847,-5.874,-5.7902,-5.7363,-5.6735,-5.5927,-5.5792,-5.5206,-5.4117,-5.476,-5.4601,-5.3512,-5.4749,-5.515,-5.5004,-5.5863,-5.6117,-5.5852,-5.5852,-5.562,-5.5256,-5.5686,-5.5322,-5.456,-5.5024,-5.4924,-5.4601,-5.4601,-5.514,-5.5846,-5.5846,-5.6611,-5.7642,-5.8097,-5.8875,-5.9744,-6.0751,-6.1073,-6.1207,-6.1098,-6.1031,-6.1031,-6.111,-6.1312,-6.1547,-6.1547,-6.1828,-6.2257,-6.2459,-6.2606,-6.2347,-6.1298,-6.052,-5.9505,-5.8017,0.0,-5.6558,-5.652,-5.7606,-5.8754,-5.9692,-6.1491,-6.3125,-6.4309,-6.5189,-6.5967,-6.6609,-6.6068,-6.617,-6.732,-6.6693,-6.6558,-6.6998,-6.6271,-6.612,-6.6373,-6.7117,-6.7861,-6.8673,-6.8819,-6.9468,-7.0512,-7.0043,-7.0082,-7.0515,-6.9955,-7.0082,-7.0515,-7.0176,-7.0176,-7.0363,-7.0363,-7.027,-7.0082,-7.0176,-6.9988,-6.9798,-6.3079,-6.3079,-6.3079,-6.3079,-6.3079,-6.3079,-6.3079,-6.3079,-6.3079,-6.3079,-6.3079,-6.3079,-6.3079,-6.3079,-6.3079,-6.3079,-6.1882,-6.1104,-6.1104,-5.9668,-5.8471,-5.7752,-5.7304,-5.6675,-5.5807,-5.5388,-5.473,-5.3803,-5.4274,-5.3952,-5.3131,-5.4442,-5.508,-5.5223,-5.6155,-5.6488,-5.6257,-5.6603,-5.6228,-5.5566,-5.6404,-5.6084,-5.5256,-5.5752,-5.5653,-5.5189,-5.5189,-5.5686,-5.6316,-5.6316,-5.7111,-5.8171,-5.8561,-5.9571,-6.0717,-6.1332,-6.1465,-6.1383,-6.1465,-6.1632,-6.1914,-6.1963,-6.1877,-6.1843,-6.2312,-6.2293,-6.2488,-6.3295,-6.3545,-6.3391,-6.2775,-6.2032,-6.1052,-5.9607,-5.893,-5.8518,-5.8369,-5.9802,-6.1018,-6.1638,-6.318,-6.458,-6.5595,-6.6102,-6.6812,-6.7827,-6.7184,-6.732,-6.8586,-6.8176,-6.7819,-6.7637,-6.7194,-6.706,-6.7266,-6.7502,-6.8229,-6.9363,-6.9357,-6.9903,-7.0733,-7.0176,-7.0082,-7.033,-6.9988,-7.0082,-7.0363,-7.0176,-7.0176,-7.0236,-7.033,-7.027,-7.0082,-7.0176,-6.9988,-6.9798,-6.3079,-6.3079,-6.3079,-6.3079,-6.3079,-6.3079,-6.3079,-6.3079,-6.3079,-6.3079,-6.3079,-6.3079,-6.3079,-6.3079,-6.3079,-6.3049,-6.1852,-6.1104,-6.1104,-5.9219,-5.8411,-5.9069,-5.7812,-5.7094,-5.7094,-5.5837,-5.5179,-5.5179,-5.4521,-5.4192,-5.4192,-5.4439,-5.4727,-5.5019,-5.5878,-5.591,-5.5393,-5.6257,-5.6179,-5.5393,-5.6336,-5.668,-5.668,-5.668,-5.668,-5.668,-5.668,-5.7177,-5.7806,-5.7806,-5.8303,-5.9032,-5.9794,-6.0654,-6.1417,-6.1202,-6.1252,-6.1334,-6.1202,-6.1649,-6.2348,-6.2682,-6.2278,-6.2111,-6.3534,-6.33,-6.3049,-6.3701,-6.3869,-6.3718,-6.3194,-6.2535,-6.1638,-6.0309,-6.0148,-6.0148,-6.0148,-6.1467,-6.2719,-6.3463,-6.4816,-6.573,-6.573,-6.7049,-6.7895,-6.7895,-6.8673,-6.8688,-6.7651,-6.8324,-6.827,-6.7267,-6.8148,-6.8517,-6.8339,-6.7602,-6.8059,-6.9805,-6.9501,-6.9812,-7.0515,-7.027,-7.0176,-7.0176,-6.9893,-6.9988,-7.0209,-6.9893,-6.9798,-6.9798,-7.0082,-6.9988,-6.9798,-7.0082,-6.9988,-6.9798,-6.3079,-6.3079,-6.3079,-6.3079,-6.3079,-6.3079,-6.3079,-6.3079,-6.3079,-6.3079,-6.3079,-6.2899,-6.245,-6.2391,-6.2211,-6.1732,-6.0894,-6.0206,-5.9727,-5.871,-5.8201,-5.8411,-5.7154,-5.6226,-5.5777,-5.5388,-5.497,-5.4491,-5.4311,-5.3713,-5.2785,-5.3589,-5.3651,-5.333,-5.4292,-5.4592,-5.4433,-5.5197,-5.5435,-5.5345,-5.6141,-5.6559,-5.668,-5.668,-5.668,-5.6746,-5.7276,-5.7608,-5.7873,-5.8403,-5.9065,-5.9794,-6.0556,-6.1335,-6.1932,-6.1848,-6.1932,-6.2031,-6.2477,-6.2411,-6.2264,-6.2348,-6.2632,-6.2913,-6.3344,-6.3448,-6.3566,-6.43,-6.4604,-6.4707,-6.4757,-6.4521,-6.3795,-6.2042,-6.2584,-6.3012,-6.2392,-6.416,-6.5681,-6.6289,-6.7404,-6.8098,-6.8098,-6.8297,-6.8682,-6.9187,-6.9715,-6.9524,-6.816,-6.8617,-6.8918,-6.8741,-6.8202,-6.8478,-6.9603,-6.9233,-6.9155,-6.9501,-6.9946,-7.0222,-7.027,-7.0176,-7.0082,-6.9893,-6.9798,-6.9893,-6.9893,-6.9798,-6.9798,-6.9798,-6.9893,-6.9893,-6.9798,-6.9893,-6.9893,-6.9798,-6.3079,-6.3079,-6.3079,-6.3079,-6.3079,-6.3079,-6.3079,-6.3079,-6.3079,-6.3079,-6.3079,-6.2839,-6.2181,-6.2091,-6.1822,-6.1164,-6.0475,-5.9817,-5.9159,-5.8231,-5.7723,-5.7723,-5.6466,-5.5718,-5.5598,-5.5329,-5.4999,-5.461,-5.461,-5.4192,-5.3384,-5.3663,-5.3712,-5.3406,-5.3726,-5.3709,-5.349,-5.4246,-5.4442,-5.4317,-5.5435,-5.5978,-5.6211,-5.6933,-5.7144,-5.721,-5.7972,-5.8403,-5.8734,-5.9164,-5.9827,-6.0523,-6.0953,-6.1616,-6.2179,-6.2179,-6.2378,-6.2709,-6.314,-6.3173,-6.304,-6.304,-6.3173,-6.3438,-6.4001,-6.3989,-6.4075,-6.4806,-6.5114,-6.51,-6.5091,-6.5143,-6.469,-6.3208,-6.4267,-6.4992,-6.4555,-6.6221,-6.7689,-6.8162,-6.8451,-6.8741,-6.887,-6.8816,-6.9043,-6.9961,-7.0373,-7.0013,-6.8808,-6.9203,-6.9469,-6.9261,-6.8851,-6.9091,-7.0082,-7.0021,-6.9879,-6.9695,-7.0129,-7.0363,-7.0176,-7.0176,-7.0082,-6.9798,-6.9798,-6.9798,-6.9798,-6.9798,-6.9798,-6.9798,-6.9798,-6.9798,-6.9798,-6.9798,-6.9798,-6.9798,-6.3079,-6.3079,-6.3079,-6.3079,-6.3079,-6.3079,-6.3079,-6.3079,-6.3079,-6.3079,-6.3019,-6.275,-6.2091,-6.1942,-6.1642,-6.0984,-6.0356,-5.9727,-5.9069,-5.7812,-5.7064,-5.7004,-5.5837,-5.5478,-5.6077,-5.5508,-5.5179,-5.5179,-5.5179,-5.5149,-5.5089,-5.4491,-5.4292,-5.4359,-5.3776,-5.3131,-5.2516,-5.3496,-5.344,-5.2877,-5.4528,-5.531,-5.5653,-5.7179,-5.7793,-5.7972,-5.8734,-5.9429,-6.0026,-6.0092,-6.0556,-6.1119,-6.1185,-6.1682,-6.2278,-6.2345,-6.2842,-6.3372,-6.3438,-6.3902,-6.4399,-6.4465,-6.3968,-6.3802,-6.5127,-6.4929,-6.4664,-6.5359,-6.5459,-6.5349,-6.4927,-6.4847,-6.4667,-6.417,-6.5325,-6.635,-6.6623,-6.7833,-6.8829,-6.9194,-6.8553,-6.8384,-6.8829,-6.8897,-6.9289,-7.0322,-7.0423,-7.0088,-6.9353,-6.9803,-6.9776,-6.9051,-6.9743,-7.0016,-6.9798,-6.9988,-7.0176,-7.0176,-7.0209,-7.0209,-7.0176,-7.0209,-7.0082,-6.9798,-6.9798,-6.9798,-6.9798,-6.9798,-6.9798,-6.9798,-6.9798,-6.9798,-6.9798,-6.9798,-6.9798,-6.9798,-6.3079,-6.3079,-6.3079,-6.3079,-6.3079,-6.3079,-6.3079,-6.3079,-6.3079,-6.3079,-6.263,-6.2061,-6.1403,-6.0835,-6.0266,-5.9608,-5.9398,-5.9039,-5.8381,-5.7543,-5.6885,-5.6406,-5.5628,-5.5269,-5.5388,-5.5269,-5.5179,-5.5179,-5.5179,-5.494,-5.4431,-5.4281,-5.3661,-5.2713,-5.3074,-5.2562,-5.1539,-5.2846,-5.3343,-5.3437,-5.4326,-5.5588,-5.6996,-5.7326,-5.8035,-5.8767,-5.9496,-5.986,-6.0092,-6.0688,-6.0986,-6.1218,-6.1748,-6.2444,-6.314,-6.3736,-6.4034,-6.4266,-6.4796,-6.4664,-6.4531,-6.5061,-6.5061,-6.5028,-6.5326,-6.5293,-6.5392,-6.6121,-6.5823,-6.5647,-6.6257,-6.5946,-6.5601,-6.5607,-6.6397,-6.7167,-6.777,-6.8696,-6.9468,-7.0162,-7.0186,-7.0243,-7.0411,-7.0229,-7.0088,-6.9955,-6.9988,-6.9656,-6.8892,-6.8931,-6.8964,-6.8798,-6.8931,-6.9296,-6.9798,-6.9893,-6.9893,-6.9893,-7.0082,-7.0082,-6.9893,-7.0082,-7.0082,-6.9798,-6.9798,-6.9798,-6.9798,-6.9798,-6.9798,-6.9798,-6.9798,-6.9798,-6.9798,-6.9798,-6.9798,-6.9798,-6.3019,-6.281,-6.272,-6.3019,-6.3079,-6.2959,-6.266,-6.26,-6.251,-6.2181,-6.1852,-6.1373,-6.0685,-6.0296,-5.9817,-5.9159,-5.883,-5.8501,-5.8141,-5.7214,-5.6496,-5.6196,-5.5538,-5.5179,-5.5179,-5.5179,-5.5179,-5.5179,-5.5179,-5.5029,-5.467,-5.4371,-5.3832,-5.3174,-5.3174,-5.2785,-5.2187,-5.2875,-5.3254,-5.3493,-5.4234,-5.5191,-5.6183,-5.6941,-5.785,-5.8805,-5.9526,-6.0157,-6.0655,-6.1384,-6.1616,-6.1748,-6.2477,-6.3206,-6.3868,-6.4266,-6.463,-6.4962,-6.5326,-6.516,-6.4962,-6.5326,-6.569,-6.5856,-6.5492,-6.569,-6.6055,-6.6452,-6.6485,-6.6485,-6.6699,-6.6699,-6.6533,-6.6346,-6.7212,-6.8135,-6.8627,-6.9328,-6.9988,-7.0482,-7.0306,-7.0105,-7.0046,-7.0163,-7.0049,-6.9798,-6.9798,-6.9633,-6.9235,-6.8871,-6.8837,-6.9202,-6.8871,-6.9036,-6.9798,-6.9798,-6.9798,-6.9798,-6.9893,-6.9893,-6.9798,-6.9988,-6.9893,-6.9798,-6.9798,-6.9798,-6.9798,-6.9798,-6.9798,-6.9798,-6.9798,-6.9798,-6.9798,-6.9798,-6.9798,-6.9798,-6.2959,-6.263,-6.245,-6.2989,-6.2989,-6.272,-6.2181,-6.2002,-6.1732,-6.1194,-6.1014,-6.0715,-6.0146,-5.9997,-5.9697,-5.9159,-5.859,-5.8231,-5.8141,-5.7124,-5.6436,-5.6346,-5.5807,-5.5508,-5.5508,-5.5418,-5.5299,-5.5179,-5.5179,-5.5179,-5.5179,-5.464,-5.4311,-5.4192,-5.3743,-5.3384,-5.3204,-5.3294,-5.3354,-5.3451,-5.4192,-5.4727,-5.5068,-5.6371,-5.7592,-5.8517,-5.9434,-6.0521,-6.1583,-6.2146,-6.2345,-6.2477,-6.3239,-6.3902,-6.4399,-6.4531,-6.4962,-6.5459,-6.5558,-6.5591,-6.5591,-6.5591,-6.6154,-6.6519,-6.579,-6.6187,-6.6751,-6.6883,-6.7281,-6.7479,-6.6982,-6.7281,-6.7479,-6.6949,-6.791,-6.8832,-6.9151,-6.9716,-7.0176,-7.033,-6.9888,-6.9428,-6.931,-6.9656,-6.9893,-6.9798,-6.9798,-6.9732,-6.9599,-6.8904,-6.8837,-6.9599,-6.8904,-6.8937,-6.9765,-6.9798,-6.9798,-6.9798,-6.9931,-6.9931,-6.9798,-6.9931,-6.9931,-6.9798,-6.9798,-6.9798,-6.9798,-6.9798,-6.9798,-6.9798,-6.9798,-6.9798,-6.9798,-6.9798,-6.9798,-6.9798,-6.3049,-6.3019,-6.2959,-6.3049,-6.26,-6.2181,-6.2121,-6.1613,-6.1224,-6.1134,-6.0595,-6.0176,-6.0086,-5.9578,-5.9189,-5.9129,-5.9009,-5.874,-5.8171,-5.7962,-5.7603,-5.7004,-5.6885,-5.6825,-5.6825,-5.6316,-5.5748,-5.5179,-5.5179,-5.5179,-5.5179,-5.5089,-5.476,-5.4221,-5.47,-5.4281,-5.3204,-5.3832,-5.4072,-5.4072,-5.4171,-5.5031,-5.6361,-5.655,-5.7309,-5.8328,-5.9967,-6.16,-6.3007,-6.3107,-6.314,-6.3272,-6.4001,-6.4299,-6.4498,-6.5094,-6.5326,-6.5558,-6.6187,-6.6386,-6.6386,-6.6386,-6.6916,-6.7281,-6.6552,-6.6949,-6.7645,-6.8274,-6.7976,-6.7777,-6.8307,-6.7976,-6.7811,-6.8307,-6.8572,-6.8904,-6.9661,-6.9827,-6.9893,-6.9893,-6.9982,-7.0043,-7.0043,-7.0143,-7.0082,-6.9798,-6.9798,-6.95,-6.8871,-6.8142,-6.8109,-6.8804,-6.8142,-6.8407,-6.9765,-6.9798,-6.9798,-6.9798,-7.0461,-7.0428,-6.9798,-7.0461,-7.0394,-6.9798,-6.9798,-6.9798,-6.9798,-6.9798,-6.9798,-6.9798,-6.9798,-6.9798,-6.9798,-6.9798,-6.9798,-6.9798,-6.3019,-6.278,-6.266,-6.3019,-6.254,-6.1972,-6.1613,-6.0984,-6.0416,-6.0027,-5.9727,-5.9548,-5.9548,-5.9279,-5.9099,-5.9099,-5.877,-5.8441,-5.8141,-5.7752,-5.7423,-5.7094,-5.7094,-5.7094,-5.7094,-5.6496,-5.6196,-5.6256,-5.5538,-5.5179,-5.5179,-5.5179,-5.5029,-5.476,-5.5059,-5.485,-5.4341,-5.461,-5.476,-5.476,-5.476,-5.521,-5.5819,-5.5819,-5.669,-5.8026,-5.9789,-6.1284,-6.2484,-6.2876,-6.3396,-6.3968,-6.473,-6.5227,-6.5624,-6.5955,-6.632,-6.6717,-6.7049,-6.7148,-6.7148,-6.7148,-6.7678,-6.8142,-6.7811,-6.8307,-6.8804,-6.8705,-6.8771,-6.8804,-6.8705,-6.8771,-6.8804,-6.8705,-6.9036,-6.9434,-6.9732,-6.9798,-6.9798,-6.9798,-6.9893,-6.9988,-6.9988,-6.9988,-6.9893,-6.9798,-6.9798,-6.9666,-6.9334,-6.8606,-6.8539,-6.9268,-6.8606,-6.8738,-6.9765,-6.9798,-6.9798,-6.9798,-7.0958,-7.1123,-7.0428,-7.1189,-7.1355,-7.1024,-7.0593,-7.0394,-7.0361,-6.9964,-6.9798,-6.9798,-6.9798,-6.9798,-6.9798,-6.9798,-6.9798,-6.9798]}]]